[[{"header":{"parameterUnit":"m.s-1","parameterCategory":1,"la1":30.6,"la2":29.2853,"lo1":-89.7004,"lo2":-87.6739,"dy":0.0162,"dx":0.0183,"nx":112,"ny":82,"refTime":"2023-09-12T18:00:00:Z","depth":0,"parameterNumber":2,"parameterNumberName":"U-component_of_WINDS"},"data":[0.0,0.0,0.0,0.0,0.0,0.0,0.0,0.0,0.0,0.0,0.0,0.0,0.0,0.0,0.0,0.0,0.0,0.0,0.0,0.0,0.0,0.0,0.0,0.0,0.0,0.0,0.0,0.0,0.0,0.0,0.0,0.0,0.0,0.0,0.0,0.0,0.0,0.0,0.0,0.0,0.0,0.0,0.0,0.0,0.0,0.0,0.0,0.0,0.0,0.0,0.0,0.0,0.0,0.0,0.0,0.0,0.0,0.0,0.0,0.0,0.0,0.0,0.0,0.0,0.0,0.0,0.0,0.0,0.0,0.0,0.0,0.0,0.0,0.0,0.0,0.0,0.0,0.0,0.0,0.0,0.0,0.0,0.0,0.0,0.0,0.0,0.0,0.0,0.0,0.0,1.9934,1.9317,1.9124,1.9161,1.953,2.0,2.0534,2.1179,0.0,0.0,0.0,0.0,0.0,0.0,0.0,0.0,0.0,0.0,0.0,0.0,0.0,0.0,0.0,0.0,0.0,0.0,0.0,0.0,0.0,0.0,0.0,0.0,0.0,0.0,0.0,0.0,0.0,0.0,0.0,0.0,0.0,0.0,0.0,0.0,0.0,0.0,0.0,0.0,0.0,0.0,0.0,0.0,0.0,0.0,0.0,0.0,0.0,0.0,0.0,0.0,0.0,0.0,0.0,0.0,0.0,0.0,0.0,0.0,0.0,0.0,0.0,0.0,0.0,0.0,0.0,0.0,0.0,0.0,0.0,0.0,0.0,0.0,0.0,0.0,0.0,0.0,0.0,0.0,0.0,0.0,0.0,0.0,0.0,0.0,0.0,0.0,0.0,0.0,0.0,0.0,0.0,0.0,0.0,0.0,0.0,0.0,0.0,0.0,0.0,0.0,0.0,0.0,1.9236,1.8679,1.8655,1.8784,1.9011,1.9639,2.0258,2.0749,0.0,0.0,0.0,0.0,0.0,0.0,0.0,0.0,0.0,0.0,0.0,0.0,0.0,0.0,0.0,0.0,0.0,0.0,0.0,0.0,0.0,0.0,0.0,0.0,0.0,0.0,0.0,0.0,0.0,0.0,0.0,0.0,0.0,0.0,0.0,0.0,0.0,0.0,0.0,0.0,0.0,0.0,0.0,0.0,0.0,0.0,0.0,0.0,0.0,0.0,0.0,0.0,0.0,0.0,0.0,0.0,0.0,0.0,0.0,0.0,0.0,0.0,0.0,0.0,0.0,0.0,0.0,0.0,0.0,0.0,0.0,0.0,0.0,0.0,0.0,0.0,0.0,0.0,0.0,0.0,0.0,0.0,0.0,0.0,0.0,0.0,0.0,0.0,0.0,0.0,0.0,0.0,0.0,0.0,0.0,0.0,0.0,0.0,0.0,0.0,0.0,0.0,0.0,1.8916,1.8369,1.7948,1.7948,1.8161,1.8489,1.9139,1.9803,2.0485,2.1543,0.0,0.0,0.0,0.0,0.0,0.0,0.0,0.0,0.0,0.0,0.0,0.0,0.0,0.0,0.0,0.0,0.0,0.0,0.0,0.0,0.0,0.0,0.0,0.0,0.0,0.0,0.0,0.0,0.0,0.0,0.0,0.0,0.0,0.0,0.0,0.0,0.0,0.0,0.0,0.0,0.0,0.0,0.0,0.0,0.0,0.0,0.0,0.0,0.0,0.0,0.0,0.0,0.0,0.0,0.0,0.0,0.0,0.0,0.0,0.0,0.0,0.0,0.0,0.0,0.0,0.0,0.0,0.0,0.0,0.0,0.0,0.0,0.0,0.0,0.0,0.0,0.0,0.0,0.0,0.0,0.0,0.0,0.0,0.0,0.0,0.0,0.0,0.0,0.0,0.0,0.0,0.0,0.0,0.0,0.0,0.0,0.0,0.0,0.0,0.0,0.0,0.0,1.8508,1.7984,1.7676,1.7718,1.7876,1.8221,1.8818,1.9516,2.0215,2.1178,0.0,0.0,0.0,0.0,0.0,0.0,0.0,0.0,0.0,0.0,0.0,0.0,0.0,0.0,0.0,0.0,0.0,0.0,0.0,0.0,0.0,0.0,0.0,0.0,0.0,0.0,0.0,0.0,0.0,0.0,0.0,0.0,0.0,0.0,0.0,0.0,0.0,0.0,0.0,0.0,0.0,0.0,0.0,0.0,0.0,0.0,0.0,0.0,0.0,0.0,0.0,0.0,0.0,0.0,0.0,0.0,0.0,0.0,0.0,0.0,0.0,0.0,0.0,0.0,0.0,0.0,0.0,0.0,0.0,0.0,0.0,0.0,0.0,0.0,0.0,0.0,0.0,0.0,0.0,0.0,0.0,0.0,0.0,0.0,0.0,0.0,0.0,0.0,0.0,0.0,0.0,0.0,0.0,0.0,0.0,0.0,0.0,0.0,0.0,0.0,0.0,0.0,1.9217,1.8748,1.8439,1.8493,1.8513,1.8409,1.9127,1.9628,1.9834,2.0958,0.0,0.0,0.0,0.0,0.0,0.0,0.0,0.0,0.0,0.0,0.0,0.0,0.0,0.0,0.0,0.0,0.0,0.0,0.0,0.0,0.0,0.0,0.0,0.0,0.0,0.0,0.0,0.0,0.0,0.0,0.0,0.0,0.0,0.0,0.0,0.0,0.0,0.0,0.0,0.0,0.0,0.0,0.0,0.0,0.0,0.0,0.0,0.0,0.0,0.0,0.0,0.0,0.0,0.0,0.0,0.0,0.0,0.0,0.0,0.0,0.0,0.0,0.0,0.0,0.0,0.0,0.0,0.0,0.0,0.0,0.0,0.0,0.0,0.0,0.0,0.0,0.0,0.0,0.0,0.0,0.0,0.0,0.0,0.0,0.0,0.0,0.0,0.0,0.0,0.0,0.0,0.0,0.0,0.0,0.0,0.0,0.0,0.0,0.0,0.0,0.0,0.0,1.8754,1.8188,0.0,1.8012,1.8219,1.8442,1.9279,1.9888,2.0176,0.0,0.0,0.0,0.0,0.0,0.0,0.0,0.0,0.0,0.0,0.0,0.0,0.0,0.0,0.0,0.0,0.0,0.0,0.0,0.0,0.0,0.0,0.0,0.0,0.0,0.0,0.0,0.0,0.0,0.0,0.0,0.0,0.0,0.0,0.0,0.0,0.0,0.0,0.0,0.0,0.0,0.0,0.0,0.0,0.0,0.0,0.0,0.0,0.0,0.0,0.0,0.0,0.0,0.0,0.0,0.0,0.0,0.0,0.0,0.0,0.0,0.0,0.0,0.0,0.0,0.0,0.0,0.0,0.0,0.0,0.0,0.0,0.0,0.0,0.0,0.0,0.0,0.0,0.0,0.0,0.0,0.0,0.0,0.0,0.0,0.0,0.0,0.0,0.0,0.0,0.0,0.0,0.0,0.0,0.0,0.0,0.0,0.0,0.0,0.0,0.0,0.0,1.9641,1.8859,1.8166,0.0,1.7955,1.8302,1.8551,1.9482,2.0188,2.0602,0.0,0.0,0.0,0.0,0.0,0.0,0.0,0.0,0.0,0.0,0.0,0.0,0.0,0.0,0.0,0.0,0.0,0.0,0.0,0.0,0.0,0.0,0.0,0.0,0.0,0.0,0.0,0.0,0.0,0.0,0.0,0.0,0.0,0.0,0.0,0.0,0.0,0.0,0.0,0.0,0.0,0.0,0.0,0.0,0.0,0.0,0.0,0.0,0.0,0.0,0.0,0.0,0.0,0.0,0.0,0.0,0.0,0.0,0.0,0.0,0.0,0.0,0.0,0.0,0.0,0.0,0.0,0.0,0.0,0.0,0.0,0.0,0.0,0.0,0.0,0.0,0.0,0.0,0.0,0.0,0.0,0.0,0.0,0.0,0.0,0.0,0.0,0.0,0.0,0.0,0.0,0.0,0.0,0.0,0.0,0.0,0.0,0.0,0.0,0.0,0.0,0.0,2.0515,1.9645,1.8975,1.8333,1.8625,1.8794,1.8796,1.9664,2.046,0.0,0.0,0.0,0.0,0.0,0.0,0.0,0.0,0.0,0.0,0.0,0.0,0.0,0.0,0.0,0.0,0.0,0.0,0.0,0.0,0.0,0.0,0.0,0.0,0.0,0.0,0.0,0.0,0.0,0.0,0.0,0.0,0.0,0.0,0.0,0.0,0.0,0.0,0.0,0.0,0.0,0.0,0.0,0.0,0.0,0.0,0.0,0.0,0.0,0.0,0.0,0.0,0.0,0.0,0.0,0.0,0.0,0.0,0.0,0.0,0.0,0.0,0.0,0.0,0.0,0.0,0.0,0.0,0.0,0.0,0.0,0.0,0.0,0.0,0.0,0.0,0.0,0.0,0.0,0.0,0.0,0.0,0.0,0.0,0.0,0.0,0.0,0.0,0.0,0.0,0.0,0.0,0.0,0.0,0.0,0.0,0.0,0.0,0.0,0.0,0.0,0.0,0.0,2.0092,1.9242,1.856,1.792,1.8356,1.8768,1.9071,2.0051,2.0826,2.1212,0.0,0.0,0.0,0.0,0.0,0.0,0.0,0.0,0.0,0.0,0.0,0.0,0.0,0.0,0.0,0.0,0.0,0.0,0.0,0.0,0.0,0.0,0.0,0.0,0.0,0.0,0.0,0.0,0.0,0.0,0.0,0.0,0.0,0.0,0.0,0.0,0.0,0.0,0.0,0.0,0.0,0.0,0.0,0.0,0.0,0.0,0.0,0.0,0.0,0.0,0.0,0.0,0.0,0.0,0.0,0.0,0.0,0.0,0.0,0.0,0.0,0.0,0.0,0.0,0.0,0.0,0.0,0.0,0.0,0.0,0.0,0.0,0.0,0.0,0.0,0.0,0.0,0.0,0.0,0.0,0.0,0.0,0.0,0.0,0.0,0.0,0.0,0.0,0.0,0.0,0.0,0.0,0.0,0.0,0.0,0.0,0.0,0.0,0.0,0.0,0.0,0.0,1.9877,1.8927,1.8236,1.759,1.8073,1.8655,1.9081,2.0055,2.0917,2.1569,0.0,0.0,0.0,0.0,0.0,0.0,0.0,0.0,0.0,0.0,0.0,0.0,0.0,0.0,0.0,0.0,0.0,0.0,0.0,0.0,0.0,0.0,0.0,0.0,0.0,0.0,0.0,0.0,0.0,0.0,0.0,0.0,0.0,0.0,0.0,0.0,0.0,0.0,0.0,0.0,0.0,0.0,0.0,0.0,0.0,0.0,0.0,0.0,0.0,0.0,0.0,0.0,0.0,0.0,0.0,0.0,0.0,0.0,0.0,0.0,0.0,0.0,0.0,0.0,0.0,0.0,0.0,0.0,0.0,0.0,0.0,0.0,0.0,0.0,0.0,0.0,0.0,0.0,0.0,0.0,0.0,0.0,0.0,0.0,0.0,0.0,0.0,0.0,0.0,0.0,0.0,0.0,0.0,0.0,0.0,0.0,0.0,0.0,0.0,0.0,0.0,0.0,1.9762,1.8809,1.8061,1.7301,1.7843,1.8506,1.8934,1.9811,2.0832,2.1946,0.0,0.0,0.0,0.0,0.0,0.0,0.0,0.0,0.0,0.0,0.0,0.0,0.0,0.0,0.0,0.0,0.0,0.0,0.0,0.0,0.0,0.0,0.0,0.0,0.0,0.0,0.0,0.0,0.0,0.0,0.0,0.0,0.0,0.0,0.0,0.0,0.0,0.0,0.0,0.0,0.0,0.0,0.0,0.0,0.0,0.0,0.0,0.0,0.0,0.0,0.0,0.0,0.0,0.0,0.0,0.0,0.0,0.0,0.0,0.0,2.1615,0.0,0.0,0.0,0.0,0.0,0.0,0.0,0.0,0.0,0.0,0.0,0.0,0.0,0.0,0.0,0.0,0.0,0.0,0.0,0.0,0.0,0.0,0.0,0.0,0.0,0.0,0.0,0.0,0.0,0.0,0.0,0.0,0.0,0.0,0.0,0.0,0.0,0.0,0.0,0.0,0.0,1.9826,1.8955,1.817,1.7301,1.7744,1.841,1.8934,1.9552,2.0346,2.1307,2.2491,0.0,0.0,0.0,0.0,0.0,0.0,0.0,0.0,0.0,0.0,0.0,0.0,0.0,0.0,0.0,0.0,0.0,0.0,0.0,0.0,0.0,0.0,0.0,0.0,0.0,0.0,0.0,0.0,0.0,0.0,0.0,0.0,0.0,0.0,0.0,0.0,0.0,0.0,0.0,0.0,0.0,0.0,0.0,0.0,0.0,0.0,0.0,0.0,0.0,0.0,0.0,0.0,0.0,0.0,0.0,0.0,0.0,0.0,0.0,0.0,2.1362,0.0,0.0,0.0,0.0,0.0,0.0,0.0,0.0,0.0,0.0,0.0,0.0,0.0,0.0,0.0,0.0,0.0,0.0,0.0,0.0,0.0,0.0,0.0,0.0,0.0,0.0,0.0,0.0,0.0,0.0,0.0,0.0,0.0,0.0,0.0,0.0,0.0,0.0,0.0,0.0,1.9902,1.902,1.8236,1.7312,1.7744,1.8278,1.8774,1.9344,2.0003,2.0746,2.1763,0.0,0.0,0.0,0.0,0.0,0.0,0.0,0.0,0.0,0.0,0.0,0.0,0.0,0.0,0.0,0.0,0.0,0.0,0.0,0.0,0.0,0.0,0.0,0.0,0.0,0.0,0.0,0.0,0.0,0.0,0.0,0.0,0.0,0.0,0.0,0.0,0.0,0.0,0.0,0.0,0.0,0.0,0.0,0.0,0.0,0.0,0.0,0.0,0.0,0.0,0.0,0.0,0.0,1.7906,1.8118,1.872,1.8785,1.8838,1.896,1.9486,2.0078,2.0685,2.1133,0.0,0.0,0.0,0.0,0.0,0.0,0.0,0.0,0.0,0.0,0.0,0.0,0.0,0.0,0.0,0.0,0.0,0.0,0.0,0.0,0.0,0.0,0.0,0.0,2.1444,2.1732,0.0,0.0,0.0,0.0,0.0,0.0,0.0,0.0,0.0,0.0,0.0,0.0,1.9851,1.8992,1.8236,1.739,1.7744,1.8159,1.856,1.9146,1.9708,2.0271,2.1064,2.1951,0.0,0.0,0.0,0.0,0.0,0.0,0.0,0.0,0.0,0.0,0.0,0.0,0.0,0.0,0.0,0.0,0.0,0.0,0.0,0.0,0.0,0.0,0.0,0.0,0.0,0.0,0.0,0.0,0.0,0.0,0.0,0.0,1.994,1.9825,0.0,0.0,0.0,0.0,0.0,0.0,0.0,0.0,0.0,0.0,0.0,0.0,0.0,1.826,1.7778,1.729,1.7115,1.7181,1.6982,1.7003,1.728,1.7401,1.7468,1.7512,1.779,0.0,2.0377,2.0846,0.0,0.0,0.0,0.0,0.0,0.0,0.0,0.0,0.0,0.0,0.0,0.0,0.0,0.0,0.0,0.0,0.0,0.0,0.0,0.0,0.0,0.0,2.1572,2.086,2.0581,2.0395,0.0,2.1343,2.2289,2.2593,2.2863,0.0,0.0,0.0,0.0,0.0,0.0,0.0,1.9583,1.8768,1.8073,1.7379,1.7545,1.7975,1.856,1.8786,1.9198,1.985,2.0295,2.0966,2.1871,2.3255,0.0,0.0,0.0,0.0,0.0,0.0,0.0,0.0,0.0,0.0,0.0,0.0,0.0,0.0,0.0,0.0,0.0,0.0,0.0,0.0,0.0,0.0,0.0,0.0,0.0,0.0,0.0,0.0,0.0,2.0218,2.0199,2.0009,1.9852,1.9646,0.0,0.0,0.0,0.0,0.0,0.0,0.0,0.0,0.0,1.807,1.7578,1.7213,1.6775,1.6322,1.6026,1.5843,1.5728,1.5671,1.5728,1.5958,1.613,1.6197,1.6404,1.7036,1.8043,1.9144,1.9788,2.0152,0.0,0.0,0.0,0.0,2.1485,2.1411,2.1337,2.1255,0.0,2.1226,0.0,0.0,0.0,0.0,0.0,0.0,0.0,0.0,0.0,0.0,2.0458,1.985,1.9488,1.9267,1.9226,1.9542,2.0155,0.0,2.1465,2.1749,2.2058,0.0,0.0,0.0,0.0,2.0654,1.9374,1.862,1.7952,1.739,1.7479,1.781,1.8302,1.8572,1.8934,1.9565,1.9862,2.0396,2.1161,2.2369,2.3618,0.0,0.0,0.0,0.0,0.0,0.0,0.0,0.0,0.0,0.0,0.0,0.0,0.0,0.0,0.0,0.0,0.0,0.0,0.0,0.0,0.0,0.0,0.0,0.0,0.0,0.0,0.0,0.0,2.0372,2.0308,2.0016,1.9901,1.9643,0.0,0.0,0.0,0.0,0.0,0.0,1.7897,1.7556,1.7268,1.6922,1.6482,1.6036,1.57,1.5235,1.4874,1.456,1.4519,1.441,1.4282,1.4638,1.4815,1.4932,1.5157,1.5391,1.5758,1.7335,1.8132,1.8365,1.8972,1.9245,1.9389,1.9813,1.9927,1.9876,2.0181,2.0181,2.0181,2.0568,0.0,2.1608,2.2154,0.0,0.0,0.0,0.0,2.1445,2.0729,2.0004,1.9371,1.8869,1.8506,1.8278,1.8236,1.8116,1.8417,0.0,2.0143,2.0382,2.0743,0.0,0.0,0.0,0.0,1.9978,1.898,1.8363,1.7788,1.7267,1.7368,1.759,1.803,1.8302,1.8721,1.9303,1.9552,1.9952,2.061,2.1649,2.279,2.4055,0.0,0.0,0.0,0.0,0.0,0.0,0.0,0.0,0.0,0.0,0.0,0.0,0.0,0.0,0.0,0.0,0.0,0.0,0.0,0.0,0.0,0.0,0.0,0.0,0.0,0.0,0.0,0.0,0.0,1.9488,1.9331,0.0,0.0,0.0,0.0,1.7579,1.7234,1.6955,1.6684,1.6684,1.6389,1.5718,1.5517,1.5177,1.4588,1.424,1.3881,1.3563,1.345,1.326,1.307,1.3442,1.3563,1.3631,1.4061,1.4309,1.4419,1.5968,1.6708,1.6978,1.7545,1.782,1.7875,1.8417,1.862,1.8632,1.8975,1.9093,1.9133,1.9423,2.0016,2.0756,2.1218,2.1301,0.0,0.0,2.0801,2.0268,1.9723,1.9165,1.862,1.8061,1.7744,1.7523,1.7301,1.7245,1.7567,0.0,1.8975,1.9186,1.9423,0.0,1.985,1.9708,1.9448,1.9016,1.8255,1.7909,1.7534,1.7067,1.72,1.749,1.7909,1.8018,1.8452,1.9186,1.9356,1.9668,2.0233,2.1126,2.2118,2.3142,2.4884,0.0,0.0,0.0,0.0,0.0,0.0,0.0,0.0,0.0,0.0,0.0,0.0,0.0,0.0,0.0,0.0,0.0,0.0,0.0,0.0,0.0,0.0,0.0,0.0,0.0,0.0,0.0,0.0,1.875,1.8578,0.0,1.7722,1.7357,1.7134,1.6909,1.6503,1.6218,1.5999,1.5584,1.5225,1.4874,1.4529,1.4172,1.3743,1.3459,1.3155,1.2728,1.2789,1.272,1.2536,1.2911,1.3094,1.3216,1.3519,1.3761,1.401,1.4647,1.5177,1.571,1.6151,1.6492,1.6719,1.7234,1.7446,1.7545,1.7788,1.7854,1.7963,1.8536,1.9121,1.9631,1.9965,2.0092,2.0092,1.9953,1.9542,1.9073,1.8715,1.819,1.7667,1.7301,1.7022,1.6909,1.6853,1.6797,1.6965,1.7401,1.7788,1.8116,1.8375,1.8643,1.8857,1.8922,1.8762,1.8441,1.7909,1.759,1.7323,1.6909,1.7022,1.7312,1.7755,1.7975,1.8398,1.9133,1.9303,1.9617,2.0182,2.0944,2.1805,2.2773,2.4188,2.5501,0.0,0.0,0.0,0.0,0.0,0.0,0.0,0.0,0.0,0.0,0.0,0.0,0.0,0.0,0.0,0.0,0.0,0.0,0.0,0.0,0.0,0.0,0.0,0.0,0.0,0.0,1.8727,1.8007,1.7843,1.7567,1.6965,1.6684,1.6524,1.64,1.5989,1.5584,1.5235,1.4715,1.43,1.3992,1.364,1.3277,1.2972,1.2858,1.2552,1.212,1.2236,1.2182,1.2058,1.2367,1.2552,1.2736,1.2972,1.3216,1.3467,1.3649,1.407,1.4666,1.5245,1.5652,1.6009,1.6477,1.6751,1.6899,1.7022,1.7155,1.7379,1.7854,1.8278,1.8655,1.8857,1.8951,1.8898,1.8697,1.8321,1.7929,1.7722,1.729,1.6853,1.6637,1.6467,1.6353,1.6353,1.6353,1.642,1.6477,1.692,1.7357,1.7567,1.7722,1.7897,1.8116,1.8007,1.7733,1.7368,1.7211,1.7043,1.6751,1.6899,1.7179,1.759,1.781,1.8236,1.8869,1.9093,1.9473,2.0016,2.0696,2.15,2.2363,2.3842,2.5196,2.637,0.0,0.0,0.0,0.0,0.0,0.0,0.0,0.0,0.0,0.0,0.0,0.0,0.0,0.0,0.0,0.0,0.0,0.0,0.0,0.0,0.0,0.0,0.0,1.8313,1.8489,1.8228,1.729,1.7155,1.6941,1.6353,1.6171,1.6056,1.5874,1.5584,1.5118,1.4529,1.4181,1.3649,1.2989,1.2867,1.2613,1.2305,1.2305,1.212,1.1802,1.1802,1.1747,1.1622,1.1747,1.1934,1.2127,1.2436,1.2683,1.2805,1.318,1.3476,1.3881,1.4824,1.5362,1.573,1.6202,1.6477,1.6637,1.6751,1.6987,1.7278,1.7423,1.7634,1.7843,1.7843,1.7799,1.7656,1.7534,1.7234,1.6955,1.6807,1.6524,1.6239,1.6114,1.5951,1.5914,1.5914,1.5914,1.5914,1.5914,1.6363,1.6807,1.6955,1.6955,1.7011,1.719,1.7067,0.0,1.6627,1.6694,1.6751,1.6581,1.6786,1.7123,1.7412,1.759,1.7865,1.8224,1.8572,1.9105,1.9747,2.0459,2.1153,2.1996,2.38,2.5297,2.643,0.0,0.0,0.0,0.0,0.0,0.0,0.0,0.0,0.0,0.0,0.0,0.0,0.0,0.0,0.0,0.0,0.0,0.0,0.0,0.0,0.0,0.0,1.7523,1.7877,1.7895,1.7643,1.6842,1.6772,1.6555,1.5904,1.5846,1.572,1.5526,1.5245,1.4843,1.4309,1.3761,1.3277,1.2744,1.2436,1.2182,1.1926,1.1934,1.1872,1.1622,1.1622,1.1622,1.1622,1.1747,1.1802,1.1872,1.2243,1.2498,1.2683,1.2989,1.3285,1.3631,1.441,1.5001,1.5536,1.5904,1.6202,1.6488,1.6488,1.6648,1.6807,1.6976,1.7134,1.7234,1.7234,1.7234,1.7123,1.6909,1.6694,1.6534,1.6353,1.6066,1.5846,1.5846,1.5662,1.5604,1.573,1.573,1.5798,1.5856,1.6029,1.6192,1.6343,1.6467,1.6591,1.674,1.6797,0.0,1.6488,1.6488,1.6431,1.6134,1.6239,1.6389,1.6627,1.6899,1.7224,1.76,1.7952,1.8494,1.9331,1.9991,2.0966,2.2342,2.323,2.4066,0.0,0.0,0.0,0.0,0.0,0.0,0.0,0.0,0.0,0.0,0.0,0.0,0.0,0.0,0.0,0.0,0.0,0.0,0.0,0.0,0.0,0.0,1.6967,1.7152,1.7323,1.7494,1.7326,1.6654,1.6708,1.6646,1.6148,1.5988,1.585,1.5674,1.5243,1.4793,1.4249,1.3787,1.3265,1.2719,1.2472,1.2285,1.2092,1.2092,1.2027,1.1963,1.1963,1.1963,1.1963,1.2092,1.2082,0.0,1.2264,1.2438,1.2498,1.2805,1.3094,0.0,0.0,0.0,0.0,0.0,1.6087,1.6249,1.6249,1.642,1.6627,1.6694,1.6807,1.6909,1.6853,1.6842,1.6786,1.6457,1.6296,1.6144,1.5951,1.5778,1.5546,1.5546,1.5478,1.541,1.5546,1.5546,1.5604,1.5662,1.5662,0.0,1.5768,1.6019,1.6202,1.6306,1.6363,1.6306,1.6019,1.6077,1.6019,1.573,1.5768,1.5874,1.5979,1.6093,0.0,0.0,0.0,1.7699,1.8951,1.9722,0.0,0.0,0.0,2.279,2.3295,0.0,0.0,0.0,2.6954,2.7118,0.0,0.0,0.0,0.0,0.0,0.0,0.0,0.0,0.0,0.0,0.0,0.0,0.0,0.0,0.0,0.0,1.666,1.6937,1.6809,1.7122,1.714,1.6585,1.6849,1.7001,1.6661,1.6327,1.6098,1.6113,1.5492,1.4874,1.4375,0.0,0.0,0.0,0.0,1.2729,1.2519,1.2519,1.2519,1.2519,1.2519,1.2519,1.2519,1.2519,1.2432,1.2355,1.2485,1.2511,1.2422,1.2741,1.3079,1.3449,1.4019,1.4556,1.5088,1.5624,1.5904,1.5989,1.6056,0.0,0.0,1.6524,1.6581,1.6694,1.6581,1.6581,1.6524,1.6171,1.6019,1.5856,1.573,1.5546,1.541,1.541,1.541,1.541,1.541,1.541,1.541,1.541,1.5449,1.5488,1.543,1.5644,1.5856,1.5856,1.5856,1.573,1.542,1.5488,1.5488,1.5294,0.0,0.0,1.5381,1.5157,1.5225,1.5633,1.5911,1.6789,1.8436,1.9347,2.0004,2.0505,2.1024,2.1479,2.1941,2.2189,2.2597,2.3068,2.4595,2.5275,0.0,0.0,0.0,0.0,0.0,0.0,0.0,0.0,0.0,0.0,0.0,0.0,0.0,0.0,0.0,1.6426,1.6567,1.6628,1.674,1.6894,1.7002,1.6658,1.6605,1.6507,1.6298,1.6213,1.6246,1.6331,1.5939,1.5577,1.5187,1.4608,1.3934,1.3216,1.296,1.2729,1.2519,1.2519,1.2519,1.2519,0.0,0.0,1.2519,1.2519,1.2489,1.2491,1.2632,1.2802,1.2948,1.3278,1.3558,1.3751,1.4357,1.4784,1.5029,1.5371,1.5526,1.5584,1.572,1.5846,1.5904,1.6019,1.6134,1.6228,1.6228,1.6296,0.0,1.6019,1.5914,1.5856,1.5536,1.541,1.541,1.541,1.541,1.541,1.541,1.541,1.541,1.541,1.5693,1.5937,1.5766,1.5595,1.5478,1.5478,1.542,1.5245,1.5079,1.4902,1.4656,1.4419,1.4172,1.4043,1.4103,1.4043,1.4103,1.4323,1.5323,1.6348,1.7413,1.8232,1.8862,1.9386,1.9645,1.9965,2.0257,2.0206,2.0382,2.0851,2.279,2.3675,0.0,0.0,0.0,0.0,0.0,0.0,0.0,0.0,0.0,0.0,0.0,1.6253,0.0,0.0,1.6307,1.6584,1.6707,1.6797,1.6764,1.6798,1.6703,1.6486,1.6466,1.6494,1.6382,1.622,1.6218,1.6458,1.6122,1.5817,1.5542,1.5151,1.458,1.3846,1.3608,1.3289,1.3009,1.3009,1.3009,1.3009,1.3009,1.3009,1.3009,1.3009,1.2921,1.2767,1.2974,1.3021,1.3005,1.3416,1.3637,1.3761,1.4134,1.4291,1.4428,1.4656,1.4834,1.4942,1.5069,1.5196,1.5313,1.5488,1.5652,1.5758,1.5894,1.6019,1.6087,1.5856,1.5798,1.573,1.5478,1.541,1.541,1.541,1.5576,1.5732,1.5732,1.5848,1.5872,1.5872,1.5923,1.5951,1.5754,1.5452,1.5321,1.5496,1.5383,1.5198,1.4951,1.464,1.4452,1.4273,1.395,1.3685,1.3509,1.3386,1.339,1.3494,1.4569,1.5507,1.6255,1.6968,1.7578,1.8147,1.8405,1.8673,1.8951,1.8963,1.9121,1.9515,2.0539,2.1363,0.0,0.0,0.0,0.0,0.0,0.0,0.0,0.0,1.6131,1.6035,1.6056,1.6158,1.6376,1.6384,1.6461,1.6714,1.6944,1.6987,1.6806,1.662,1.6369,1.5982,1.6193,1.6383,1.6413,1.607,1.6035,1.6422,1.6167,1.5927,1.5787,1.5627,1.5189,1.4506,1.4205,1.392,1.3572,1.3492,1.3492,1.3492,1.3492,1.3492,1.3492,1.3492,1.3353,1.3104,1.3323,1.3244,1.299,1.3406,1.3585,1.3613,1.3632,1.363,1.3663,1.3822,1.4061,1.4291,1.4291,1.4469,1.4715,1.4883,1.5118,1.5303,1.5546,1.573,1.5856,1.573,1.5672,1.5672,1.5478,1.5478,1.5537,1.5488,1.5819,1.612,1.6069,1.6206,1.6256,1.6192,1.6066,1.5864,1.5595,1.534,1.5208,1.5375,1.5219,1.4967,1.4624,1.4378,1.4255,1.4123,1.3784,1.3481,1.3211,1.3052,1.3,1.3099,1.3839,1.4579,1.5174,1.573,1.6255,1.6842,1.7168,1.7424,1.7699,1.782,1.8038,1.8417,1.8417,1.9097,1.292,1.3312,1.3999,1.4864,1.5225,1.5536,0.0,0.0,1.6427,1.6427,1.6687,1.6904,1.6891,1.6776,1.6733,1.7021,1.693,1.6758,1.6633,1.6376,1.5852,1.5158,1.5399,1.5613,1.5631,1.5572,1.5788,1.628,1.6305,1.6278,1.6209,1.5896,1.55,1.4879,1.433,1.3992,1.379,1.3572,1.3492,1.3492,1.3492,1.3492,1.3492,1.3492,1.3477,1.344,1.3665,1.3715,1.3663,1.3567,1.3515,1.3485,1.3201,1.3114,1.3138,1.345,1.3571,1.3623,1.3623,1.3761,1.395,1.407,1.4419,1.4824,1.5177,1.5478,1.574,1.5672,1.5672,1.5672,1.5478,1.5703,1.5996,1.5824,1.6081,1.6252,1.6008,1.5918,1.5882,1.5486,1.5719,1.5887,1.5484,1.5429,1.529,1.4678,1.4378,1.4107,1.3908,1.3659,1.3408,1.34,1.3132,1.2916,1.2885,1.284,1.3025,1.3415,1.3557,1.3936,1.4551,1.4773,1.5118,1.5584,1.5738,1.6005,1.6348,1.6348,1.6585,1.7045,1.7045,1.7809,1.2158,1.2757,1.3537,1.4323,1.5003,1.5561,1.5811,1.6264,1.6579,1.6445,1.6654,1.6933,1.7189,1.71,1.7041,0.0,1.6983,1.656,1.6158,1.5692,1.5155,1.4537,1.4466,1.4577,1.4856,1.4928,1.515,1.563,1.5912,1.5982,1.5982,1.5771,1.5417,1.4919,1.4418,1.3992,1.3797,1.3572,1.3492,1.3492,1.3492,1.3492,1.3492,1.3492,1.3492,1.3492,1.3572,1.3645,1.3637,1.3641,1.3652,1.3622,1.3423,1.3286,1.3302,1.3207,1.3276,1.3348,1.3348,1.3477,1.3669,1.3916,1.4297,1.4747,1.5184,1.5628,1.6017,1.612,1.6111,1.6049,1.5936,1.5937,1.5936,1.5738,1.6002,1.6244,1.598,1.603,1.6057,1.5633,1.5566,1.5392,1.4981,1.4901,1.4688,1.4182,1.4204,1.4126,1.3855,1.3582,1.3301,1.3082,1.2774,1.2589,1.2589,1.2492,1.2519,1.2721,1.2912,1.3223,1.3745,1.3847,1.4087,1.4416,1.4468,1.4574,1.4808,1.4808,1.5041,1.5409,1.5409,1.5678,1.1344,1.2119,0.0,1.3813,1.4709,1.5427,1.5632,1.6078,1.651,1.6436,1.6661,1.6917,1.7292,1.7207,1.7168,1.7139,1.676,1.6254,1.5621,1.5125,1.4593,1.4078,1.386,1.387,1.4091,1.432,1.4561,1.4919,1.5275,1.5488,1.5488,1.5355,1.5133,1.4768,1.4274,1.3928,1.3797,1.3564,1.3419,1.3492,1.3419,1.3419,1.3492,1.3492,1.3492,1.3492,1.3492,1.3492,1.3499,1.3645,1.3717,1.3695,1.3592,1.3502,1.3472,1.3224,1.3157,1.3207,1.314,1.3266,1.34,1.3717,1.4057,1.4461,1.5041,1.5569,1.5964,1.6128,1.6192,1.6128,1.5964,1.591,1.5854,1.5584,1.59,1.6138,1.5848,1.5861,1.5912,1.548,1.5204,1.4848,1.4497,1.4281,1.4072,1.379,1.3855,1.392,1.3645,1.3492,1.32,1.2826,1.2545,1.2342,1.2271,1.2213,1.2151,1.2082,1.2282,1.2575,1.2779,1.2871,1.2963,1.3091,1.3083,1.3092,1.3144,1.3144,1.3277,1.3554,1.3554,1.3425,1.0441,1.1546,1.2756,1.3373,1.4208,1.4941,1.521,1.5653,1.6142,1.64,1.685,1.7207,1.7217,1.7217,1.7019,1.6412,1.6202,1.5842,1.5046,1.4776,1.4418,1.3897,1.3775,1.3717,0.0,1.3695,1.3977,1.4353,1.4569,1.4641,1.4641,1.4641,1.4569,1.4425,1.4008,1.3797,1.3797,1.3419,1.3346,1.3492,1.3273,1.3346,1.3492,1.3492,1.3492,1.3492,1.3492,1.3492,1.3492,1.3499,1.3499,1.3492,1.3484,1.3484,1.3477,1.347,1.3279,1.2998,1.2863,1.2931,1.3065,1.3266,1.3526,1.3974,1.4624,1.4959,1.5227,1.5542,1.5606,1.5606,1.5357,1.5653,1.5874,1.5536,1.5765,1.5974,1.533,1.5196,1.5062,1.4569,1.4425,1.4353,1.4129,1.3775,1.3492,1.3499,1.3193,1.3046,1.3193,1.3046,1.2826,1.2599,1.2445,1.2211,1.2063,1.1983,1.1903,1.1755,1.1788,1.1773,1.1759,1.1626,1.1533,1.1444,1.1444,1.1364,1.1183,1.1183,1.1219,1.1286,1.1286,1.121,1.0117,1.0951,1.1898,1.2937,1.3789,1.4454,1.4925,1.5446,1.5922,1.6207,1.6435,1.6594,1.6594,1.6533,1.6342,1.5859,1.5488,1.5046,1.4458,1.4186,1.3985,1.363,1.3492,0.0,0.0,0.0,0.0,1.4008,1.4008,1.408,1.408,1.3928,1.3855,1.3783,1.3564,1.3419,1.3419,1.3119,1.3046,1.3119,1.3046,1.3119,1.3273,1.3273,1.3346,1.3492,1.3492,1.3492,1.3492,1.3492,1.3492,1.3492,1.3492,1.3492,1.3492,1.3492,1.3432,1.3312,1.3312,1.3312,1.3383,1.3603,1.38,1.4135,1.4686,1.511,1.5463,1.5806,1.5943,1.5875,1.5532,1.5419,1.5373,1.4952,1.498,1.4991,1.4713,1.4641,1.4497,1.3928,1.3783,1.363,1.3185,1.2966,1.2746,1.2378,1.2452,1.2526,1.2599,1.2157,1.1855,1.1632,1.1409,1.1186,1.1037,1.1037,1.0887,1.0738,1.057,1.0444,1.0296,1.0138,0.9935,0.9685,0.968,0.9563,0.9245,0.9245,0.9258,0.9293,0.9202,0.8997,0.99,1.0731,1.1647,1.2607,1.3394,1.4073,1.4493,1.4969,1.5355,1.5551,1.5613,1.5666,1.5604,1.5542,1.5409,1.5054,1.4832,1.4537,1.4027,1.3833,1.363,1.3419,1.3193,1.3119,0.0,0.0,0.0,1.3499,1.3499,1.3499,1.3499,1.3346,1.3273,1.3273,1.3193,1.3119,1.3119,1.29,1.2826,1.2826,1.29,1.2973,1.3119,1.3119,1.3193,1.3273,1.3346,1.3419,1.3419,1.3492,1.3492,1.3492,1.3492,1.3492,1.3492,1.3492,1.3492,1.3492,1.3492,1.3492,1.3499,1.3717,1.3863,1.4065,1.4553,1.4848,1.5062,1.5346,1.5417,1.5275,1.4991,1.4768,1.4625,1.4281,1.4137,1.4065,1.392,1.384,1.363,1.3193,1.3046,1.2826,1.2452,1.2224,1.1855,1.126,1.1254,1.1477,1.1706,1.1335,1.0962,1.0582,1.0357,1.0056,0.975,0.9755,0.9604,0.9382,0.9296,0.914,0.8836,0.8761,0.8543,0.8254,0.818,0.7932,0.7516,0.7372,0.733,0.7324,0.7064,0.6871,0.9856,1.0895,1.1936,1.2361,1.3099,1.3768,1.4008,1.4168,1.4369,1.4466,1.4522,1.4458,0.0,0.0,1.4386,1.4091,1.4243,1.425,1.3833,1.363,1.3419,0.0,0.0,0.0,0.0,0.0,0.0,1.29,0.0,1.29,1.29,1.29,1.29,1.29,1.29,1.29,1.29,1.2673,1.2599,1.2599,1.2746,1.29,1.29,1.29,1.29,1.29,1.3119,1.32,1.32,1.3419,1.3499,1.3499,1.3499,1.3492,1.3492,1.3492,1.3492,1.3492,1.3492,1.3492,1.3499,1.3717,1.379,1.3863,1.4217,1.4209,1.4057,1.4194,1.4129,1.3985,1.376,1.3688,1.3688,1.3484,1.3273,1.3046,1.29,1.2673,1.2452,1.2224,1.2003,1.1855,1.1855,1.1403,1.0812,1.0218,0.9755,0.9825,1.0588,1.0513,1.0132,0.9599,0.9145,0.877,0.838,0.8304,0.8156,0.7706,0.7855,0.7774,0.7387,0.7387,0.7234,0.7084,0.6861,0.6554,0.6105,0.5732,0.5513,0.5456,0.5081,0.4787,1.0476,1.1136,1.1784,1.2446,1.2743,1.3032,1.3324,1.3382,1.3273,1.3353,1.3223,1.31,0.0,0.0,0.0,1.3404,1.3593,0.0,1.3557,1.3419,0.0,1.32,0.0,1.2693,1.268,1.2526,0.0,0.0,1.2599,1.2673,1.2673,1.2526,1.2452,1.2452,1.2452,1.2452,1.2452,1.2378,1.2378,1.2378,1.2452,1.2526,1.2673,1.2673,1.2753,1.29,1.2973,1.2973,1.2973,1.3046,1.3119,1.3273,1.3273,1.3346,1.3492,1.3492,1.3492,1.3499,1.3346,1.3346,1.3499,1.3419,1.3346,1.3346,1.3266,1.3266,1.3185,1.3039,1.3032,1.2966,1.2739,1.2666,1.2592,1.2445,1.2224,1.2003,1.1855,1.1632,1.1409,1.1186,1.0657,1.0121,0.9976,0.9604,0.915,0.8694,0.8537,0.8765,0.9599,0.9145,0.8613,0.8313,0.7931,0.7548,0.7318,0.7084,0.685,0.6626,0.6234,0.5922,0.5619,0.5386,0.5157,0.5079,0.5082,0.491,0.4645,0.457,0.4325,0.3991,0.4145,0.3664,1.091,1.1427,1.1877,1.2364,1.2466,1.2498,1.2597,1.2469,1.2318,1.213,1.1919,1.1803,1.1803,1.2117,1.2492,0.0,0.0,0.0,1.3492,1.328,1.306,0.0,1.2613,0.0,1.2224,1.215,1.215,0.0,1.2378,1.2452,1.2452,1.2378,1.2305,1.2305,1.2305,1.2305,1.2305,1.2305,1.2305,1.2305,1.2305,1.2378,1.2452,1.2452,1.2526,1.2673,0.0,1.2746,1.2746,1.2893,1.2973,1.3046,1.3046,1.3119,1.3273,1.3273,1.32,1.3119,1.2973,1.29,1.2826,1.29,1.2826,1.2673,1.2526,1.2298,1.2077,1.2003,1.1781,1.1632,1.1558,1.1484,1.1484,1.1335,1.1111,1.0887,1.0738,1.0438,1.0051,0.9825,0.9291,0.8841,0.8542,0.8165,0.7783,0.7314,0.7003,0.7,0.7383,0.731,0.7084,0.6777,0.6311,0.6005,0.5854,0.5699,0.5464,0.5309,0.4999,0.4688,0.4462,0.4148,0.3992,0.3992,0.3917,0.3841,0.3761,0.3682,0.3526,0.3292,0.2783,0.215,1.1224,1.1611,1.1991,1.2238,1.2224,1.2131,1.183,1.1624,1.1328,1.0869,1.0692,1.0594,1.0594,1.1111,1.1694,1.2124,0.0,1.3171,1.3419,1.3141,1.2847,1.2599,1.2224,1.1855,1.1706,1.1855,1.2003,1.2003,1.2157,1.2305,1.2305,1.2305,1.2305,1.2305,1.2305,1.2305,1.2305,1.2305,1.2305,1.2305,1.2305,1.2305,1.2305,1.2305,1.2305,1.2305,1.2452,0.0,1.2599,1.2746,1.2826,1.2893,1.282,1.2826,1.2826,1.282,1.2673,1.2526,1.2452,1.215,1.1855,1.2305,1.2157,1.1855,1.1781,1.1335,1.0887,1.0807,1.0588,1.0288,1.0288,1.0288,1.0288,1.0288,0.9992,0.9765,0.969,0.9231,0.8694,0.8232,0.8003,0.7702,0.7249,0.6865,0.6475,0.6009,0.5464,0.5074,0.4846,0.5467,0.5696,0.5229,0.4844,0.4535,0.4304,0.4226,0.4148,0.3992,0.3912,0.3837,0.3684,0.3448,0.3214,0.3056,0.2981,0.2984,0.2906,0.2826,0.2746,0.2669,0.1256,0.0471,1.1488,1.19,1.2238,1.2291,1.1979,1.1638,1.1326,1.074,0.0,0.9667,0.9432,0.9402,0.9711,1.0288,1.0938,1.1675,1.2285,1.282,1.32,1.3053,1.2753,0.0,1.2003,1.1706,1.1484,1.1632,0.0,0.0,0.0,1.2305,1.2305,1.2305,1.2305,1.2305,1.2305,1.2305,1.2305,1.2305,1.2305,1.2305,1.2305,1.2305,1.2305,1.2305,1.2305,1.2305,1.2305,0.0,1.2378,1.2378,1.2526,1.2673,1.2452,1.2526,1.2599,1.2305,1.2157,1.2003,1.1558,1.1111,1.0887,1.1409,1.1484,1.1111,1.0443,1.0218,0.9992,0.9528,0.9301,0.9226,0.9226,0.9226,0.9226,0.9226,0.9079,0.8856,0.8708,0.8169,0.7557,0.7019,0.6556,0.617,0.5783,0.5321,0.5007,0.4771,0.4457,0.4146,0.3759,0.4146,0.4455,0.43,0.407,0.3839,0.3602,0.3444,0.337,0.3452,0.3059,0.2902,0.3217,0.2829,0.22,0.1256,0.1256,0.1178,0.1099,0.0862,0.0706,0.0549,-0.0,-0.0549,1.1081,1.1467,1.1781,1.1933,1.1572,1.1109,1.066,0.9967,0.0,0.8859,0.8541,0.8538,0.9061,0.9647,0.0,1.1113,1.1832,1.2452,1.282,1.282,1.2599,1.2157,1.1781,1.1484,1.126,1.1409,1.1632,1.1855,0.0,1.2305,1.2305,1.2305,1.2305,1.2305,1.2305,1.2305,1.2305,1.2305,1.2305,1.2305,1.2305,1.2305,1.2305,1.2305,1.2305,1.2305,1.2305,0.0,1.2305,1.2305,1.2305,1.2305,1.2077,1.1929,1.1781,1.1484,1.126,1.1037,1.0588,1.0218,0.9916,0.9986,0.9981,0.9906,0.9533,0.9311,0.9084,0.878,0.8627,0.8551,0.8551,0.8551,0.8551,0.8551,0.8403,0.8097,0.771,0.7169,0.6707,0.6177,0.5631,0.5243,0.501,0.4543,0.4231,0.4073,0.3682,0.3292,0.2979,0.3056,0.3132,0.329,0.2979,0.2826,0.2746,0.2668,0.2433,0.2042,0.1649,0.1491,0.1805,0.1414,0.0943,0.0393,0.0079,-0.0079,-0.0157,-0.0628,-0.102,-0.1335,-0.1412,-0.1803,1.0497,1.0855,1.1133,1.1352,1.0994,1.0523,0.9971,0.923,0.8526,0.8203,0.7867,0.7878,0.8444,0.9082,0.9774,0.0,1.1309,1.1929,1.2378,1.2378,1.2305,0.0,1.1558,0.0,1.1037,1.126,0.0,1.1706,0.0,0.0,1.2305,1.2305,1.2305,1.2305,1.2305,1.2305,1.2305,1.2305,1.2305,1.2305,1.2305,1.2305,1.2305,1.2305,1.2305,1.2305,1.2305,0.0,0.0,1.2231,1.215,1.1929,1.1632,1.126,1.0962,1.0594,1.0293,0.9997,0.969,0.9316,0.8941,0.8551,0.8623,0.8851,0.8699,0.8475,0.8174,0.8093,0.7944,0.7868,0.7868,0.7868,0.7868,0.7868,0.7718,0.7488,0.6868,0.6398,0.5935,0.5401,0.4857,0.4467,0.4389,0.3919,0.3606,0.3606,0.3072,0.2609,0.2451,0.2223,0.215,0.231,0.2134,0.1887,0.1887,0.1729,0.1335,0.0628,0.0314,0.0157,0.0079,-0.0236,-0.0393,-0.0471,-0.0864,-0.11,-0.1021,-0.165,-0.2121,-0.2437,-0.2591,-0.2746,0.9875,1.0148,1.0363,1.0716,1.03,0.9685,0.9332,0.8512,0.778,0.7625,0.7453,0.7532,0.8079,0.876,0.9488,0.9935,0.0,1.1335,1.1706,1.1781,1.1706,1.1484,0.0,0.0,1.0887,1.1186,0.0,1.1706,0.0,0.0,1.2305,1.2305,1.2305,1.2305,1.2305,1.2305,1.2305,1.2305,1.2305,1.2305,1.2305,1.2305,1.2305,1.2305,1.2305,1.2305,1.2305,0.0,0.0,1.2077,1.1929,1.1706,1.1111,1.0738,1.0438,0.9695,0.9397,0.9322,0.8708,0.8403,0.8178,0.7714,0.8021,0.8322,0.7791,0.7633,0.748,0.7173,0.7019,0.7019,0.7019,0.7019,0.7019,0.7019,0.7019,0.6868,0.6412,0.6018,0.5389,0.4693,0.4151,0.3763,0.3295,0.3061,0.2904,0.2904,0.2557,0.2268,0.2268,0.1979,0.1754,0.1754,0.1934,0.1807,0.11,0.0471,0.0079,-0.0236,-0.055,-0.1021,-0.165,-0.1729,-0.1807,-0.1887,-0.1965,-0.1887,-0.1807,-0.2041,-0.2196,-0.2275,-0.2826,-0.3062,0.8901,0.9127,0.9326,0.9814,0.9554,0.91,0.8838,0.8173,0.7526,0.733,0.7202,0.7189,0.765,0.8298,0.8899,0.9472,0.0,0.0,1.1093,1.126,1.126,1.1037,1.0962,0.0,0.0,0.0,1.1558,0.0,0.0,0.0,1.2305,1.2305,1.2305,1.2305,1.2305,1.2305,1.2305,1.2305,1.2305,1.2305,1.2305,1.2305,1.2305,1.2305,1.2305,1.2305,1.2305,0.0,0.0,1.1781,1.1484,1.1111,1.0368,0.9911,0.9528,0.8932,0.8713,0.8484,0.8021,0.7791,0.7638,0.7099,0.7019,0.7092,0.7019,0.6945,0.6868,0.6553,0.6475,0.6475,0.6475,0.6475,0.6475,0.6475,0.6475,0.6398,0.5938,0.5547,0.5004,0.4387,0.3919,0.3528,0.3141,0.2859,0.2645,0.2645,0.2371,0.2157,0.1907,0.1504,0.0924,0.042,0.0818,0.0803,0.008,-0.0317,-0.0786,-0.1415,-0.1493,-0.165,-0.1887,-0.2042,-0.2119,-0.2198,-0.2277,-0.2277,-0.2277,-0.2353,-0.2353,-0.2353,-0.2904,-0.3062,0.7952,0.8143,0.8276,0.8743,0.8624,0.8371,0.8236,0.7717,0.7265,0.7138,0.7012,0.7012,0.733,0.7893,0.8449,0.0,0.0,1.0092,1.0479,1.0594,1.0663,1.0663,0.0,1.0738,0.0,1.1335,1.1781,0.0,0.0,0.0,1.2305,1.2305,1.2305,1.2305,1.2305,1.2305,1.2305,1.2305,1.2305,1.2305,1.2305,1.2305,1.2305,1.2305,1.2305,1.2305,1.2224,0.0,0.0,1.1409,1.0887,1.0368,0.969,0.916,0.8775,0.8403,0.8102,0.7872,0.7484,0.7249,0.7019,0.6479,0.617,0.5935,0.6018,0.6096,0.6173,0.5935,0.5854,0.5854,0.5854,0.5854,0.5854,0.5854,0.5854,0.5777,0.5392,0.5082,0.4616,0.4077,0.3626,0.3249,0.2936,0.2669,0.2381,0.2134,0.1925,0.1612,0.1188,0.0768,0.0171,-0.06,-0.0504,-0.0497,-0.0822,-0.1214,-0.1599,-0.2144,-0.2224,-0.2217,-0.2043,-0.2198,-0.2275,-0.2275,-0.2431,-0.2511,-0.2511,-0.2511,-0.2511,-0.2511,-0.2826,-0.3141,0.7138,0.7204,0.7269,0.7601,0.7596,0.7521,0.7521,0.7204,0.6881,0.6881,0.6881,0.6946,0.7138,0.7826,0.8381,0.8689,0.9062,0.0,0.989,0.9771,0.9771,0.0,0.0,1.0663,1.1037,1.1632,0.0,0.0,0.0,0.0,1.2305,1.2305,1.2305,1.2305,1.2305,1.2305,1.2305,1.2305,1.2305,1.2305,1.2305,1.2305,1.2305,1.2305,1.2305,0.0,0.0,0.0,0.0,1.0962,1.0293,0.9544,0.9155,0.8775,0.8327,0.7953,0.7646,0.7484,0.7019,0.663,0.6163,0.5777,0.547,0.5243,0.4857,0.501,0.5243,0.5082,0.5004,0.5004,0.5004,0.5004,0.5004,0.5004,0.5004,0.4927,0.4776,0.4543,0.4229,0.3604,0.3197,0.2846,0.252,0.2319,0.1849,0.0924,0.0856,0.0608,-0.0,-0.0354,-0.0627,-0.0986,-0.1759,-0.2066,-0.1431,-0.227,-0.2665,-0.2277,-0.2518,-0.2574,-0.2514,-0.2511,-0.2511,-0.2511,-0.2511,-0.2511,-0.2511,-0.2511,-0.2511,-0.2511,-0.2746,-0.3295,0.6548,0.6741,0.6937,0.7269,0.7204,0.7138,0.7265,0.7003,0.6745,0.6745,0.6811,0.6946,0.7012,0.7456,0.8014,0.8459,0.872,0.0,0.0,0.0,0.0,0.9997,1.0443,1.0887,0.0,0.0,0.0,0.0,0.0,0.0,1.2305,1.2305,1.2305,1.2305,1.2305,1.2305,1.2305,1.2305,1.2305,1.2305,1.2305,1.2305,1.2305,1.2305,1.2231,0.0,0.0,0.0,0.0,1.0132,0.9528,0.9155,0.8479,0.8102,0.7953,0.7569,0.7257,0.7019,0.6402,0.6012,0.5699,0.5162,0.4776,0.4467,0.4153,0.4465,0.4854,0.4618,0.4616,0.4616,0.4616,0.4616,0.4616,0.4616,0.4616,0.454,0.4311,0.4155,0.3859,0.3365,0.3075,0.2696,0.1991,0.1186,0.0516,0.0258,-0.0175,-0.0533,-0.071,-0.134,-0.1885,-0.2244,-0.2409,-0.2379,-0.2327,-0.2461,-0.2515,-0.2582,-0.2747,-0.2884,-0.2737,-0.2972,-0.3029,-0.2906,-0.2904,-0.2826,-0.2668,-0.2668,-0.2747,-0.2904,-0.3294,-0.3763,0.6152,0.6482,0.6613,0.6876,0.6745,0.6679,0.6806,0.0,0.6544,0.6544,0.6745,0.6946,0.7012,0.74,0.7873,0.8308,0.8589,0.8883,0.0,0.0,0.0,1.0218,0.0,0.0,0.0,0.0,0.0,0.0,0.0,0.0,1.2305,1.2305,1.2305,1.2305,1.2305,1.2305,1.2305,1.2305,1.2305,1.2305,1.2305,1.2305,1.2305,1.2231,1.2077,0.0,0.0,0.0,0.0,0.9528,0.8927,0.8475,0.7949,0.7646,0.7492,0.7103,0.6791,0.6479,0.586,0.547,0.5082,0.4543,0.4077,0.3767,0.353,0.3765,0.4077,0.3841,0.3917,0.4073,0.4073,0.4151,0.4151,0.4073,0.4073,0.4006,0.381,0.3659,0.3443,0.3035,0.2904,0.2429,0.1189,0.026,-0.044,-0.0879,-0.1245,-0.1614,-0.1704,-0.2241,-0.2691,-0.3141,-0.3051,-0.2946,-0.3083,-0.2782,-0.2665,-0.2728,-0.2896,-0.3036,-0.297,-0.321,-0.3255,-0.3182,-0.318,-0.3087,-0.2826,-0.2826,-0.2826,-0.2982,-0.3528,-0.3997,0.0,0.6214,0.6354,0.6354,0.6284,0.6148,0.6148,0.0,0.0,0.635,0.6683,0.6946,0.7138,0.7466,0.7807,0.8308,0.8518,0.8883,0.0,0.962,0.0,0.0,1.1335,0.0,1.2003,0.0,0.0,0.0,0.0,0.0,1.2305,1.2305,1.2305,1.2305,1.2305,1.2305,1.2305,1.2305,1.2305,1.2305,1.2305,1.2305,1.2298,1.2077,1.1855,0.0,0.0,0.0,0.0,0.9079,0.8479,0.7727,0.7565,0.733,0.7103,0.6718,0.6251,0.5786,0.5395,0.4851,0.4307,0.3919,0.353,0.3141,0.2826,0.2904,0.2984,0.2826,0.3059,0.3448,0.3448,0.3606,0.3686,0.3534,0.3458,0.3401,0.3245,0.318,0.3038,0.2687,0.2658,0.2087,0.0261,-0.0531,-0.1166,-0.2243,-0.2424,-0.2512,-0.2868,-0.2957,-0.3136,-0.3587,-0.3587,-0.3587,-0.3587,-0.3142,-0.2939,-0.288,-0.3047,-0.3103,-0.304,-0.337,-0.3416,-0.3338,-0.3331,-0.313,-0.2826,-0.2826,-0.2824,-0.2902,-0.3528,-0.3921,0.5153,0.0,0.6024,0.6024,0.602,0.5954,0.0,0.0,0.0,0.0,0.0,0.0,0.0,0.7396,0.7664,0.8089,0.8372,0.8744,0.9482,0.0,0.0,1.1186,1.1484,1.1781,0.0,0.0,0.0,0.0,0.0,1.2305,1.2305,1.2305,1.2305,1.2305,1.2305,1.2305,1.2305,1.2305,1.2305,1.2305,1.2305,1.2305,1.2298,1.1929,1.1558,0.0,0.0,0.0,0.9079,0.8403,0.7872,0.7565,0.7334,0.6945,0.6398,0.617,0.5705,0.516,0.4771,0.4387,0.4077,0.361,0.2902,0.204,0.1256,0.1726,0.2668,0.2589,0.2668,0.2744,0.2744,0.2902,0.3074,0.305,0.3145,0.3246,0.3237,0.317,0.2943,0.2751,0.2425,0.1747,0.0533,-0.1162,-0.2334,-0.2244,-0.2513,-0.2872,-0.3138,-0.3136,-0.3227,-0.3587,-0.3587,-0.3587,-0.3587,-0.3318,-0.3223,-0.3385,-0.3471,-0.3527,-0.3624,-0.4048,-0.4091,-0.3837,-0.3605,-0.3372,-0.3062,-0.3215,-0.337,-0.337,-0.3995,-0.4384,0.4561,0.516,0.5756,0.5954,0.5954,0.5954,0.602,0.0,0.0,0.0,0.0,0.0,0.0,0.0,0.0,0.0,0.8513,0.0,0.0,0.0,1.1409,1.1632,1.1855,1.2003,0.0,0.0,0.0,0.0,0.0,1.2305,1.2305,1.2305,1.2305,1.2305,1.2305,1.2305,1.2305,1.2305,1.2305,1.2305,1.2224,1.2077,1.2003,1.1484,1.1037,0.0,0.0,0.0,0.8703,0.8025,0.7646,0.733,0.6868,0.6479,0.6012,0.5553,0.5085,0.4693,0.4384,0.3919,0.3452,0.3219,0.2276,0.1098,0.0393,0.0471,0.0863,0.1569,0.1883,0.2117,0.2196,0.2452,0.2641,0.2756,0.2953,0.3077,0.2803,0.2732,0.2665,0.2372,0.2205,0.1682,0.0268,-0.1436,-0.2513,-0.2334,-0.2694,-0.3053,-0.3318,-0.3406,-0.3496,-0.3855,-0.3942,-0.3942,-0.3942,-0.3676,-0.3587,-0.3587,-0.3678,-0.3748,-0.3882,-0.4318,-0.4448,-0.4267,-0.4006,-0.3672,-0.3349,-0.3506,-0.3565,-0.3526,-0.3995,-0.4311,0.4164,0.4764,0.5425,0.5951,0.5954,0.5888,0.6083,0.0,0.0,0.0,0.0,0.0,0.0,0.755,0.0,0.0,0.0,0.0,1.0977,1.1632,1.2003,1.2003,1.2224,0.0,0.0,0.0,0.0,0.0,0.0,1.2305,1.2305,1.2305,1.2305,1.2305,1.2305,1.2305,1.2305,1.2305,1.2305,1.2231,1.2077,1.1855,1.1558,1.0962,1.0438,0.9986,0.0,0.0,0.825,0.7876,0.7492,0.7026,0.6398,0.6012,0.5628,0.4932,0.4543,0.4307,0.4077,0.3452,0.2826,0.2826,0.1727,0.0314,-0.0079,-0.0707,-0.1022,0.0158,0.0868,0.1419,0.1497,0.1846,0.2208,0.2216,0.2584,0.2808,0.2261,0.2271,0.2284,0.1878,0.1974,0.1615,-0.009,-0.1345,-0.2243,-0.2424,-0.2694,-0.3053,-0.3499,-0.3587,-0.3765,-0.421,-0.43,-0.4389,-0.4389,-0.4212,-0.4036,-0.3855,-0.3857,-0.3946,-0.4036,-0.448,-0.47,-0.4599,-0.4348,-0.4012,-0.3674,-0.3674,-0.363,-0.3545,-0.3942,-0.4093,0.3894,0.4361,0.4827,0.5359,0.5554,0.5686,0.5888,0.6083,0.0,0.0,0.0,0.0,0.0,0.7607,0.7879,0.0,0.0,1.0502,0.0,0.0,1.2077,1.2224,0.0,0.0,0.0,0.0,0.0,0.0,0.0,1.2305,1.2305,1.2305,1.2305,1.2305,1.2305,1.2305,1.2305,1.2305,1.2224,1.2003,1.1855,1.1558,1.1186,1.0594,0.9986,0.9377,0.0,0.8255,0.788,0.7492,0.7026,0.6641,0.6173,0.5473,0.4854,0.454,0.4231,0.3841,0.3684,0.3215,0.2747,0.2589,0.1569,0.0157,-0.0786,-0.1178,-0.1262,-0.1047,-0.0566,-0.0162,-0.0081,0.0247,0.0588,0.0685,0.1207,0.174,0.2223,0.2322,0.2146,0.1883,0.1974,0.1705,0.0179,-0.1256,-0.2243,-0.2243,-0.2604,-0.3053,-0.3499,-0.3587,-0.3765,-0.421,-0.448,-0.4661,-0.4661,-0.4746,-0.4832,-0.4743,-0.4212,-0.4214,-0.4832,-0.4921,-0.4963,-0.5117,-0.4669,-0.4272,-0.4016,-0.393,-0.3884,-0.3879,-0.4042,-0.4236,0.3894,0.4295,0.4761,0.5491,0.5822,0.6013,0.628,0.6412,0.0,0.0,0.0,0.0,0.0,0.0,0.8231,0.9071,0.0,1.1111,1.1484,1.1929,1.2224,0.0,0.0,0.0,0.0,0.0,0.0,0.0,0.0,0.0,1.2305,1.2305,1.2305,1.2305,1.2305,1.2231,1.215,1.1929,1.1781,1.1706,1.1335,1.0887,1.0293,0.976,0.9306,0.8775,0.0,0.7953,0.7804,0.7338,0.6949,0.6563,0.5864,0.5243,0.4621,0.4231,0.3997,0.3763,0.3604,0.3214,0.2746,0.2038,0.1098,-0.0079,-0.1021,-0.1269,-0.1285,-0.1299,-0.114,-0.098,-0.1323,-0.1432,-0.1286,-0.052,0.0175,0.0798,0.1343,0.1794,0.1974,0.1615,0.1705,0.1436,0.0448,-0.0897,-0.1885,-0.2243,-0.2604,-0.3053,-0.3499,-0.3587,-0.3765,-0.421,-0.4569,-0.4661,-0.4661,-0.4924,-0.501,-0.501,-0.4656,-0.4746,-0.5191,-0.5191,-0.5257,-0.5295,-0.5117,-0.4805,-0.4278,-0.4276,-0.4145,-0.3973,-0.3973,-0.3922,0.3961,0.4361,0.4891,0.5752,0.0,0.6276,0.6675,0.6741,0.0,0.0,0.0,0.0,0.0,0.8009,0.0,0.9868,1.0837,1.1484,1.1706,1.2077,1.2305,0.0,0.0,0.0,0.0,0.0,0.0,0.0,0.0,0.0,1.2305,1.2305,1.2305,1.2305,1.2231,1.2157,1.1929,1.1484,1.126,1.126,1.0738,1.0143,0.9468,0.9079,0.8627,0.8255,0.7953,0.7804,0.7723,0.7257,0.6872,0.6328,0.555,0.4932,0.4465,0.3997,0.3763,0.3763,0.3528,0.3137,0.2668,0.1647,0.0785,-0.0079,-0.1021,-0.1279,-0.1304,-0.1311,-0.1318,-0.1494,-0.2029,-0.2416,-0.2453,-0.1576,-0.0798,-0.009,0.0538,0.1256,0.1705,0.1436,0.1436,0.1166,0.0628,-0.0538,-0.1525,-0.2334,-0.2693,-0.3051,-0.3499,-0.3676,-0.3855,-0.43,-0.4659,-0.4839,-0.4928,-0.5104,-0.5191,-0.5191,-0.5099,-0.5191,-0.5371,-0.546,-0.5463,-0.5463,-0.546,-0.5151,-0.472,-0.4633,-0.4411,-0.4151,-0.3898,-0.3766,0.4164,0.4694,0.5219,0.5947,0.6145,0.0,0.6815,0.6881,0.0,0.7396,0.0,0.0,0.0,0.8675,0.9482,1.0336,1.1025,1.1558,1.1929,0.0,0.0,0.0,0.0,0.0,0.0,0.0,0.0,0.0,0.0,0.0,1.2305,1.2305,1.2305,1.2305,1.215,1.1929,1.1706,1.1111,1.0812,1.0812,1.0067,0.9463,0.9003,0.8627,0.8255,0.788,0.7804,0.7723,0.7484,0.7096,0.6556,0.586,0.5237,0.454,0.3841,0.3841,0.3763,0.3763,0.3295,0.2904,0.2433,0.157,0.0864,0.0157,-0.0943,-0.1279,-0.1309,-0.1337,-0.1363,-0.1471,-0.1994,-0.2027,-0.197,-0.2239,-0.1613,-0.0628,0.0269,0.0987,0.1436,0.1436,0.1436,0.1166,0.0628,-0.0359,-0.1345,-0.2244,-0.269,-0.3048,-0.3497,-0.3767,-0.4125,-0.4572,-0.4835,-0.5191,-0.5555,-0.5644,-0.5644,-0.5644,-0.5463,-0.5371,-0.5371,-0.5552,-0.5644,-0.5644,-0.5463,-0.5369,-0.5359,-0.4917,-0.4599,-0.4415,-0.4247,-0.4114,0.4498,0.5024,0.555,0.6276,0.6544,0.0,0.0,0.7073,0.7204,0.7531,0.7917,0.0,0.0,0.0,1.0066,1.0947,1.1484,1.1855,1.2003,0.0,0.0,0.0,0.0,0.0,0.0,0.0,0.0,0.0,0.0,0.0,1.215,1.2003,1.1855,1.1706,1.1558,1.126,1.0962,1.0368,0.9916,0.9679,0.9382,0.8856,0.8255,0.8102,0.7872,0.7642,0.7642,0.7488,0.7257,0.6868,0.6325,0.5625,0.4776,0.4153,0.3763,0.3763,0.3763,0.3763,0.3297,0.2982,0.2589,0.1649,0.0943,0.0393,-0.0471,-0.1038,-0.1309,-0.1339,-0.1368,-0.1481,-0.1855,-0.1873,-0.1884,-0.2064,-0.1525,-0.0807,-0.0,0.0807,0.1436,0.1436,0.1436,0.1345,0.1076,0.009,-0.0987,-0.2064,-0.2601,-0.3047,-0.3497,-0.3767,-0.4125,-0.4661,-0.5015,-0.5371,-0.5644,-0.5733,-0.5733,-0.5733,-0.5644,-0.5552,-0.5552,-0.5644,-0.5733,-0.5733,-0.5644,-0.5552,-0.5371,-0.5196,-0.4996,-0.4603,-0.4339,-0.4116,0.496,0.5418,0.5947,0.6609,0.0,0.0,0.7269,0.74,0.7596,0.7987,0.8429,0.0,0.9886,0.0,0.0,0.0,1.1781,1.2003,0.0,0.0,0.0,0.0,0.0,0.0,0.0,0.0,0.0,0.0,0.0,0.0,0.0,1.1558,1.1335,1.1111,1.0887,1.0663,1.0293,0.969,0.9236,0.8775,0.8703,0.8327,0.7804,0.7723,0.7642,0.7484,0.7407,0.7257,0.7103,0.6563,0.5938,0.516,0.4309,0.3921,0.3763,0.3763,0.3763,0.3763,0.3374,0.3139,0.2826,0.2042,0.1335,0.0707,0.0314,-0.0399,-0.1062,-0.1328,-0.1361,-0.1482,-0.1593,-0.1787,-0.1794,-0.1705,-0.1256,-0.0718,0.009,0.0807,0.1436,0.1436,0.1436,0.1436,0.1436,0.0448,-0.0628,-0.1794,-0.251,-0.3136,-0.3585,-0.3944,-0.4393,-0.4839,-0.5285,-0.5552,-0.5644,-0.5733,-0.5733,-0.5733,-0.5733,-0.5733,-0.5733,-0.5733,-0.5733,-0.5733,-0.5733,-0.5644,-0.5463,-0.546,-0.5193,-0.4928,-0.4656,-0.4355,0.555,0.5881,0.621,0.0,0.0,0.0,0.7601,0.7857,0.8182,0.8705,0.9414,1.0135,1.0554,0.0,0.0,1.1662,1.1855,0.0,0.0,0.0,0.0,0.0,0.0,0.0,0.0,0.0,0.0,0.0,0.0,0.0,0.0,1.0887,1.0663,1.0513,1.0293,1.0067,0.9916,0.9306,0.8775,0.8403,0.7953,0.7804,0.7804,0.7565,0.7484,0.7484,0.7257,0.7099,0.6861,0.617,0.5318,0.4384,0.3919,0.3763,0.3763,0.3763,0.3763,0.3763,0.3604,0.3294,0.3062,0.2982,0.2199,0.1335,0.1335,0.0479,-0.0569,-0.114,-0.1344,-0.1389,-0.1393,-0.1591,-0.1705,-0.1256,-0.0897,-0.0448,0.0538,0.1076,0.1436,0.1436,0.1436,0.1436,0.1436,0.0628,-0.0359,-0.1256,-0.224,-0.3135,-0.3849,-0.4389,-0.4926,-0.5371,-0.5552,-0.5733,-0.5733,-0.5733,-0.5733,-0.5733,-0.5733,-0.5733,-0.5733,-0.5733,-0.5733,-0.5733,-0.5733,-0.5733,-0.5733,-0.5463,-0.5371,-0.5371,-0.5099,-0.4924,0.6276,0.6736,0.0,0.74,0.0,0.0,0.0,0.8177,0.0,0.0,0.9741,1.0214,1.0554,0.0,0.0,1.144,1.1558,0.0,0.0,0.0,0.0,0.0,0.0,0.0,0.0,0.0,0.0,0.0,0.0,0.0,0.0,1.0143,0.9846,0.9695,0.9311,0.9079,0.8856,0.8556,0.825,0.7953,0.7718,0.7565,0.7565,0.7561,0.7407,0.7257,0.7099,0.671,0.6093,0.524,0.4618,0.4155,0.3919,0.3763,0.3763,0.3763,0.3763,0.3763,0.3604,0.3448,0.3294,0.2981,0.2669,0.2277,0.1492,0.079,0.0159,-0.0324,-0.0657,-0.0833,-0.0762,-0.0692,-0.0529,-0.0358,-0.0,0.0448,0.1076,0.1345,0.1436,0.1436,0.1436,0.1436,0.1436,0.0807,-0.009,-0.1256,-0.224,-0.3315,-0.43,-0.4926,-0.5282,-0.5371,-0.5552,-0.5733,-0.5733,-0.5733,-0.5733,-0.5733,-0.5733,-0.5733,-0.5733,-0.5733,-0.5733,-0.5733,-0.5733,-0.5733,-0.5733,-0.5644,-0.5552,-0.5371,-0.5282,-0.5191,0.6933,0.7456,0.0,0.7987,0.8247,0.8501,0.8829,0.0,0.0,0.0,0.0,1.0511,1.0575,1.0773,0.0,1.1013,0.0,0.0,0.0,0.0,0.0,0.0,0.0,0.0,0.0,0.0,0.0,0.0,0.0,0.0,0.0,0.9311,0.9013,0.8865,0.8556,0.8403,0.825,0.8106,0.7953,0.7804,0.7565,0.7484,0.7484,0.7484,0.7411,0.718,0.6633,0.5935,0.524,0.4543,0.4153,0.3999,0.3843,0.3763,0.3763,0.3763,0.3763,0.3763,0.3684,0.3604,0.3606,0.3294,0.3061,0.2747,0.212,0.1335,0.063,0.032,-0.0081,-0.0327,-0.0083,0.0084,0.0259,0.0264,0.0624,0.1076,0.1345,0.1436,0.1436,0.1436,0.1436,0.1436,0.1436,0.0897,0.0179,-0.0807,-0.224,-0.3585,-0.4656,-0.5193,-0.546,-0.5552,-0.5644,-0.5733,-0.5733,-0.5733,-0.5733,-0.5733,-0.5733,-0.5733,-0.5733,-0.5733,-0.5733,-0.5733,-0.5733,-0.5733,-0.5733,-0.5733,-0.5644,-0.5552,-0.5552,-0.5371,0.7456,0.8037,0.856,0.8576,0.8705,0.0,0.946,0.974,0.9968,1.0343,0.0,1.0754,1.0671,1.0642,1.0588,1.0443,0.0,0.0,0.0,0.0,0.0,0.0,0.0,0.0,0.0,0.0,0.0,0.0,0.0,0.0,0.0,0.8479,0.8255,0.8106,0.8025,0.8025,0.8025,0.7876,0.7804,0.7804,0.7565,0.7484,0.7484,0.7484,0.733,0.7026,0.5935,0.5082,0.4384,0.4155,0.3999,0.3763,0.3763,0.3763,0.3763,0.3763,0.3763,0.3763,0.3763,0.3763,0.3763,0.3763,0.3294,0.2826,0.2826,0.1962,0.0943,0.0707,0.0399,0.0162,0.0568,0.066,0.0675,0.0774,0.1055,0.1431,0.1435,0.1436,0.1436,0.1436,0.1436,0.1436,0.1436,0.0987,0.0359,-0.0359,-0.224,-0.3853,-0.4743,-0.5191,-0.5374,-0.5644,-0.5644,-0.5644,-0.5644,-0.5644,-0.5644,-0.5733,-0.5733,-0.5733,-0.5733,-0.5733,-0.5733,-0.5733,-0.5733,-0.5733,-0.5733,-0.5733,-0.5733,-0.5733,-0.5733,-0.5644,0.7977,0.856,0.0,0.0,0.9145,0.946,0.9977,1.0212,1.0324,1.0381,1.0337,1.0329,1.024,1.0057,0.9771,0.0,0.0,0.0,0.0,0.0,0.0,0.0,0.0,0.0,0.0,0.0,0.0,0.0,0.0,0.0,0.8255,0.803,0.7876,0.788,0.7718,0.7638,0.7638,0.7561,0.7561,0.0,0.7484,0.7407,0.7257,0.7257,0.6788,0.5935,0.5162,0.4621,0.4155,0.3921,0.3841,0.3763,0.3763,0.3763,0.3763,0.3763,0.3763,0.3763,0.3763,0.3684,0.3526,0.3526,0.3215,0.2747,0.2668,0.2199,0.1729,0.1257,0.1104,0.1029,0.1108,0.1128,0.1149,0.1155,0.1276,0.1406,0.143,0.1436,0.1436,0.1436,0.1436,0.1436,0.1436,0.1256,0.0628,-0.0987,-0.242,-0.3585,-0.4028,-0.4567,-0.4926,-0.5102,-0.5191,-0.528,-0.546,-0.5463,-0.5552,-0.5733,-0.5733,-0.5733,-0.5733,-0.5733,-0.5733,-0.5733,-0.5733,-0.5733,-0.5733,-0.5733,-0.5733,-0.5733,-0.5733,-0.5644,0.8182,0.0,0.0,0.9408,0.0,0.9728,0.9989,1.0133,1.0232,1.0233,1.0194,1.0099,0.9911,0.9461,0.9089,0.0,0.0,0.0,0.0,0.0,0.0,0.0,0.0,0.0,0.0,0.0,0.0,0.0,0.0,0.7795,0.7795,0.7718,0.7642,0.7642,0.7561,0.7484,0.7484,0.7484,0.7484,0.7484,0.7407,0.7099,0.6563,0.6563,0.6093,0.5312,0.4774,0.4309,0.3921,0.3841,0.3763,0.3763,0.3763,0.3763,0.3763,0.3763,0.3763,0.3763,0.3763,0.3684,0.3526,0.3526,0.3215,0.2747,0.2589,0.2277,0.1887,0.1572,0.1336,0.1335,0.1335,0.1269,0.1284,0.1299,0.1348,0.1394,0.141,0.1425,0.1436,0.1436,0.1436,0.1436,0.1436,0.1166,0.0538,-0.0538,-0.1704,-0.2599,-0.3314,-0.3762,-0.4121,-0.4474,-0.4474,-0.4654,-0.5015,-0.5107,-0.5193,-0.5371,-0.5371,-0.5371,-0.5371,-0.5371,-0.5463,-0.5733,-0.5733,-0.5733,-0.5733,-0.5733,-0.5733,-0.5733,-0.5644,-0.5552,0.8252,0.0,0.946,0.967,0.967,0.0,0.967,0.9843,0.9988,0.9863,0.9899,0.9935,0.9578,0.9013,0.0,0.0,0.0,0.0,0.0,0.0,0.0,0.0,0.0,0.0,0.0,0.0,0.0,0.0,0.0,0.7484,0.7484,0.7484,0.7484,0.7484,0.7484,0.7484,0.7484,0.7484,0.7484,0.7407,0.7103,0.656,0.5786,0.5705,0.5392,0.4849,0.454,0.4153,0.3763,0.3763,0.3763,0.3763,0.3763,0.3684,0.3686,0.3686,0.3684,0.3763,0.3684,0.3606,0.3448,0.337,0.3057,0.2668,0.2511,0.2199,0.1808,0.165,0.1493,0.1335,0.1335,0.1335,0.1264,0.1288,0.1336,0.1378,0.1388,0.141,0.1429,0.1434,0.1436,0.1436,0.1436,0.0987,0.0538,0.009,-0.0628,-0.1524,-0.2509,-0.2868,-0.3226,-0.3671,-0.376,-0.3941,-0.4391,-0.4391,-0.4567,-0.4741,-0.4741,-0.4741,-0.483,-0.483,-0.5013,-0.5555,-0.5555,-0.5644,-0.5644,-0.5644,-0.5552,-0.5552,-0.5371,-0.5282,0.8112,0.0,0.8958,0.0,0.9151,0.8964,0.0,0.0,0.9511,0.0,0.9471,0.9495,0.9357,0.8713,0.0,0.0,0.0,0.0,0.0,0.0,0.0,0.0,0.0,0.0,0.0,0.0,0.0,0.0,0.7484,0.7484,0.7484,0.7484,0.7484,0.7484,0.7484,0.7484,0.7484,0.7484,0.7407,0.7257,0.6483,0.586,0.5398,0.4851,0.454,0.4462,0.4233,0.3999,0.3763,0.3763,0.3684,0.3526,0.3526,0.3372,0.3219,0.3219,0.3372,0.3526,0.3295,0.3141,0.3141,0.2982,0.2588,0.2275,0.2275,0.1962,0.165,0.1572,0.1493,0.1335,0.1335,0.1335,0.1337,0.1262,0.1289,0.1328,0.1379,0.1393,0.1403,0.143,0.1436,0.1436,0.1436,0.1345,0.0987,0.009,-0.009,-0.0538,-0.1435,-0.2063,-0.2511,-0.2956,-0.3045,-0.3047,-0.3136,-0.3315,-0.3494,-0.3757,-0.3758,-0.3848,-0.4028,-0.4028,-0.4297,-0.4839,-0.5013,-0.5191,-0.546,-0.5191,-0.5099,-0.5099,-0.5099,-0.4924,0.8371,0.8635,0.8835,0.0,0.8829,0.8679,0.8673,0.0,0.8962,0.8734,0.8793,0.89,0.8917,0.8408,0.0,0.0,0.0,0.0,0.0,0.0,0.0,0.0,0.0,0.0,0.0,0.0,0.0,0.0,0.7484,0.7484,0.7484,0.7484,0.7484,0.7484,0.7411,0.7334,0.7334,0.7253,0.6942,0.6483,0.5864,0.5318,0.4774,0.4387,0.4233,0.4233,0.3999,0.3841,0.3604,0.3604,0.3528,0.3295,0.3295,0.3217,0.3062,0.3062,0.3139,0.3295,0.3141,0.3062,0.2904,0.2668,0.2431,0.2196,0.1962,0.1728,0.1572,0.1493,0.1336,0.1335,0.1335,0.1335,0.1335,0.1335,0.1267,0.1289,0.1331,0.1367,0.1399,0.1429,0.1436,0.1345,0.1076,0.1256,0.1077,0.018,-0.0,-0.0179,-0.0538,-0.1076,-0.1435,-0.1613,-0.1703,-0.1883,-0.2422,-0.2601,-0.278,-0.3223,-0.3224,-0.3224,-0.3314,-0.3314,-0.3494,-0.3674,-0.4297,-0.4746,-0.5018,-0.4565,-0.4474,-0.4565,-0.4206,-0.4032,0.0,0.0,0.8635,0.8576,0.8489,0.8382,0.0,0.0,0.8427,0.0,0.8266,0.8331,0.8479,0.8102,0.0,0.0,0.0,0.0,0.0,0.0,0.0,0.0,0.0,0.0,0.0,0.0,0.0,0.0,0.733,0.733,0.733,0.733,0.733,0.733,0.718,0.703,0.703,0.671,0.6244,0.5553,0.5165,0.4698,0.4151,0.3921,0.3845,0.3843,0.3765,0.3604,0.3526,0.3448,0.3215,0.3062,0.3062,0.2982,0.2982,0.2982,0.2982,0.2984,0.2982,0.2826,0.2668,0.251,0.2275,0.1961,0.1728,0.1572,0.1493,0.1335,0.1335,0.1335,0.1335,0.1335,0.1335,0.1335,0.1335,0.1266,0.1296,0.1349,0.1397,0.1421,0.143,0.1256,0.0897,0.0987,0.0808,0.009,-0.0,-0.0,-0.0,-0.0269,-0.0538,-0.0538,-0.0538,-0.0807,-0.1615,-0.1794,-0.1973,-0.233,-0.233,-0.233,-0.233,-0.233,-0.242,-0.2689,-0.3405,-0.4032,-0.4482,-0.3942,-0.3851,-0.3941,-0.3496,-0.3318,0.0,0.8506,0.0,0.8047,0.8006,0.0,0.0,0.0,0.0,0.8111,0.7974,0.7804,0.788,0.7804,0.0,0.0,0.0,0.0,0.0,0.0,0.0,0.0,0.0,0.0,0.0,0.0,0.0,0.0,0.6938,0.6938,0.6938,0.6938,0.6938,0.6938,0.6714,0.6641,0.6641,0.6012,0.5392,0.4776,0.4389,0.3919,0.3446,0.3217,0.3141,0.3141,0.3372,0.3526,0.3448,0.3217,0.2982,0.2826,0.2826,0.2668,0.2511,0.2511,0.2668,0.2826,0.2589,0.2511,0.251,0.2275,0.1962,0.165,0.1572,0.1493,0.1335,0.1335,0.1335,0.1335,0.1335,0.1335,0.1335,0.1335,0.1335,0.1266,0.1296,0.1349,0.1391,0.1395,0.1417,0.1436,0.1345,0.0628,0.009,-0.0,-0.0,-0.0,-0.0,-0.0,-0.0,-0.0,-0.0,-0.009,-0.009,-0.0538,-0.0807,-0.0807,-0.0807,-0.0807,-0.0807,-0.0807,-0.1256,-0.2243,-0.2243,-0.2781,-0.3857,-0.3496,-0.3226,-0.2956,-0.3406,-0.332,0.0,0.0,0.0,0.8177,0.8077,0.8006,0.7938,0.7906,0.7921,0.7903,0.7753,0.7642,0.7642,0.7642,0.0,0.0,0.0,0.0,0.0,0.0,0.0,0.0,0.0,0.0,0.0,0.0,0.0,0.0,0.0,0.6472,0.6472,0.6321,0.6247,0.6247,0.5938,0.5705,0.5547,0.5082,0.4696,0.4311,0.3919,0.3528,0.3215,0.3141,0.3062,0.3062,0.3059,0.3059,0.3059,0.2824,0.2589,0.2431,0.2277,0.2277,0.2275,0.2275,0.2353,0.2431,0.2353,0.2198,0.212,0.1885,0.1728,0.1572,0.1415,0.1336,0.1335,0.1493,0.1493,0.1493,0.165,0.165,0.165,0.1493,0.1415,0.1339,0.1271,0.1305,0.1346,0.1386,0.1401,0.1414,0.1432,0.0629,-0.0,-0.0,-0.0,-0.0,-0.0,-0.0,-0.0,-0.0,-0.0,-0.0,-0.0,-0.018,-0.0269,-0.0269,-0.0269,-0.0269,-0.0269,-0.0269,-0.0897,-0.2154,-0.1525,-0.1884,-0.3232,-0.2422,-0.2062,-0.1973,-0.1792,-0.1793,0.8894,0.0,0.0,0.0,0.0,0.8186,0.8042,0.0,0.8019,0.7927,0.7718,0.7565,0.7484,0.7484,0.0,0.0,0.0,0.0,0.0,0.0,0.0,0.0,0.0,0.0,0.0,0.0,0.0,0.0,0.0,0.0,0.5777,0.5702,0.555,0.5476,0.5243,0.4929,0.4616,0.4307,0.3997,0.3686,0.3292,0.3059,0.2904,0.2826,0.2826,0.2904,0.2668,0.2668,0.2668,0.251,0.2275,0.2119,0.1964,0.1963,0.2119,0.2119,0.2119,0.2119,0.2119,0.1963,0.1807,0.165,0.1572,0.1493,0.1335,0.1335,0.1335,0.1572,0.1572,0.165,0.1887,0.1887,0.1729,0.165,0.1415,0.1335,0.1335,0.1281,0.1314,0.1355,0.138,0.1312,0.0975,0.0447,-0.0,-0.0,-0.0,-0.0,-0.0,-0.0,-0.0,-0.0,-0.0,-0.0,-0.0,-0.0,-0.0,-0.0,-0.0,-0.0,-0.0,-0.0,-0.0449,-0.1436,-0.0987,-0.1257,-0.2425,-0.1705,-0.1256,-0.0897,-0.0628,-0.0628,0.0,0.0,0.0,0.0,0.0,0.0,0.815,0.0,0.8327,0.8178,0.7953,0.7723,0.7561,0.7484,0.0,0.0,0.0,0.0,0.0,0.0,0.0,0.0,0.0,0.0,0.0,0.0,0.0,0.0,0.5002,0.5002,0.5002,0.5002,0.4851,0.4698,0.4698,0.4389,0.3763,0.3763,0.345,0.2826,0.2589,0.251,0.251,0.2275,0.2275,0.2431,0.2275,0.2275,0.2431,0.2275,0.2041,0.1887,0.1887,0.1887,0.1887,0.1887,0.1887,0.1887,0.1887,0.1729,0.1572,0.1572,0.1493,0.1335,0.1335,0.1335,0.1336,0.1572,0.165,0.165,0.1887,0.1807,0.165,0.165,0.1493,0.1335,0.1335,0.128,0.1301,0.1303,0.1351,0.1044,0.0174,-0.0,-0.0,-0.0,-0.0,-0.0,-0.0,-0.0,-0.0,-0.0,-0.0,-0.0,-0.0,-0.0,-0.0,-0.0,-0.0,-0.0,-0.0,-0.0,-0.0,-0.0,-0.045,-0.0899,-0.1349,-0.1346,-0.0898,-0.0,-0.0,-0.0,0.9087,0.0,0.0,0.0,0.0,0.0,0.0,0.0,0.0,0.8327,0.803,0.7804,0.7723,0.7565,0.7484,0.0,0.0,0.0,0.0,0.0,0.0,0.0,0.0,0.0,0.0,0.0,0.0,0.0,0.4538,0.4538,0.4538,0.4465,0.4153,0.3839,0.3839,0.3684,0.3295,0.3139,0.2902,0.2589,0.2353,0.2198,0.2043,0.2043,0.2043,0.2043,0.2043,0.1963,0.1806,0.1806,0.1728,0.165,0.1493,0.1572,0.165,0.165,0.165,0.165,0.165,0.1572,0.1415,0.1415,0.1335,0.1335,0.1493,0.1493,0.165,0.2119,0.2276,0.2276,0.2512,0.2434,0.2199,0.1886,0.165,0.1493,0.1335,0.1027,0.0877,0.1217,0.0833,0.0342,0.0087,-0.0,-0.0,-0.0,-0.0,-0.0,-0.0,-0.0,-0.0,-0.0,-0.0,-0.0,-0.0,-0.0,-0.0,-0.0,-0.0,-0.0,-0.0,-0.0,-0.0,-0.0,-0.009,-0.027,-0.036,-0.0359,-0.0269,-0.0,-0.0,-0.0,0.0,0.0,0.0,0.0,0.0,0.0,0.7948,0.8042,0.8169,0.0,0.7876,0.7646,0.7569,0.7407,0.7249,0.0,0.0,0.0,0.0,0.0,0.0,0.0,0.0,0.0,0.0,0.4231,0.4151,0.4151,0.4151,0.4151,0.4151,0.4077,0.3841,0.3526,0.3526,0.3292,0.2982,0.2747,0.2589,0.2353,0.2119,0.1963,0.1887,0.1808,0.1808,0.1887,0.1808,0.1729,0.1572,0.1493,0.1493,0.1493,0.1335,0.1336,0.1493,0.1493,0.1493,0.1493,0.1493,0.1415,0.1415,0.1415,0.1493,0.1571,0.1806,0.1885,0.1962,0.2588,0.2901,0.3059,0.3059,0.2824,0.2511,0.212,0.1806,0.1572,0.1335,0.0943,0.071,0.072,0.0327,-0.0,-0.0,-0.0,-0.0,-0.0,-0.0,-0.0,-0.0,-0.0,-0.0,-0.0,-0.0,-0.0,-0.0,-0.0,-0.0,-0.0,-0.0,-0.0,-0.0,-0.0,-0.0,-0.0,-0.0,-0.0,-0.0,-0.0,-0.0,-0.0,-0.0,-0.0,0.0,0.0,0.0,0.0,0.0,0.0,0.7486,0.7611,0.7787,0.0,0.0,0.7407,0.718,0.6945,0.6861,0.0,0.0,0.0,0.0,0.0,0.0,0.0,0.0,0.0,0.3841,0.3763,0.3763,0.3763,0.3763,0.3763,0.3763,0.3763,0.3606,0.3448,0.3448,0.3214,0.2746,0.2589,0.2353,0.2118,0.1806,0.165,0.1808,0.165,0.165,0.1808,0.165,0.1572,0.1572,0.1336,0.1335,0.1335,0.1335,0.1335,0.1335,0.1335,0.1335,0.1335,0.1335,0.1415,0.1572,0.165,0.1807,0.2043,0.2196,0.2352,0.2508,0.3132,0.3602,0.3841,0.3604,0.3214,0.2824,0.2353,0.1962,0.1572,0.1336,0.1021,0.0707,0.0236,0.008,-0.0,-0.0,-0.0,-0.0,-0.0,-0.0,-0.0,-0.0,-0.0,-0.0,-0.0,-0.0,-0.0,-0.0,-0.0,-0.0,-0.0,-0.0,-0.0,-0.0,-0.0,-0.0,-0.0,-0.0,0.009,0.018,0.018,0.018,0.018,0.018,0.018,0.0,0.0,0.0,0.0,0.0,0.0,0.7318,0.7409,0.7557,0.0,0.7249,0.7019,0.6942,0.663,0.6398,0.6637,0.0,0.0,0.0,0.0,0.0,0.0,0.0,0.0,0.3841,0.3763,0.3763,0.3763,0.3682,0.3526,0.3526,0.3374,0.3139,0.2981,0.2902,0.2746,0.2353,0.2275,0.2041,0.1728,0.165,0.1572,0.1415,0.1415,0.1415,0.1415,0.1415,0.1336,0.1336,0.1335,0.1335,0.1335,0.1335,0.1335,0.1335,0.1335,0.1335,0.1335,0.1335,0.1415,0.165,0.1804,0.2118,0.2433,0.2821,0.3212,0.3606,0.4231,0.454,0.4693,0.4307,0.3997,0.3686,0.2902,0.2354,0.1961,0.1414,0.1021,0.0864,0.1021,0.048,-0.0,-0.0,-0.0,-0.0,-0.0,-0.0,-0.0,-0.0,-0.0,-0.0,-0.0,-0.0,-0.0,-0.0,-0.0,-0.0,-0.0,-0.0,-0.0,-0.0,-0.0,-0.0,-0.0,-0.0,0.0359,0.1166,0.1166,0.1166,0.1166,0.1166,0.1166,0.0,0.0,0.0,0.7725,0.0,0.0,0.0,0.6749,0.671,0.6861,0.6553,0.6244,0.6244,0.5931,0.5622,0.5783,0.5783,0.5783,0.0,0.0,0.0,0.0,0.0,0.0,0.3841,0.3763,0.3763,0.3763,0.3604,0.3526,0.3526,0.3217,0.2984,0.2826,0.2668,0.2511,0.2196,0.204,0.1806,0.1572,0.1493,0.1415,0.1335,0.1335,0.1335,0.1335,0.1335,0.1335,0.1335,0.1335,0.1335,0.1335,0.1335,0.1335,0.1335,0.1335,0.1336,0.1415,0.1415,0.1728,0.2119,0.2275,0.2744,0.3214,0.3602,0.4151,0.4621,0.4932,0.5165,0.5243,0.4771,0.4384,0.3917,0.3134,0.251,0.1885,0.1414,0.1178,0.11,0.1257,0.0793,0.0243,-0.0,-0.0,-0.0,-0.0,-0.0,-0.0,-0.0,-0.0,-0.0,-0.0,-0.0,-0.0,-0.0,-0.0,-0.0,-0.0,-0.0,-0.0,-0.0,-0.0,0.018,0.0718,0.1168,0.1436,0.1436,0.1885,0.2154,0.2154,0.2154,0.2243,0.0,0.0,0.0,0.0,0.0,0.6521,0.0,0.0,0.0,0.0,0.0,0.0,0.0,0.0,0.0,0.0,0.0,0.0,0.0,0.5007,0.0,0.0,0.0,0.0,0.3606,0.3606,0.3686,0.3686,0.345,0.337,0.337,0.3137,0.2904,0.2746,0.2511,0.2354,0.2118,0.1806,0.1572,0.1572,0.1415,0.1335,0.1335,0.1335,0.1335,0.1335,0.1335,0.1335,0.1335,0.1335,0.1335,0.1335,0.1335,0.1335,0.1335,0.1335,0.1415,0.1572,0.1572,0.1963,0.2511,0.2746,0.3372,0.4151,0.454,0.5007,0.5398,0.5476,0.5634,0.5634,0.524,0.4693,0.407,0.3366,0.2588,0.1886,0.1493,0.1336,0.1335,0.1335,0.1021,0.0558,0.0084,-0.0,-0.0,-0.0,-0.0,-0.0,-0.0,-0.0,-0.0,-0.0,-0.0,-0.0,-0.0,-0.0,-0.0,-0.0,-0.0,0.009,0.027,0.0449,0.0808,0.1346,0.2424,0.2513,0.1705,0.2603,0.3053,0.2875,0.2963,0.323,0.0,0.0,0.0,0.0,0.7021,0.0,0.0,0.0,0.5637,0.5637,0.0,0.0,0.0,0.0,0.0,0.0,0.0,0.0,0.4224,0.4309,0.4235,0.3919,0.0,0.0,0.0,0.3061,0.3219,0.3219,0.2982,0.2902,0.2902,0.2668,0.2589,0.2511,0.2353,0.2119,0.1964,0.1729,0.1493,0.1335,0.1335,0.1335,0.1335,0.1335,0.1335,0.1335,0.1335,0.1335,0.1335,0.1335,0.1335,0.1335,0.1335,0.1335,0.1335,0.1335,0.1415,0.1572,0.1572,0.1963,0.2588,0.2978,0.3912,0.5004,0.555,0.5786,0.5864,0.6103,0.6183,0.6106,0.5637,0.509,0.4465,0.3841,0.2901,0.2119,0.1886,0.1572,0.1335,0.1335,0.1257,0.0957,0.0167,-0.0,-0.0,-0.0,-0.0,-0.0,-0.0,-0.0,-0.0,-0.0,-0.0,-0.0,-0.0,-0.0,-0.0,-0.0,-0.0,0.036,0.1169,0.2066,0.2244,0.1436,0.2424,0.2873,0.2694,0.3409,0.3411,0.2875,0.332,0.3588,0.0,0.0,0.0,0.0,0.0,0.0,0.5786,0.0,0.5249,0.0,0.0,0.0,0.0,0.0,0.0,0.0,0.3765,0.0,0.0,0.0,0.2743,0.0,0.0,0.0,0.0,0.0,0.0,0.0,0.2826,0.2826,0.2982,0.2747,0.2668,0.2668,0.2353,0.2196,0.2041,0.1728,0.1572,0.1493,0.1336,0.1335,0.1335,0.1335,0.1335,0.1335,0.1335,0.1335,0.1335,0.1335,0.1335,0.1335,0.1335,0.1335,0.1335,0.1335,0.1493,0.1807,0.1807,0.2354,0.3134,0.407,0.4927,0.5628,0.6022,0.6103,0.618,0.6261,0.618,0.5944,0.5556,0.4929,0.4229,0.3761,0.2824,0.1964,0.1886,0.1572,0.1257,0.0943,0.11,0.1037,0.0167,-0.0,-0.0,-0.0,-0.0,-0.0,-0.0,-0.0,-0.0,-0.0,-0.0,-0.0,-0.0,-0.0,-0.0,-0.0,0.0539,0.1257,0.2246,0.2694,0.2694,0.2244,0.3232,0.3501,0.305,0.3764,0.3857,0.3501,0.3855,0.4123,0.8551,0.0,0.0,0.0,0.0,0.0,0.0,0.0,0.0,0.0,0.0,0.0,0.0,0.0,0.0,0.0,0.0,0.2826,0.0,0.1411,0.0,0.0,0.0,0.0,0.0,0.0,0.0,0.2589,0.2668,0.2826,0.2984,0.2904,0.2826,0.2826,0.2431,0.2275,0.2196,0.1806,0.1572,0.1572,0.1415,0.1335,0.1335,0.1335,0.1335,0.1335,0.1335,0.1335,0.1335,0.1335,0.1335,0.1335,0.1335,0.1335,0.1335,0.1335,0.1572,0.1887,0.1887,0.2668,0.3759,0.4929,0.555,0.5941,0.618,0.6338,0.6338,0.6338,0.6099,0.5786,0.5398,0.4693,0.399,0.3602,0.2668,0.1887,0.1965,0.1572,0.1178,0.0864,0.11,0.1037,0.0167,-0.0,-0.0,-0.0,-0.0,-0.0,-0.0,-0.0,-0.0,-0.0,-0.0,-0.0,-0.0,0.027,0.0539,0.0808,0.1346,0.1974,0.2873,0.3142,0.3232,0.2962,0.3859,0.4036,0.3406,0.4121,0.4302,0.4125,0.4389,0.4567,0.0,0.0,0.0,0.7092,0.0,0.0,0.0,0.0,0.5018,0.0,0.0,0.0,0.0,0.0,0.0,0.0,0.0,0.0,0.0,0.0,0.0,0.0,0.0,0.0,0.0,0.0,0.1806,0.2117,0.2353,0.2589,0.2826,0.2982,0.2982,0.2826,0.2589,0.2431,0.2196,0.1806,0.1572,0.1572,0.1415,0.1335,0.1335,0.1335,0.1335,0.1335,0.1335,0.1335,0.1335,0.1335,0.1335,0.1335,0.1335,0.1335,0.1335,0.1335,0.1572,0.1887,0.1887,0.2823,0.4224,0.5007,0.555,0.5941,0.618,0.6338,0.6338,0.6338,0.6099,0.5786,0.5398,0.4693,0.399,0.3602,0.2668,0.1965,0.2044,0.165,0.1257,0.1257,0.1257,0.1037,0.0167,-0.0,-0.0,-0.0,-0.0,-0.0,-0.0,-0.0,-0.0,-0.0,-0.0,-0.0,-0.0,0.0809,0.1798,0.2785,0.2424,0.2424,0.2873,0.3771,0.3948,0.3227,0.3942,0.4123,0.3859,0.4393,0.4661,0.4661,0.4921,0.5008,0.0,0.0,0.7092,0.6788,0.0,0.0,0.0,0.0,0.0,0.0,0.0,0.0,0.0,0.0,0.0,0.0,0.0,0.0,0.0,0.0,0.0,0.0,0.0,0.0,0.0,0.0,0.0,0.1806,0.2276,0.2668,0.2982,0.3215,0.3215,0.2984,0.2826,0.2589,0.2431,0.1964,0.1807,0.1807,0.1493,0.1335,0.1335,0.1335,0.1335,0.1335,0.1335,0.1335,0.1335,0.1335,0.1415,0.1493,0.1493,0.1572,0.165,0.1415,0.1572,0.1965,0.2746,0.3446,0.4224,0.5007,0.555,0.5941,0.618,0.6338,0.6261,0.6099,0.5786,0.5395,0.4851,0.407,0.3366,0.2901,0.2276,0.1729,0.1808,0.1335,0.0943,0.1257,0.0864,0.0319,0.0084,-0.0,-0.0,-0.0,-0.0,-0.0,-0.0,-0.0,-0.0,-0.0,-0.0,-0.0,-0.0,0.0898,0.2065,0.3687,0.2875,0.2782,0.3771,0.3944,0.4032,0.3941,0.4476,0.4567,0.4121,0.4656,0.4837,0.475,0.5104,0.528,0.6398,0.6475,0.0,0.6093,0.5628,0.0,0.5007,0.0,0.0,0.0,0.0,0.0,0.0,0.0,0.0,0.0,0.0,0.0,0.0,-0.0943,0.0,0.0,0.0,0.0,0.0,0.0,0.1021,0.1885,0.2354,0.2824,0.0,0.0,0.345,0.3141,0.2982,0.2746,0.2431,0.2043,0.1887,0.1807,0.1493,0.1335,0.1335,0.1335,0.1335,0.1335,0.1335,0.1335,0.1335,0.1415,0.1493,0.165,0.1728,0.1963,0.2043,0.165,0.1806,0.2277,0.3372,0.3917,0.4304,0.5165,0.5631,0.5941,0.618,0.6338,0.6261,0.5941,0.5631,0.5165,0.454,0.3837,0.3056,0.2588,0.212,0.1729,0.1729,0.1178,0.0628,0.0786,0.0393,-0.0,-0.0,-0.0,-0.0,-0.0,-0.0,-0.0,-0.0,-0.0,-0.0,-0.0,-0.0,-0.0,-0.0,0.0898,0.2064,0.3687,0.3233,0.3229,0.4216,0.4389,0.4476,0.4478,0.4832,0.4743,0.43,0.4743,0.4921,0.4837,0.5282,0.5463]},{"header":{"parameterUnit":"m.s-1","parameterCategory":1,"la1":30.6,"la2":29.2853,"lo1":-89.7004,"lo2":-87.6739,"dy":0.0162,"dx":0.0183,"nx":112,"ny":82,"refTime":"2023-09-12T18:00:00:Z","depth":0,"parameterNumber":3,"parameterNumberName":"V-component_of_WINDS"},"data":[0.0,0.0,0.0,0.0,0.0,0.0,0.0,0.0,0.0,0.0,0.0,0.0,0.0,0.0,0.0,0.0,0.0,0.0,0.0,0.0,0.0,0.0,0.0,0.0,0.0,0.0,0.0,0.0,0.0,0.0,0.0,0.0,0.0,0.0,0.0,0.0,0.0,0.0,0.0,0.0,0.0,0.0,0.0,0.0,0.0,0.0,0.0,0.0,0.0,0.0,0.0,0.0,0.0,0.0,0.0,0.0,0.0,0.0,0.0,0.0,0.0,0.0,0.0,0.0,0.0,0.0,0.0,0.0,0.0,0.0,0.0,0.0,0.0,0.0,0.0,0.0,0.0,0.0,0.0,0.0,0.0,0.0,0.0,0.0,0.0,0.0,0.0,0.0,0.0,0.0,-1.6071,-1.6866,-1.7144,-1.7102,-1.668,-1.6051,-1.5264,-1.4286,0.0,0.0,0.0,0.0,0.0,0.0,0.0,0.0,0.0,0.0,0.0,0.0,0.0,0.0,0.0,0.0,0.0,0.0,0.0,0.0,0.0,0.0,0.0,0.0,0.0,0.0,0.0,0.0,0.0,0.0,0.0,0.0,0.0,0.0,0.0,0.0,0.0,0.0,0.0,0.0,0.0,0.0,0.0,0.0,0.0,0.0,0.0,0.0,0.0,0.0,0.0,0.0,0.0,0.0,0.0,0.0,0.0,0.0,0.0,0.0,0.0,0.0,0.0,0.0,0.0,0.0,0.0,0.0,0.0,0.0,0.0,0.0,0.0,0.0,0.0,0.0,0.0,0.0,0.0,0.0,0.0,0.0,0.0,0.0,0.0,0.0,0.0,0.0,0.0,0.0,0.0,0.0,0.0,0.0,0.0,0.0,0.0,0.0,0.0,0.0,0.0,0.0,0.0,0.0,-1.687,-1.7571,-1.7625,-1.7516,-1.7269,-1.6552,-1.5756,-1.4937,0.0,0.0,0.0,0.0,0.0,0.0,0.0,0.0,0.0,0.0,0.0,0.0,0.0,0.0,0.0,0.0,0.0,0.0,0.0,0.0,0.0,0.0,0.0,0.0,0.0,0.0,0.0,0.0,0.0,0.0,0.0,0.0,0.0,0.0,0.0,0.0,0.0,0.0,0.0,0.0,0.0,0.0,0.0,0.0,0.0,0.0,0.0,0.0,0.0,0.0,0.0,0.0,0.0,0.0,0.0,0.0,0.0,0.0,0.0,0.0,0.0,0.0,0.0,0.0,0.0,0.0,0.0,0.0,0.0,0.0,0.0,0.0,0.0,0.0,0.0,0.0,0.0,0.0,0.0,0.0,0.0,0.0,0.0,0.0,0.0,0.0,0.0,0.0,0.0,0.0,0.0,0.0,0.0,0.0,0.0,0.0,0.0,0.0,0.0,0.0,0.0,0.0,0.0,-1.7258,-1.7894,-1.8344,-1.8344,-1.8161,-1.7855,-1.7157,-1.6324,-1.5297,-1.3658,0.0,0.0,0.0,0.0,0.0,0.0,0.0,0.0,0.0,0.0,0.0,0.0,0.0,0.0,0.0,0.0,0.0,0.0,0.0,0.0,0.0,0.0,0.0,0.0,0.0,0.0,0.0,0.0,0.0,0.0,0.0,0.0,0.0,0.0,0.0,0.0,0.0,0.0,0.0,0.0,0.0,0.0,0.0,0.0,0.0,0.0,0.0,0.0,0.0,0.0,0.0,0.0,0.0,0.0,0.0,0.0,0.0,0.0,0.0,0.0,0.0,0.0,0.0,0.0,0.0,0.0,0.0,0.0,0.0,0.0,0.0,0.0,0.0,0.0,0.0,0.0,0.0,0.0,0.0,0.0,0.0,0.0,0.0,0.0,0.0,0.0,0.0,0.0,0.0,0.0,0.0,0.0,0.0,0.0,0.0,0.0,0.0,0.0,0.0,0.0,0.0,0.0,-1.867,-1.9202,-1.946,-1.9421,-1.9169,-1.8623,-1.7936,-1.6965,-1.5652,-1.4218,0.0,0.0,0.0,0.0,0.0,0.0,0.0,0.0,0.0,0.0,0.0,0.0,0.0,0.0,0.0,0.0,0.0,0.0,0.0,0.0,0.0,0.0,0.0,0.0,0.0,0.0,0.0,0.0,0.0,0.0,0.0,0.0,0.0,0.0,0.0,0.0,0.0,0.0,0.0,0.0,0.0,0.0,0.0,0.0,0.0,0.0,0.0,0.0,0.0,0.0,0.0,0.0,0.0,0.0,0.0,0.0,0.0,0.0,0.0,0.0,0.0,0.0,0.0,0.0,0.0,0.0,0.0,0.0,0.0,0.0,0.0,0.0,0.0,0.0,0.0,0.0,0.0,0.0,0.0,0.0,0.0,0.0,0.0,0.0,0.0,0.0,0.0,0.0,0.0,0.0,0.0,0.0,0.0,0.0,0.0,0.0,0.0,0.0,0.0,0.0,0.0,0.0,-2.0428,-2.0913,-2.1211,-2.1087,-2.0651,-1.9741,-1.8879,-1.7751,-1.6133,-1.4539,0.0,0.0,0.0,0.0,0.0,0.0,0.0,0.0,0.0,0.0,0.0,0.0,0.0,0.0,0.0,0.0,0.0,0.0,0.0,0.0,0.0,0.0,0.0,0.0,0.0,0.0,0.0,0.0,0.0,0.0,0.0,0.0,0.0,0.0,0.0,0.0,0.0,0.0,0.0,0.0,0.0,0.0,0.0,0.0,0.0,0.0,0.0,0.0,0.0,0.0,0.0,0.0,0.0,0.0,0.0,0.0,0.0,0.0,0.0,0.0,0.0,0.0,0.0,0.0,0.0,0.0,0.0,0.0,0.0,0.0,0.0,0.0,0.0,0.0,0.0,0.0,0.0,0.0,0.0,0.0,0.0,0.0,0.0,0.0,0.0,0.0,0.0,0.0,0.0,0.0,0.0,0.0,0.0,0.0,0.0,0.0,0.0,0.0,0.0,0.0,0.0,0.0,-2.1012,-2.158,0.0,-2.1753,-2.1426,-2.0845,-1.9964,-1.8709,-1.7005,0.0,0.0,0.0,0.0,0.0,0.0,0.0,0.0,0.0,0.0,0.0,0.0,0.0,0.0,0.0,0.0,0.0,0.0,0.0,0.0,0.0,0.0,0.0,0.0,0.0,0.0,0.0,0.0,0.0,0.0,0.0,0.0,0.0,0.0,0.0,0.0,0.0,0.0,0.0,0.0,0.0,0.0,0.0,0.0,0.0,0.0,0.0,0.0,0.0,0.0,0.0,0.0,0.0,0.0,0.0,0.0,0.0,0.0,0.0,0.0,0.0,0.0,0.0,0.0,0.0,0.0,0.0,0.0,0.0,0.0,0.0,0.0,0.0,0.0,0.0,0.0,0.0,0.0,0.0,0.0,0.0,0.0,0.0,0.0,0.0,0.0,0.0,0.0,0.0,0.0,0.0,0.0,0.0,0.0,0.0,0.0,0.0,0.0,0.0,0.0,0.0,0.0,-2.1155,-2.1984,-2.2635,0.0,-2.2878,-2.25,-2.1913,-2.0983,-1.9666,-1.783,0.0,0.0,0.0,0.0,0.0,0.0,0.0,0.0,0.0,0.0,0.0,0.0,0.0,0.0,0.0,0.0,0.0,0.0,0.0,0.0,0.0,0.0,0.0,0.0,0.0,0.0,0.0,0.0,0.0,0.0,0.0,0.0,0.0,0.0,0.0,0.0,0.0,0.0,0.0,0.0,0.0,0.0,0.0,0.0,0.0,0.0,0.0,0.0,0.0,0.0,0.0,0.0,0.0,0.0,0.0,0.0,0.0,0.0,0.0,0.0,0.0,0.0,0.0,0.0,0.0,0.0,0.0,0.0,0.0,0.0,0.0,0.0,0.0,0.0,0.0,0.0,0.0,0.0,0.0,0.0,0.0,0.0,0.0,0.0,0.0,0.0,0.0,0.0,0.0,0.0,0.0,0.0,0.0,0.0,0.0,0.0,0.0,0.0,0.0,0.0,0.0,0.0,-2.2685,-2.3621,-2.4287,-2.4775,-2.4605,-2.4056,-2.2903,-2.2032,-2.064,0.0,0.0,0.0,0.0,0.0,0.0,0.0,0.0,0.0,0.0,0.0,0.0,0.0,0.0,0.0,0.0,0.0,0.0,0.0,0.0,0.0,0.0,0.0,0.0,0.0,0.0,0.0,0.0,0.0,0.0,0.0,0.0,0.0,0.0,0.0,0.0,0.0,0.0,0.0,0.0,0.0,0.0,0.0,0.0,0.0,0.0,0.0,0.0,0.0,0.0,0.0,0.0,0.0,0.0,0.0,0.0,0.0,0.0,0.0,0.0,0.0,0.0,0.0,0.0,0.0,0.0,0.0,0.0,0.0,0.0,0.0,0.0,0.0,0.0,0.0,0.0,0.0,0.0,0.0,0.0,0.0,0.0,0.0,0.0,0.0,0.0,0.0,0.0,0.0,0.0,0.0,0.0,0.0,0.0,0.0,0.0,0.0,0.0,0.0,0.0,0.0,0.0,0.0,-2.3113,-2.3975,-2.463,-2.5123,-2.4806,-2.4348,-2.3762,-2.2864,-2.1566,-1.9781,0.0,0.0,0.0,0.0,0.0,0.0,0.0,0.0,0.0,0.0,0.0,0.0,0.0,0.0,0.0,0.0,0.0,0.0,0.0,0.0,0.0,0.0,0.0,0.0,0.0,0.0,0.0,0.0,0.0,0.0,0.0,0.0,0.0,0.0,0.0,0.0,0.0,0.0,0.0,0.0,0.0,0.0,0.0,0.0,0.0,0.0,0.0,0.0,0.0,0.0,0.0,0.0,0.0,0.0,0.0,0.0,0.0,0.0,0.0,0.0,0.0,0.0,0.0,0.0,0.0,0.0,0.0,0.0,0.0,0.0,0.0,0.0,0.0,0.0,0.0,0.0,0.0,0.0,0.0,0.0,0.0,0.0,0.0,0.0,0.0,0.0,0.0,0.0,0.0,0.0,0.0,0.0,0.0,0.0,0.0,0.0,0.0,0.0,0.0,0.0,0.0,0.0,-2.3273,-2.4225,-2.4871,-2.5355,-2.4989,-2.4533,-2.4204,-2.3377,-2.2235,-2.0738,0.0,0.0,0.0,0.0,0.0,0.0,0.0,0.0,0.0,0.0,0.0,0.0,0.0,0.0,0.0,0.0,0.0,0.0,0.0,0.0,0.0,0.0,0.0,0.0,0.0,0.0,0.0,0.0,0.0,0.0,0.0,0.0,0.0,0.0,0.0,0.0,0.0,0.0,0.0,0.0,0.0,0.0,0.0,0.0,0.0,0.0,0.0,0.0,0.0,0.0,0.0,0.0,0.0,0.0,0.0,0.0,0.0,0.0,0.0,0.0,0.0,0.0,0.0,0.0,0.0,0.0,0.0,0.0,0.0,0.0,0.0,0.0,0.0,0.0,0.0,0.0,0.0,0.0,0.0,0.0,0.0,0.0,0.0,0.0,0.0,0.0,0.0,0.0,0.0,0.0,0.0,0.0,0.0,0.0,0.0,0.0,0.0,0.0,0.0,0.0,0.0,0.0,-2.3344,-2.4292,-2.4974,-2.553,-2.513,-2.467,-2.4343,-2.361,-2.2634,-2.1472,0.0,0.0,0.0,0.0,0.0,0.0,0.0,0.0,0.0,0.0,0.0,0.0,0.0,0.0,0.0,0.0,0.0,0.0,0.0,0.0,0.0,0.0,0.0,0.0,0.0,0.0,0.0,0.0,0.0,0.0,0.0,0.0,0.0,0.0,0.0,0.0,0.0,0.0,0.0,0.0,0.0,0.0,0.0,0.0,0.0,0.0,0.0,0.0,0.0,0.0,0.0,0.0,0.0,0.0,0.0,0.0,0.0,0.0,0.0,0.0,-1.6811,0.0,0.0,0.0,0.0,0.0,0.0,0.0,0.0,0.0,0.0,0.0,0.0,0.0,0.0,0.0,0.0,0.0,0.0,0.0,0.0,0.0,0.0,0.0,0.0,0.0,0.0,0.0,0.0,0.0,0.0,0.0,0.0,0.0,0.0,0.0,0.0,0.0,0.0,0.0,0.0,0.0,-2.3213,-2.4153,-2.4895,-2.553,-2.5224,-2.4766,-2.4343,-2.3824,-2.3098,-2.2161,-2.0699,0.0,0.0,0.0,0.0,0.0,0.0,0.0,0.0,0.0,0.0,0.0,0.0,0.0,0.0,0.0,0.0,0.0,0.0,0.0,0.0,0.0,0.0,0.0,0.0,0.0,0.0,0.0,0.0,0.0,0.0,0.0,0.0,0.0,0.0,0.0,0.0,0.0,0.0,0.0,0.0,0.0,0.0,0.0,0.0,0.0,0.0,0.0,0.0,0.0,0.0,0.0,0.0,0.0,0.0,0.0,0.0,0.0,0.0,0.0,0.0,-1.8084,0.0,0.0,0.0,0.0,0.0,0.0,0.0,0.0,0.0,0.0,0.0,0.0,0.0,0.0,0.0,0.0,0.0,0.0,0.0,0.0,0.0,0.0,0.0,0.0,0.0,0.0,0.0,0.0,0.0,0.0,0.0,0.0,0.0,0.0,0.0,0.0,0.0,0.0,0.0,0.0,-2.3199,-2.4127,-2.4871,-2.5546,-2.5224,-2.4815,-2.4467,-2.3994,-2.3421,-2.274,-2.1574,0.0,0.0,0.0,0.0,0.0,0.0,0.0,0.0,0.0,0.0,0.0,0.0,0.0,0.0,0.0,0.0,0.0,0.0,0.0,0.0,0.0,0.0,0.0,0.0,0.0,0.0,0.0,0.0,0.0,0.0,0.0,0.0,0.0,0.0,0.0,0.0,0.0,0.0,0.0,0.0,0.0,0.0,0.0,0.0,0.0,0.0,0.0,0.0,0.0,0.0,0.0,0.0,0.0,-2.3655,-2.3935,-2.4287,-2.4261,-2.422,-2.405,-2.1641,-2.0166,-1.9458,-1.9028,0.0,0.0,0.0,0.0,0.0,0.0,0.0,0.0,0.0,0.0,0.0,0.0,0.0,0.0,0.0,0.0,0.0,0.0,0.0,0.0,0.0,0.0,0.0,0.0,-2.1258,-2.1356,0.0,0.0,0.0,0.0,0.0,0.0,0.0,0.0,0.0,0.0,0.0,0.0,-2.3346,-2.4199,-2.4871,-2.554,-2.5224,-2.4879,-2.463,-2.4177,-2.3696,-2.3216,-2.2392,-2.1383,0.0,0.0,0.0,0.0,0.0,0.0,0.0,0.0,0.0,0.0,0.0,0.0,0.0,0.0,0.0,0.0,0.0,0.0,0.0,0.0,0.0,0.0,0.0,0.0,0.0,0.0,0.0,0.0,0.0,0.0,0.0,0.0,-2.0028,-2.0087,0.0,0.0,0.0,0.0,0.0,0.0,0.0,0.0,0.0,0.0,0.0,0.0,0.0,-2.4342,-2.4696,-2.504,-2.5255,-2.5352,-2.5415,-2.5447,-2.5379,-2.5319,-2.5297,-2.5243,-2.4712,0.0,-2.2336,-2.1872,0.0,0.0,0.0,0.0,0.0,0.0,0.0,0.0,0.0,0.0,0.0,0.0,0.0,0.0,0.0,0.0,0.0,0.0,0.0,0.0,0.0,0.0,-2.1572,-2.2369,-2.2757,-2.2951,0.0,-2.1909,-2.1059,-2.0703,-2.0406,0.0,0.0,0.0,0.0,0.0,0.0,0.0,-2.3546,-2.4348,-2.4989,-2.5524,-2.541,-2.5084,-2.463,-2.4482,-2.4135,-2.3551,-2.3143,-2.2483,-2.1493,-1.9687,0.0,0.0,0.0,0.0,0.0,0.0,0.0,0.0,0.0,0.0,0.0,0.0,0.0,0.0,0.0,0.0,0.0,0.0,0.0,0.0,0.0,0.0,0.0,0.0,0.0,0.0,0.0,0.0,0.0,-2.1872,-2.1756,-2.1932,-2.2048,-2.2205,0.0,0.0,0.0,0.0,0.0,0.0,0.0,0.0,0.0,-2.4871,-2.5221,-2.5519,-2.5832,-2.612,-2.628,-2.6368,-2.6437,-2.6471,-2.6437,-2.6298,-2.6193,-2.6175,-2.5999,-2.5496,-2.4721,-2.3853,-2.3271,-2.2878,0.0,0.0,0.0,0.0,-2.1769,-2.1788,-2.1337,-2.1255,0.0,-2.0588,0.0,0.0,0.0,0.0,0.0,0.0,0.0,0.0,0.0,0.0,-2.2921,-2.3551,-2.3852,-2.4006,-2.4063,-2.3706,-2.3084,0.0,-2.1843,-2.156,-2.1301,0.0,0.0,0.0,0.0,-2.2639,-2.3819,-2.4486,-2.5052,-2.554,-2.5432,-2.5201,-2.4846,-2.4645,-2.4343,-2.3839,-2.3566,-2.3054,-2.23,-2.086,-1.9125,0.0,0.0,0.0,0.0,0.0,0.0,0.0,0.0,0.0,0.0,0.0,0.0,0.0,0.0,0.0,0.0,0.0,0.0,0.0,0.0,0.0,0.0,0.0,0.0,0.0,0.0,0.0,0.0,-2.3127,-2.3157,-2.3436,-2.3508,-2.3724,0.0,0.0,0.0,0.0,0.0,0.0,-2.5091,-2.5307,-2.5481,-2.5689,-2.5997,-2.6297,-2.6521,-2.6791,-2.6971,-2.7098,-2.7164,-2.7244,-2.7289,-2.71,-2.7004,-2.6939,-2.6791,-2.6657,-2.6487,-2.5341,-2.4729,-2.4483,-2.4066,-2.3872,-2.3731,-2.3404,-2.3332,-2.3375,-2.3113,-2.3113,-2.3113,-2.2743,0.0,-2.1702,-2.1116,0.0,0.0,0.0,0.0,-2.1918,-2.2622,-2.3318,-2.3921,-2.4369,-2.467,-2.4815,-2.4871,-2.4934,-2.4664,0.0,-2.3172,-2.2936,-2.2637,0.0,0.0,0.0,0.0,-2.3288,-2.4184,-2.4704,-2.5169,-2.56,-2.5508,-2.5355,-2.5045,-2.4846,-2.4508,-2.4051,-2.3824,-2.3465,-2.2889,-2.1744,-2.0341,-1.8541,0.0,0.0,0.0,0.0,0.0,0.0,0.0,0.0,0.0,0.0,0.0,0.0,0.0,0.0,0.0,0.0,0.0,0.0,0.0,0.0,0.0,0.0,0.0,0.0,0.0,0.0,0.0,0.0,0.0,-2.3852,-2.3979,0.0,0.0,0.0,0.0,-2.5339,-2.5551,-2.5738,-2.5937,-2.5937,-2.6101,-2.642,-2.6607,-2.6825,-2.7149,-2.7355,-2.7539,-2.7654,-2.773,-2.78,-2.7869,-2.7713,-2.7654,-2.7642,-2.7448,-2.7341,-2.7261,-2.6315,-2.5852,-2.5652,-2.5291,-2.5098,-2.5059,-2.4664,-2.4486,-2.4502,-2.4287,-2.4219,-2.4162,-2.3879,-2.3333,-2.2651,-2.2165,-2.2058,0.0,0.0,-2.2503,-2.301,-2.3505,-2.3987,-2.4486,-2.4974,-2.5224,-2.5378,-2.553,-2.5567,-2.5323,0.0,-2.4287,-2.412,-2.3879,0.0,-2.3551,-2.3696,-2.3909,-2.423,-2.4784,-2.5107,-2.5394,-2.5663,-2.5621,-2.5448,-2.5107,-2.5029,-2.471,-2.412,-2.4009,-2.3754,-2.3275,-2.236,-2.1266,-2.0029,-1.7343,0.0,0.0,0.0,0.0,0.0,0.0,0.0,0.0,0.0,0.0,0.0,0.0,0.0,0.0,0.0,0.0,0.0,0.0,0.0,0.0,0.0,0.0,0.0,0.0,0.0,0.0,0.0,0.0,-2.4436,-2.4542,0.0,-2.5192,-2.5492,-2.5642,-2.5791,-2.603,-2.6208,-2.6365,-2.659,-2.6774,-2.6971,-2.7181,-2.7369,-2.7565,-2.7748,-2.7893,-2.8091,-2.8063,-2.8073,-2.8156,-2.8007,-2.7922,-2.7864,-2.7719,-2.76,-2.7496,-2.7117,-2.6825,-2.6538,-2.6227,-2.6013,-2.5868,-2.5551,-2.5384,-2.5291,-2.5169,-2.5146,-2.5068,-2.4599,-2.4147,-2.3709,-2.3376,-2.3216,-2.3216,-2.3362,-2.3706,-2.4085,-2.4389,-2.4808,-2.523,-2.553,-2.5717,-2.5791,-2.5828,-2.5864,-2.5754,-2.5438,-2.5169,-2.4934,-2.4719,-2.4517,-2.4354,-2.4328,-2.4451,-2.4695,-2.5107,-2.5355,-2.5562,-2.5791,-2.5717,-2.5546,-2.524,-2.5084,-2.4751,-2.4162,-2.4051,-2.3797,-2.3319,-2.2558,-2.1615,-2.0505,-1.856,-1.6639,0.0,0.0,0.0,0.0,0.0,0.0,0.0,0.0,0.0,0.0,0.0,0.0,0.0,0.0,0.0,0.0,0.0,0.0,0.0,0.0,0.0,0.0,0.0,0.0,0.0,0.0,-2.4405,-2.5013,-2.513,-2.5323,-2.5754,-2.5937,-2.6063,-2.6118,-2.6349,-2.659,-2.6791,-2.7103,-2.7324,-2.7461,-2.7659,-2.7836,-2.7979,-2.8053,-2.8191,-2.838,-2.8309,-2.8353,-2.8406,-2.8273,-2.8191,-2.8109,-2.7979,-2.7864,-2.7766,-2.7677,-2.7465,-2.7152,-2.6808,-2.6572,-2.6382,-2.6115,-2.5917,-2.5775,-2.5717,-2.5675,-2.5524,-2.5146,-2.4815,-2.4533,-2.4354,-2.4256,-2.4297,-2.4477,-2.4759,-2.502,-2.5192,-2.5513,-2.5828,-2.599,-2.6099,-2.617,-2.617,-2.617,-2.6151,-2.6115,-2.5807,-2.5492,-2.5323,-2.5192,-2.5091,-2.4934,-2.5013,-2.5208,-2.5508,-2.5637,-2.5749,-2.5917,-2.5775,-2.5589,-2.5355,-2.5201,-2.4871,-2.4369,-2.4219,-2.394,-2.3436,-2.2785,-2.1974,-2.1037,-1.9221,-1.7236,-1.5225,0.0,0.0,0.0,0.0,0.0,0.0,0.0,0.0,0.0,0.0,0.0,0.0,0.0,0.0,0.0,0.0,0.0,0.0,0.0,0.0,0.0,0.0,0.0,-2.4862,-2.4536,-2.4634,-2.5513,-2.5675,-2.584,-2.617,-2.626,-2.633,-2.6418,-2.659,-2.6858,-2.7181,-2.7386,-2.7677,-2.8014,-2.8071,-2.8164,-2.83,-2.83,-2.838,-2.8492,-2.8492,-2.8536,-2.8587,-2.8536,-2.8458,-2.8398,-2.8264,-2.8154,-2.8099,-2.7946,-2.7783,-2.7539,-2.7021,-2.6742,-2.6572,-2.631,-2.6115,-2.599,-2.5917,-2.5787,-2.5616,-2.547,-2.5301,-2.513,-2.513,-2.5185,-2.5333,-2.5394,-2.5551,-2.5738,-2.5881,-2.6063,-2.6241,-2.6295,-2.6417,-2.6485,-2.6485,-2.6485,-2.6485,-2.6485,-2.6187,-2.5881,-2.5738,-2.5738,-2.5701,-2.5605,-2.5663,0.0,-2.5974,-2.5954,-2.5917,-2.6026,-2.5848,-2.5626,-2.5454,-2.5355,-2.5162,-2.4855,-2.4645,-2.4234,-2.3638,-2.3024,-2.2388,-2.1616,-1.9273,-1.6983,-1.4802,0.0,0.0,0.0,0.0,0.0,0.0,0.0,0.0,0.0,0.0,0.0,0.0,0.0,0.0,0.0,0.0,0.0,0.0,0.0,0.0,0.0,0.0,-2.5378,-2.5178,-2.4973,-2.508,-2.5811,-2.595,-2.6112,-2.6468,-2.6503,-2.6555,-2.6624,-2.6808,-2.7055,-2.7341,-2.76,-2.7836,-2.8126,-2.8264,-2.8353,-2.844,-2.8458,-2.8484,-2.8587,-2.8587,-2.8587,-2.8587,-2.8536,-2.8492,-2.8484,-2.8327,-2.8237,-2.8154,-2.8014,-2.7853,-2.7642,-2.7244,-2.6923,-2.664,-2.6468,-2.631,-2.6132,-2.6132,-2.6007,-2.5881,-2.577,-2.5642,-2.5551,-2.5551,-2.5551,-2.5626,-2.5791,-2.5954,-2.6079,-2.617,-2.6347,-2.6503,-2.6503,-2.6589,-2.6623,-2.6572,-2.6572,-2.6554,-2.652,-2.6415,-2.6293,-2.6154,-2.6099,-2.6043,-2.5901,-2.5864,0.0,-2.6132,-2.6132,-2.6168,-2.6329,-2.6241,-2.6101,-2.5974,-2.5775,-2.5535,-2.5253,-2.5052,-2.4655,-2.3979,-2.3406,-2.2483,-2.1202,-2.0016,-1.8718,0.0,0.0,0.0,0.0,0.0,0.0,0.0,0.0,0.0,0.0,0.0,0.0,0.0,0.0,0.0,0.0,0.0,0.0,0.0,0.0,0.0,0.0,-2.6126,-2.6286,-2.6173,-2.6059,-2.6054,-2.6142,-2.6869,-2.7297,-2.7278,-2.6873,-2.6774,-2.7148,-2.7079,-2.7105,-2.7373,-2.7957,-2.8446,-2.8737,-2.9206,-2.9476,-2.9556,-2.9556,-2.9582,-2.9608,-2.9608,-2.9608,-2.9608,-2.9556,-2.9349,0.0,-2.8892,-2.8604,-2.8237,-2.8099,-2.7922,0.0,0.0,0.0,0.0,0.0,-2.638,-2.6258,-2.6258,-2.6151,-2.5974,-2.5954,-2.5881,-2.5791,-2.5828,-2.5811,-2.5848,-2.6082,-2.6206,-2.6345,-2.6417,-2.6521,-2.6657,-2.6657,-2.6674,-2.6691,-2.6657,-2.6657,-2.6623,-2.6589,-2.6589,0.0,-2.6504,-2.6399,-2.631,-2.6222,-2.6187,-2.6222,-2.6399,-2.6364,-2.6399,-2.6572,-2.6504,-2.6418,-2.6332,-2.6262,0.0,0.0,0.0,-2.516,-2.4256,-2.3608,0.0,0.0,0.0,-2.0341,-1.9547,0.0,0.0,0.0,-1.2856,-1.2646,0.0,0.0,0.0,0.0,0.0,0.0,0.0,0.0,0.0,0.0,0.0,0.0,0.0,0.0,0.0,0.0,-2.6922,-2.7371,-2.7564,-2.767,-2.7429,-2.667,-2.8042,-2.8861,-2.8426,-2.758,-2.733,-2.7909,-2.7521,-2.7394,-2.7615,0.0,0.0,0.0,0.0,-3.092,-3.0985,-3.0985,-3.0985,-3.0985,-3.0985,-3.0985,-3.0985,-3.0985,-3.0577,-2.9828,-2.9773,-2.9296,-2.8569,-2.8449,-2.8209,-2.7883,-2.7513,-2.7233,-2.6942,-2.6657,-2.6468,-2.6349,-2.633,0.0,0.0,-2.6063,-2.6026,-2.5954,-2.6026,-2.6026,-2.6063,-2.626,-2.6399,-2.652,-2.6572,-2.6657,-2.6691,-2.6691,-2.6691,-2.6691,-2.6691,-2.6691,-2.6691,-2.6691,-2.6759,-2.6826,-2.686,-2.6691,-2.652,-2.652,-2.652,-2.6572,-2.6708,-2.6691,-2.6691,-2.6758,0.0,0.0,-2.664,-2.6791,-2.6774,-2.6539,-2.635,-2.573,-2.4576,-2.3891,-2.3318,-2.2773,-2.2349,-2.1857,-2.1281,-2.0965,-2.0526,-1.9965,-1.7382,-1.6414,0.0,0.0,0.0,0.0,0.0,0.0,0.0,0.0,0.0,0.0,0.0,0.0,0.0,0.0,0.0,-2.7203,-2.7437,-2.7811,-2.8561,-2.9262,-2.9154,-2.7861,-2.8617,-2.9326,-2.9554,-2.94,-2.9158,-2.8864,-2.8904,-2.899,-2.9174,-2.9621,-3.0052,-3.0395,-3.0718,-3.092,-3.0985,-3.0985,-3.0985,-3.0985,0.0,0.0,-3.0985,-3.0985,-3.0912,-3.0722,-3.0685,-3.053,-3.032,-3.0177,-2.958,-2.8669,-2.758,-2.7087,-2.6975,-2.6759,-2.6624,-2.659,-2.6555,-2.6503,-2.6468,-2.6399,-2.6329,-2.6225,-2.6225,-2.6206,0.0,-2.6399,-2.6485,-2.652,-2.664,-2.6691,-2.6691,-2.6691,-2.6691,-2.6691,-2.6691,-2.6691,-2.6691,-2.6691,-2.7182,-2.7604,-2.7725,-2.7148,-2.6674,-2.6674,-2.6708,-2.6808,-2.6925,-2.7023,-2.7135,-2.7261,-2.7369,-2.7413,-2.7382,-2.7413,-2.7382,-2.7224,-2.6674,-2.6035,-2.5335,-2.4752,-2.4251,-2.3834,-2.3621,-2.3376,-2.3098,-2.3143,-2.2936,-2.2457,-2.0075,-1.9086,0.0,0.0,0.0,0.0,0.0,0.0,0.0,0.0,0.0,0.0,0.0,-2.6393,0.0,0.0,-2.7274,-2.8154,-2.8648,-2.9093,-2.9629,-3.046,-3.0446,-2.8844,-2.9706,-3.0537,-3.0973,-3.0993,-3.0663,-2.9845,-2.9539,-2.9438,-2.954,-3.0223,-3.0741,-3.11,-3.1673,-3.2083,-3.2198,-3.2198,-3.2198,-3.2198,-3.2198,-3.2198,-3.2198,-3.2198,-3.1981,-3.16,-3.1516,-3.1243,-3.0826,-3.0671,-3.0273,-2.968,-2.8504,-2.7747,-2.7279,-2.7135,-2.7038,-2.6956,-2.6908,-2.6859,-2.6792,-2.6691,-2.6572,-2.6487,-2.6452,-2.6399,-2.638,-2.652,-2.6554,-2.6572,-2.6674,-2.6691,-2.6691,-2.6691,-2.6979,-2.7249,-2.7249,-2.7588,-2.7912,-2.7912,-2.8287,-2.8629,-2.8716,-2.8459,-2.8218,-2.81,-2.8185,-2.8285,-2.8416,-2.8578,-2.8673,-2.8784,-2.8921,-2.8853,-2.8482,-2.8065,-2.776,-2.7666,-2.7115,-2.659,-2.6139,-2.5635,-2.5221,-2.4863,-2.4648,-2.4446,-2.4256,-2.4271,-2.4147,-2.3779,-2.2611,-2.1834,0.0,0.0,0.0,0.0,0.0,0.0,0.0,0.0,-2.6582,-2.6686,-2.6855,-2.7159,-2.7801,-2.7955,-2.8226,-2.9096,-2.9797,-3.0333,-3.0634,-3.1422,-3.1444,-3.0058,-3.0941,-3.181,-3.2212,-3.2232,-3.1812,-3.0886,-3.0247,-2.9955,-3.0007,-3.0836,-3.1489,-3.1831,-3.267,-3.3196,-3.3382,-3.3393,-3.3393,-3.3393,-3.3393,-3.3393,-3.3393,-3.3393,-3.3049,-3.2433,-3.2365,-3.1975,-3.1361,-3.1016,-3.0874,-3.0755,-2.974,-2.89,-2.817,-2.7722,-2.7448,-2.7307,-2.7307,-2.7213,-2.7103,-2.6989,-2.6858,-2.6775,-2.6657,-2.6572,-2.652,-2.6572,-2.6606,-2.6606,-2.6674,-2.681,-2.6911,-2.6962,-2.7538,-2.8063,-2.8115,-2.8643,-2.9175,-2.9211,-2.9436,-2.9679,-2.9799,-3.0106,-3.0173,-2.9693,-2.9708,-2.9857,-2.9983,-3.0145,-3.0225,-3.0287,-3.0421,-3.0279,-2.9672,-2.8973,-2.8525,-2.8415,-2.7909,-2.742,-2.7095,-2.6572,-2.6139,-2.5811,-2.5572,-2.5351,-2.516,-2.5098,-2.4942,-2.4664,-2.4664,-2.4116,-2.8025,-2.7754,-2.7326,-2.6954,-2.6774,-2.664,0.0,0.0,-2.7475,-2.7475,-2.8048,-2.8555,-2.8676,-2.8766,-2.913,-2.9932,-3.0231,-3.0705,-3.1614,-3.1967,-3.2144,-3.1958,-3.2103,-3.2369,-3.2772,-3.2648,-3.2371,-3.1951,-3.1828,-3.1776,-3.1812,-3.2057,-3.2315,-3.2648,-3.2957,-3.3165,-3.3292,-3.3382,-3.3393,-3.3393,-3.3393,-3.3393,-3.3393,-3.3393,-3.3357,-3.3266,-3.3196,-3.3112,-3.2985,-3.2157,-3.184,-3.1768,-3.0912,-3.0525,-3.0216,-2.8359,-2.7672,-2.7624,-2.7624,-2.76,-2.7526,-2.7465,-2.7261,-2.7021,-2.6825,-2.6674,-2.6589,-2.6606,-2.6606,-2.6606,-2.6674,-2.7199,-2.7706,-2.7827,-2.8422,-2.9021,-2.9178,-2.9317,-2.9403,-2.9591,-3.0196,-3.0682,-3.0887,-3.1633,-3.17,-3.0261,-3.0145,-3.0251,-3.0343,-3.0499,-3.0653,-3.0635,-3.0751,-3.08,-3.0728,-3.062,-3.0499,-3.0308,-2.9408,-2.8732,-2.8404,-2.7493,-2.6858,-2.659,-2.6454,-2.6247,-2.6035,-2.6035,-2.5908,-2.5631,-2.5631,-2.5082,-2.8299,-2.7992,-2.7601,-2.7224,-2.7346,-2.7505,-2.7385,-2.7889,-2.8429,-2.8484,-2.8702,-2.9036,-2.9475,-2.9617,-2.9966,0.0,-3.1116,-3.1476,-3.2056,-3.2352,-3.25,-3.246,-3.2684,-3.2934,-3.3173,-3.2948,-3.2674,-3.2404,-3.2266,-3.2232,-3.2232,-3.2335,-3.2506,-3.2737,-3.2961,-3.3165,-3.331,-3.3382,-3.3393,-3.3393,-3.3393,-3.3393,-3.3393,-3.3393,-3.3393,-3.3393,-3.3382,-3.3352,-3.3334,-3.2931,-3.2757,-3.2685,-3.1815,-3.1492,-3.1337,-3.0016,-2.9472,-2.9461,-2.9461,-2.9402,-2.9313,-2.9175,-2.8991,-2.8786,-2.8558,-2.834,-2.8167,-2.8063,-2.8046,-2.8081,-2.8168,-2.8458,-2.875,-2.8836,-2.9471,-3.0073,-3.0214,-3.0629,-3.1011,-3.1184,-3.1566,-3.1911,-3.2128,-3.2509,-3.2606,-3.2041,-3.1903,-3.1916,-3.2056,-3.2193,-3.2311,-3.2379,-3.2018,-3.1756,-3.1756,-3.1311,-3.0985,-3.0902,-3.042,-3.0051,-2.9816,-2.9359,-2.8724,-2.799,-2.7941,-2.7555,-2.6852,-2.6852,-2.6721,-2.6556,-2.6556,-2.6353,-2.8615,-2.855,0.0,-2.801,-2.8256,-2.8561,-2.8494,-2.9006,-2.9481,-2.95,-2.9598,-2.9901,-3.0408,-3.0568,-3.0813,-3.1565,-3.1856,-3.2073,-3.2386,-3.2621,-3.2777,-3.2768,-3.3051,-3.328,-3.3399,-3.3131,-3.2898,-3.2737,-3.2573,-3.2472,-3.2472,-3.2557,-3.2639,-3.2784,-3.3024,-3.3214,-3.331,-3.3364,-3.3422,-3.3393,-3.3422,-3.3422,-3.3393,-3.3393,-3.3393,-3.3393,-3.3393,-3.3393,-3.3411,-3.3352,-3.3322,-3.3268,-3.2613,-3.2397,-3.2324,-3.173,-3.1186,-3.074,-3.0769,-3.0693,-3.0635,-3.0451,-3.0318,-3.0149,-2.9841,-2.9592,-2.9403,-2.9246,-2.9211,-2.9246,-2.9403,-2.961,-2.9817,-2.9937,-3.0543,-3.1167,-3.1272,-3.1812,-3.2266,-3.2454,-3.2606,-3.277,-3.2948,-3.3042,-3.3152,-3.3292,-3.3244,-3.3196,-3.3352,-3.3393,-3.3509,-3.3633,-3.3113,-3.2793,-3.282,-3.2237,-3.1863,-3.1889,-3.1583,-3.132,-3.1237,-3.0882,-3.0356,-2.9576,-2.9558,-2.9062,-2.8028,-2.8028,-2.7836,-2.7484,-2.7484,-2.7526,-2.9081,-2.9501,-2.9871,-2.9514,-2.962,-2.9804,-2.969,-3.0231,-3.0681,-3.0521,-3.1033,-3.1528,-3.1545,-3.1545,-3.1674,-3.2037,-3.2144,-3.2301,-3.2636,-3.2802,-3.2961,-3.3142,-3.3256,-3.3322,0.0,-3.3268,-3.3129,-3.3011,-3.2916,-3.2884,-3.2884,-3.2884,-3.2916,-3.2979,-3.3201,-3.331,-3.331,-3.3422,-3.3452,-3.3393,-3.3481,-3.3452,-3.3393,-3.3393,-3.3393,-3.3393,-3.3393,-3.3393,-3.3393,-3.3411,-3.3411,-3.3393,-3.3375,-3.3375,-3.3357,-3.3339,-3.2256,-3.0808,-3.0864,-3.0836,-3.0779,-3.0693,-3.0558,-3.0313,-2.9983,-2.9839,-2.9725,-2.954,-2.9506,-2.9506,-2.9658,-3.0231,-3.082,-3.0992,-3.162,-3.2214,-3.2504,-3.2588,-3.2672,-3.2916,-3.2979,-3.3011,-3.3086,-3.3256,-3.3393,-3.3411,-3.3491,-3.3549,-3.3491,-3.3549,-3.3633,-3.3698,-3.3734,-3.3778,-3.3831,-3.3839,-3.3847,-3.3899,-3.3059,-3.2566,-3.2529,-3.1726,-3.1261,-3.1231,-3.1231,-3.0803,-2.9911,-2.9911,-2.9418,-2.8469,-2.8469,-2.8458,-2.9381,-2.9289,-2.9634,-3.1426,-3.1339,-3.0822,-3.0771,-3.132,-3.176,-3.1637,-3.174,-3.1877,-3.1877,-3.193,-3.2073,-3.2336,-3.2472,-3.2636,-3.2858,-3.3019,-3.3147,-3.3316,-3.3393,0.0,0.0,0.0,0.0,-3.3201,-3.3201,-3.317,-3.317,-3.3214,-3.3244,-3.3274,-3.3364,-3.3422,-3.3422,-3.352,-3.3549,-3.352,-3.3549,-3.352,-3.3481,-3.3481,-3.3452,-3.3393,-3.3393,-3.3393,-3.3393,-3.3393,-3.3393,-3.3393,-3.3393,-3.3393,-3.3393,-3.3393,-3.3038,-3.2538,-3.2538,-3.2538,-3.2509,-3.2439,-3.2313,-3.2125,-3.1856,-3.1679,-3.1529,-3.1359,-3.129,-3.1324,-3.1496,-3.179,-3.2051,-3.2249,-3.2494,-3.2705,-3.2852,-3.2884,-3.2948,-3.3214,-3.3274,-3.3316,-3.3473,-3.3559,-3.3643,-3.378,-3.3753,-3.3726,-3.3698,-3.386,-3.3947,-3.4023,-3.4099,-3.4173,-3.4221,-3.4221,-3.4269,-3.4316,-3.4041,-3.3896,-3.3941,-3.3683,-3.3275,-3.2697,-3.2678,-3.2285,-3.1463,-3.1463,-3.1255,-3.0878,-3.0334,-3.0131,-2.9805,-2.989,-3.0341,-3.2211,-3.2336,-3.1982,-3.1987,-3.2284,-3.2557,-3.242,-3.2369,-3.2299,-3.2351,-3.2403,-3.2488,-3.2654,-3.2734,-3.2844,-3.3045,-3.319,-3.3316,-3.3422,-3.3491,-3.352,0.0,0.0,0.0,-3.3411,-3.3411,-3.3411,-3.3411,-3.3452,-3.3481,-3.3481,-3.3491,-3.352,-3.352,-3.3605,-3.3633,-3.3633,-3.3605,-3.3577,-3.352,-3.352,-3.3491,-3.3481,-3.3452,-3.3422,-3.3422,-3.3393,-3.3393,-3.3393,-3.3393,-3.3393,-3.3393,-3.3393,-3.3393,-3.3393,-3.3393,-3.3393,-3.3411,-3.3322,-3.3262,-3.3135,-3.288,-3.277,-3.2672,-3.2539,-3.2506,-3.2573,-3.2705,-3.2784,-3.2848,-3.3042,-3.3104,-3.3135,-3.3196,-3.3208,-3.3316,-3.3491,-3.3549,-3.3633,-3.3753,-3.3815,-3.3947,-3.4148,-3.413,-3.4055,-3.3998,-3.4124,-3.4245,-3.4344,-3.4413,-3.4502,-3.4569,-3.4588,-3.463,-3.4711,-3.4694,-3.4715,-3.4794,-3.4813,-3.4585,-3.4053,-3.4071,-3.3688,-3.2882,-3.2915,-3.2724,-3.2365,-3.1863,-3.1645,-3.0333,-3.1199,-3.1924,-3.1992,-3.2625,-3.3238,-3.3201,-3.3176,-3.3046,-3.2876,-3.2809,-3.2858,0.0,0.0,-3.289,-3.2996,-3.2952,-3.297,-3.319,-3.3316,-3.3422,0.0,0.0,0.0,0.0,0.0,0.0,-3.3605,0.0,-3.3605,-3.3605,-3.3605,-3.3605,-3.3605,-3.3605,-3.3605,-3.3605,-3.3671,-3.3698,-3.3698,-3.3643,-3.3605,-3.3605,-3.3605,-3.3605,-3.3605,-3.352,-3.3509,-3.3509,-3.3422,-3.3411,-3.3411,-3.3411,-3.3393,-3.3393,-3.3393,-3.3393,-3.3393,-3.3393,-3.3393,-3.3411,-3.3322,-3.3292,-3.3262,-3.3091,-3.3073,-3.3117,-3.3037,-3.3086,-3.3147,-3.322,-3.325,-3.325,-3.3375,-3.3481,-3.3549,-3.3605,-3.3671,-3.3753,-3.3815,-3.3895,-3.3947,-3.3947,-3.408,-3.4293,-3.4495,-3.4588,-3.4548,-3.4363,-3.4386,-3.448,-3.4612,-3.4734,-3.4851,-3.4906,-3.4925,-3.498,-3.5122,-3.5069,-3.5066,-3.513,-3.513,-3.5162,-3.5212,-3.5296,-3.4937,-3.4186,-3.425,-3.3851,-3.3049,-3.301,-3.3014,-3.0641,-3.1446,-3.2375,-3.3067,-3.3414,-3.3512,-3.3397,-3.3332,-3.327,-3.3049,-3.3143,-3.3255,0.0,0.0,0.0,-3.3176,-3.3225,0.0,-3.3345,-3.3422,0.0,-3.3509,0.0,-3.3725,-3.3689,-3.3726,0.0,0.0,-3.3698,-3.3671,-3.3671,-3.3726,-3.3753,-3.3753,-3.3753,-3.3753,-3.3753,-3.378,-3.378,-3.378,-3.3753,-3.3726,-3.3671,-3.3671,-3.3661,-3.3605,-3.3577,-3.3577,-3.3577,-3.3549,-3.352,-3.3481,-3.3481,-3.3452,-3.3393,-3.3393,-3.3393,-3.3411,-3.3452,-3.3452,-3.3411,-3.3422,-3.3452,-3.3452,-3.3462,-3.3462,-3.3473,-3.353,-3.3512,-3.3559,-3.3625,-3.3652,-3.368,-3.3734,-3.3815,-3.3895,-3.3947,-3.4023,-3.4099,-3.4173,-3.4321,-3.4442,-3.4505,-3.463,-3.4753,-3.487,-3.4889,-3.4832,-3.4612,-3.4734,-3.487,-3.4963,-3.5051,-3.5136,-3.5184,-3.5212,-3.5239,-3.5321,-3.5353,-3.5387,-3.5476,-3.5512,-3.5566,-3.5577,-3.5596,-3.5502,-3.5281,-3.5311,-3.5224,-3.5027,-3.438,-3.414,-3.1463,-3.2047,-3.2632,-3.3515,-3.3789,-3.3652,-3.3031,-3.3351,-3.3615,-3.3101,-3.3427,-3.3799,-3.3799,-3.375,-3.3634,0.0,0.0,0.0,-3.3393,-3.3499,-3.3585,0.0,-3.3735,0.0,-3.3815,-3.3842,-3.3842,0.0,-3.378,-3.3753,-3.3753,-3.378,-3.3807,-3.3807,-3.3807,-3.3807,-3.3807,-3.3807,-3.3807,-3.3807,-3.3807,-3.378,-3.3753,-3.3753,-3.3726,-3.3671,0.0,-3.3643,-3.3643,-3.3587,-3.3577,-3.3549,-3.3549,-3.352,-3.3481,-3.3481,-3.3509,-3.352,-3.3577,-3.3605,-3.3633,-3.3605,-3.3633,-3.3671,-3.3726,-3.3788,-3.3868,-3.3895,-3.3972,-3.4023,-3.4049,-3.4074,-3.4074,-3.4124,-3.4197,-3.4269,-3.4316,-3.4409,-3.4483,-3.4548,-3.4675,-3.4813,-3.4908,-3.5018,-3.5105,-3.5165,-3.5209,-3.5189,-3.5111,-3.5146,-3.5212,-3.5273,-3.5339,-3.5412,-3.5457,-3.5483,-3.55,-3.5523,-3.5568,-3.5611,-3.5699,-3.5717,-3.5735,-3.5735,-3.5763,-3.5791,-3.5779,-3.5788,-3.5803,-3.5826,-3.5359,-3.5149,-3.2367,-3.279,-3.2944,-3.3623,-3.3815,-3.3558,-3.2504,-3.3055,-3.3611,-3.2961,-3.3655,-3.4381,-3.4381,-3.4197,-3.3961,-3.3768,0.0,-3.3437,-3.3422,-3.3575,-3.3688,-3.3698,-3.3815,-3.3947,-3.3998,-3.3947,-3.3895,-3.3895,-3.386,-3.3807,-3.3807,-3.3807,-3.3807,-3.3807,-3.3807,-3.3807,-3.3807,-3.3807,-3.3807,-3.3807,-3.3807,-3.3807,-3.3807,-3.3807,-3.3807,-3.3807,-3.3753,0.0,-3.3698,-3.3643,-3.3633,-3.3587,-3.3615,-3.3633,-3.3633,-3.3615,-3.3671,-3.3726,-3.3753,-3.3842,-3.3947,-3.3807,-3.386,-3.3947,-3.3972,-3.4124,-3.4269,-3.4274,-3.4363,-3.4454,-3.4454,-3.4454,-3.4454,-3.4454,-3.4561,-3.4626,-3.4647,-3.4752,-3.487,-3.4962,-3.5015,-3.5102,-3.5239,-3.5315,-3.5369,-3.5432,-3.55,-3.5538,-3.5609,-3.5519,-3.5463,-3.5516,-3.559,-3.565,-3.5698,-3.5708,-3.5717,-3.5735,-3.5724,-3.5752,-3.5807,-3.5811,-3.5833,-3.5827,-3.5872,-3.5911,-3.5918,-3.5905,-3.5891,-3.5917,-3.5955,-3.5954,-3.244,-3.3143,-3.3623,-3.377,-3.3364,-3.2863,-3.2662,-3.2098,0.0,-3.2377,-3.3725,-3.4787,-3.4722,-3.4454,-3.4171,-3.3906,-3.3752,-3.3615,-3.3509,-3.3567,-3.3661,0.0,-3.3895,-3.3998,-3.4074,-3.4023,0.0,0.0,0.0,-3.3807,-3.3807,-3.3807,-3.3807,-3.3807,-3.3807,-3.3807,-3.3807,-3.3807,-3.3807,-3.3807,-3.3807,-3.3807,-3.3807,-3.3807,-3.3807,-3.3807,-3.3807,0.0,-3.378,-3.378,-3.3726,-3.3671,-3.3753,-3.3726,-3.3698,-3.3807,-3.386,-3.3895,-3.4049,-3.4197,-3.4269,-3.4099,-3.4074,-3.4197,-3.4427,-3.4495,-3.4561,-3.4651,-3.4713,-3.4733,-3.4733,-3.4733,-3.4733,-3.4733,-3.4792,-3.487,-3.4927,-3.5037,-3.5174,-3.5285,-3.5374,-3.5443,-3.5509,-3.5601,-3.5626,-3.5639,-3.566,-3.5697,-3.576,-3.5697,-3.5641,-3.566,-3.5726,-3.5771,-3.5776,-3.5772,-3.5818,-3.585,-3.5866,-3.5879,-3.5872,-3.5943,-3.5968,-3.5974,-3.5974,-3.5977,-3.5979,-3.5927,-3.593,-3.5972,-3.5937,-3.5914,-3.2643,-3.3068,-3.3269,-3.3235,-3.2679,-3.2035,-3.1631,-3.161,0.0,-3.1675,-3.2732,-3.362,-3.3524,-3.3644,0.0,-3.3456,-3.3644,-3.3753,-3.3615,-3.3615,-3.3698,-3.386,-3.3972,-3.4074,-3.4148,-3.4099,-3.4023,-3.3947,0.0,-3.3807,-3.3807,-3.3807,-3.3807,-3.3807,-3.3807,-3.3807,-3.3807,-3.3807,-3.3807,-3.3807,-3.3807,-3.3807,-3.3807,-3.3807,-3.3807,-3.3807,-3.3807,0.0,-3.3807,-3.3807,-3.3807,-3.3807,-3.3868,-3.3921,-3.3972,-3.4074,-3.4148,-3.4221,-3.4363,-3.4495,-3.4583,-3.4542,-3.4524,-3.4545,-3.467,-3.4751,-3.4811,-3.4889,-3.4927,-3.4945,-3.4945,-3.4945,-3.4945,-3.4945,-3.5001,-3.5073,-3.5141,-3.5235,-3.5326,-3.5482,-3.5553,-3.5612,-3.5646,-3.5708,-3.5747,-3.5745,-3.5788,-3.5826,-3.5853,-3.5827,-3.5801,-3.5806,-3.5853,-3.5905,-3.5891,-3.5897,-3.5914,-3.5958,-3.5958,-3.5946,-3.5951,-3.5988,-3.6003,-3.5994,-3.5996,-3.5996,-3.5996,-3.5971,-3.5962,-3.5991,-3.5929,-3.5892,-3.2548,-3.2678,-3.2563,-3.2508,-3.193,-3.1224,-3.0686,-3.1162,-3.1544,-3.0882,-3.1553,-3.2195,-3.2071,-3.2748,-3.3262,0.0,-3.3556,-3.3921,-3.378,-3.378,-3.3807,0.0,-3.4049,0.0,-3.4221,-3.4148,0.0,-3.3998,0.0,0.0,-3.3807,-3.3807,-3.3807,-3.3807,-3.3807,-3.3807,-3.3807,-3.3807,-3.3807,-3.3807,-3.3807,-3.3807,-3.3807,-3.3807,-3.3807,-3.3807,-3.3807,0.0,0.0,-3.3834,-3.3842,-3.3921,-3.4023,-3.4148,-3.4245,-3.4381,-3.4473,-3.458,-3.4647,-3.4769,-3.4888,-3.4945,-3.4908,-3.4851,-3.4889,-3.4964,-3.5056,-3.5054,-3.5108,-3.5126,-3.5126,-3.5126,-3.5126,-3.5126,-3.5179,-3.5229,-3.5335,-3.5383,-3.5464,-3.5608,-3.5687,-3.5737,-3.5747,-3.5782,-3.5815,-3.5815,-3.6021,-3.6175,-3.6187,-3.6338,-3.646,-3.647,-3.6187,-3.6005,-3.6005,-3.5994,-3.5991,-3.5991,-3.5995,-3.5996,-3.5996,-3.5995,-3.5994,-3.5993,-3.6005,-3.5999,-3.6001,-3.5997,-3.5973,-3.5972,-3.5922,-3.5891,-3.1803,-3.1942,-3.1894,-3.1797,-3.1236,-3.0716,-3.0764,-3.0434,-3.0084,-3.0023,-3.075,-3.1374,-3.1238,-3.2411,-3.3364,-3.3275,0.0,-3.4124,-3.3998,-3.3972,-3.3998,-3.4074,0.0,0.0,-3.4269,-3.4173,0.0,-3.3998,0.0,0.0,-3.3807,-3.3807,-3.3807,-3.3807,-3.3807,-3.3807,-3.3807,-3.3807,-3.3807,-3.3807,-3.3807,-3.3807,-3.3807,-3.3807,-3.3807,-3.3807,-3.3807,0.0,0.0,-3.3868,-3.3921,-3.3998,-3.4197,-3.4316,-3.4409,-3.4666,-3.4768,-3.4788,-3.4927,-3.5001,-3.5075,-3.516,-3.5091,-3.5001,-3.5143,-3.5157,-3.519,-3.5254,-3.5285,-3.5285,-3.5285,-3.5285,-3.5285,-3.5285,-3.5285,-3.5335,-3.546,-3.5489,-3.5531,-3.5649,-3.5736,-3.5799,-3.5864,-3.5885,-3.5898,-3.5898,-3.6571,-3.7079,-3.7079,-3.7761,-3.8261,-3.8261,-3.6902,-3.599,-3.5999,-3.5993,-3.5996,-3.5995,-3.5992,-3.6001,-3.5997,-3.5994,-3.599,-3.6005,-3.6001,-3.6005,-3.599,-3.5938,-3.5909,-3.5904,-3.5905,-3.5905,-3.1298,-3.1314,-3.1235,-3.1126,-3.0532,-2.9998,-3.0076,-2.998,-2.9907,-2.9956,-3.0288,-3.0532,-3.04,-3.1241,-3.209,-3.2495,0.0,0.0,-3.4141,-3.4148,-3.4148,-3.4221,-3.4245,0.0,0.0,0.0,-3.4049,0.0,0.0,0.0,-3.3807,-3.3807,-3.3807,-3.3807,-3.3807,-3.3807,-3.3807,-3.3807,-3.3807,-3.3807,-3.3807,-3.3807,-3.3807,-3.3807,-3.3807,-3.3807,-3.3807,0.0,0.0,-3.3972,-3.4074,-3.4197,-3.445,-3.4564,-3.4651,-3.485,-3.4946,-3.5002,-3.5091,-3.5143,-3.5176,-3.5289,-3.5285,-3.5251,-3.5285,-3.532,-3.5335,-3.5355,-3.5369,-3.5369,-3.5369,-3.5369,-3.5369,-3.5369,-3.5369,-3.5383,-3.5483,-3.5526,-3.5607,-3.5728,-3.5782,-3.5823,-3.5898,-3.6333,-3.6682,-3.6682,-3.7425,-3.7986,-3.7979,-3.8291,-3.8504,-3.8494,-3.7471,-3.6788,-3.6777,-3.6307,-3.6007,-3.6007,-3.6004,-3.5997,-3.6005,-3.5958,-3.5934,-3.5929,-3.5943,-3.5943,-3.5943,-3.5899,-3.5899,-3.5899,-3.5898,-3.5905,-3.0746,-3.0656,-3.062,-3.049,-3.0077,-2.9682,-2.9699,-2.9839,-2.9972,-3.0022,-3.0072,-3.0072,-2.9956,-3.0519,-3.1261,0.0,0.0,-3.3534,-3.4274,-3.4381,-3.434,-3.434,0.0,-3.4316,0.0,-3.4124,-3.3972,0.0,0.0,0.0,-3.3807,-3.3807,-3.3807,-3.3807,-3.3807,-3.3807,-3.3807,-3.3807,-3.3807,-3.3807,-3.3807,-3.3807,-3.3807,-3.3807,-3.3807,-3.3807,-3.3815,0.0,0.0,-3.4099,-3.4269,-3.445,-3.4647,-3.4791,-3.487,-3.5001,-3.5092,-3.5145,-3.5209,-3.5239,-3.5285,-3.5388,-3.5443,-3.5464,-3.5489,-3.5476,-3.5463,-3.5464,-3.5457,-3.5457,-3.5457,-3.5457,-3.5457,-3.5457,-3.5457,-3.547,-3.555,-3.5596,-3.5659,-3.5784,-3.6009,-3.6222,-3.6288,-3.7013,-3.7581,-3.7576,-3.8331,-3.8873,-3.8888,-3.9113,-3.9277,-3.9273,-3.8532,-3.7946,-3.7686,-3.7089,-3.6625,-3.6363,-3.6358,-3.6241,-3.5977,-3.5929,-3.5904,-3.5904,-3.5894,-3.5908,-3.5908,-3.5908,-3.5908,-3.5908,-3.5905,-3.5898,-3.0022,-3.0007,-2.9991,-2.9929,-2.991,-2.9888,-2.9888,-3.0007,-3.0102,-3.0102,-3.0102,-3.0087,-3.0022,-3.0536,-3.1279,-3.2147,-3.2956,0.0,-3.4489,-3.4645,-3.4645,0.0,0.0,-3.434,-3.4221,-3.4023,0.0,0.0,0.0,0.0,-3.3807,-3.3807,-3.3807,-3.3807,-3.3807,-3.3807,-3.3807,-3.3807,-3.3807,-3.3807,-3.3807,-3.3807,-3.3807,-3.3807,-3.3807,0.0,0.0,0.0,0.0,-3.4245,-3.4473,-3.4708,-3.4772,-3.487,-3.502,-3.5147,-3.5215,-3.5209,-3.5285,-3.534,-3.5405,-3.547,-3.5538,-3.5612,-3.5687,-3.5646,-3.5612,-3.5596,-3.5607,-3.5607,-3.5607,-3.5607,-3.5607,-3.5607,-3.5607,-3.5618,-3.5678,-3.5708,-3.5727,-3.5795,-3.654,-3.7196,-3.72,-3.7917,-3.8491,-3.8485,-3.9229,-3.978,-3.9785,-4.0545,-4.1069,-4.1062,-4.0294,-3.9418,-3.8567,-3.8488,-3.811,-3.7235,-3.718,-3.6805,-3.5947,-3.5908,-3.5908,-3.5908,-3.5908,-3.5908,-3.5908,-3.5908,-3.5908,-3.5908,-3.5891,-3.5864,-3.0157,-3.0094,-3.0049,-2.9991,-3.0007,-3.0022,-2.9972,-3.0034,-3.0113,-3.0113,-3.0098,-3.0087,-3.0072,-3.0186,-3.071,-3.2128,-3.2543,0.0,0.0,0.0,0.0,-3.458,-3.4427,-3.4269,0.0,0.0,0.0,0.0,0.0,0.0,-3.3807,-3.3807,-3.3807,-3.3807,-3.3807,-3.3807,-3.3807,-3.3807,-3.3807,-3.3807,-3.3807,-3.3807,-3.3807,-3.3807,-3.3834,0.0,0.0,0.0,0.0,-3.448,-3.4651,-3.4772,-3.4983,-3.5092,-3.5147,-3.5231,-3.5277,-3.5285,-3.5402,-3.5451,-3.5483,-3.5604,-3.5678,-3.5737,-3.5756,-3.5718,-3.5667,-3.5679,-3.5659,-3.5659,-3.5659,-3.5659,-3.5659,-3.5659,-3.5659,-3.5689,-3.5757,-3.5775,-3.5965,-3.6623,-3.7001,-3.7383,-3.7995,-3.881,-3.9391,-3.9394,-4.0136,-4.068,-4.0697,-4.0935,-4.1109,-4.1111,-4.0847,-4.034,-3.9463,-3.8848,-3.8375,-3.8116,-3.8085,-3.7702,-3.6832,-3.6735,-3.6456,-3.5918,-3.5898,-3.5905,-3.5897,-3.5897,-3.5911,-3.5898,-3.5845,-3.5799,-3.024,-3.0171,-3.0142,-3.0083,-3.0113,-3.0128,-3.0079,0.0,-3.0138,-3.0138,-3.0113,-3.0087,-3.0072,-2.9959,-3.0444,-3.2127,-3.2336,-3.2864,0.0,0.0,0.0,-3.4495,0.0,0.0,0.0,0.0,0.0,0.0,0.0,0.0,-3.3807,-3.3807,-3.3807,-3.3807,-3.3807,-3.3807,-3.3807,-3.3807,-3.3807,-3.3807,-3.3807,-3.3807,-3.3807,-3.3834,-3.3868,0.0,0.0,0.0,0.0,-3.4651,-3.4831,-3.4964,-3.5127,-3.5215,-3.5248,-3.5308,-3.535,-3.5388,-3.5496,-3.5538,-3.5596,-3.5708,-3.5784,-3.5838,-3.5842,-3.5818,-3.5784,-3.5791,-3.5763,-3.5745,-3.5745,-3.5736,-3.5736,-3.5745,-3.5745,-3.5851,-3.6246,-3.634,-3.6596,-3.7514,-3.7955,-3.8341,-3.8908,-3.9706,-4.029,-4.0283,-4.0743,-4.1081,-4.1078,-4.1052,-4.1064,-4.1052,-4.1059,-4.0851,-4.0292,-3.9786,-3.9343,-3.9006,-3.8974,-3.8572,-3.7735,-3.7637,-3.7202,-3.6365,-3.6345,-3.6197,-3.5905,-3.5905,-3.5905,-3.5892,-3.5823,-3.5773,0.0,-3.0207,-3.0218,-3.0218,-3.0213,-3.0221,-3.0221,0.0,0.0,-3.0199,-3.0147,-3.0087,-3.0022,-2.9943,-3.0461,-3.2127,-3.2354,-3.2864,0.0,-3.4687,0.0,0.0,-3.4124,0.0,-3.3895,0.0,0.0,0.0,0.0,0.0,-3.3807,-3.3807,-3.3807,-3.3807,-3.3807,-3.3807,-3.3807,-3.3807,-3.3807,-3.3807,-3.3807,-3.3807,-3.3788,-3.3868,-3.3947,0.0,0.0,0.0,0.0,-3.4792,-3.4983,-3.5217,-3.5212,-3.5242,-3.5308,-3.5383,-3.5449,-3.5528,-3.557,-3.5648,-3.5718,-3.5782,-3.5842,-3.5898,-3.5905,-3.5898,-3.5911,-3.5905,-3.5866,-3.5811,-3.5811,-3.5815,-3.5826,-3.5881,-3.5908,-3.6149,-3.7085,-3.7286,-3.7553,-3.8422,-3.9246,-3.9828,-3.9882,-4.0563,-4.1097,-4.1091,-4.11,-4.1075,-4.1013,-4.1007,-4.0993,-4.0996,-4.0996,-4.0996,-4.0996,-4.1071,-4.0753,-3.9935,-3.9825,-3.9429,-3.863,-3.8525,-3.8089,-3.7214,-3.7136,-3.6703,-3.5905,-3.5905,-3.5885,-3.5879,-3.5823,-3.5801,-3.0386,0.0,-3.0286,-3.0286,-3.0266,-3.0279,0.0,0.0,0.0,0.0,0.0,0.0,0.0,-2.994,-3.0457,-3.2142,-3.2372,-3.2921,-3.4482,0.0,0.0,-3.4173,-3.4074,-3.3972,0.0,0.0,0.0,0.0,0.0,-3.3807,-3.3807,-3.3807,-3.3807,-3.3807,-3.3807,-3.3807,-3.3807,-3.3807,-3.3807,-3.3807,-3.3807,-3.3807,-3.3788,-3.3921,-3.4049,0.0,0.0,0.0,-3.4792,-3.5001,-3.5145,-3.5212,-3.5261,-3.532,-3.5383,-3.5443,-3.5521,-3.5585,-3.5639,-3.5728,-3.5784,-3.5854,-3.5879,-3.5919,-3.5955,-3.5935,-3.5897,-3.5903,-3.5897,-3.5872,-3.5872,-3.5879,-3.6041,-3.6709,-3.6878,-3.7104,-3.7948,-3.815,-3.8462,-3.9337,-3.9652,-4.002,-4.068,-4.096,-4.1106,-4.1111,-4.1095,-4.1071,-4.1013,-4.0993,-4.1006,-4.0996,-4.0996,-4.0996,-4.0996,-4.1018,-4.0948,-4.0738,-4.0692,-4.0315,-3.9443,-3.9343,-3.8926,-3.8108,-3.7444,-3.6701,-3.5905,-3.5852,-3.5818,-3.5818,-3.5754,-3.5708,-3.052,-3.0425,-3.0318,-3.0279,-3.0279,-3.0279,-3.0266,0.0,0.0,0.0,0.0,0.0,0.0,0.0,0.0,0.0,-3.2336,0.0,0.0,0.0,-3.4099,-3.4023,-3.3947,-3.3895,0.0,0.0,0.0,0.0,0.0,-3.3807,-3.3807,-3.3807,-3.3807,-3.3807,-3.3807,-3.3807,-3.3807,-3.3807,-3.3807,-3.3807,-3.3815,-3.3868,-3.3895,-3.4074,-3.4221,0.0,0.0,0.0,-3.4908,-3.511,-3.5215,-3.5242,-3.5335,-3.5388,-3.5451,-3.5565,-3.5615,-3.5649,-3.5708,-3.5782,-3.585,-3.5891,-3.5924,-3.594,-3.5994,-3.5973,-3.5947,-3.5942,-3.5927,-3.5895,-3.5909,-3.6206,-3.6624,-3.7085,-3.7521,-3.804,-3.8864,-3.9065,-3.9343,-4.0223,-4.0389,-4.0551,-4.1015,-4.1108,-4.1095,-4.1106,-4.1103,-4.1078,-4.1018,-4.0991,-4.0984,-4.0971,-4.0943,-4.0943,-4.0943,-4.0988,-4.0996,-4.0996,-4.1007,-4.0785,-4.0321,-4.0238,-3.9811,-3.8966,-3.811,-3.728,-3.6448,-3.6414,-3.6192,-3.5803,-3.5754,-3.5757,-3.0597,-3.0509,-3.0379,-3.026,-3.0279,-3.0292,-3.0234,0.0,0.0,0.0,0.0,0.0,0.0,-3.0002,0.0,0.0,0.0,0.0,-3.4035,-3.4023,-3.3895,-3.3895,-3.3815,0.0,0.0,0.0,0.0,0.0,0.0,-3.3807,-3.3807,-3.3807,-3.3807,-3.3807,-3.3807,-3.3807,-3.3807,-3.3807,-3.3807,-3.3834,-3.3868,-3.3947,-3.4049,-3.4245,-3.4409,-3.4542,0.0,0.0,-3.5038,-3.5164,-3.5248,-3.5324,-3.5383,-3.5451,-3.5534,-3.5657,-3.5708,-3.5718,-3.5784,-3.585,-3.5905,-3.5905,-3.5955,-3.5995,-3.5996,-3.6009,-3.604,-3.6152,-3.6161,-3.6105,-3.6102,-3.675,-3.7435,-3.7571,-3.8155,-3.8942,-3.9819,-3.9994,-4.0228,-4.0953,-4.1105,-4.1101,-4.1094,-4.1091,-4.1091,-4.11,-4.1103,-4.1078,-4.1023,-4.0996,-4.098,-4.0917,-4.0907,-4.0898,-4.0898,-4.0936,-4.0974,-4.0971,-4.0991,-4.0982,-4.0974,-4.0908,-4.047,-3.9597,-3.8918,-3.8169,-3.73,-3.73,-3.6853,-3.5998,-3.5996,-3.592,-3.0613,-3.055,-3.0479,-3.039,-3.0336,-3.0311,-3.0292,-3.0234,0.0,0.0,0.0,0.0,0.0,-3.0511,-3.1309,0.0,0.0,-3.4083,0.0,0.0,-3.3868,-3.3815,0.0,0.0,0.0,0.0,0.0,0.0,0.0,-3.3807,-3.3807,-3.3807,-3.3807,-3.3807,-3.3807,-3.3807,-3.3807,-3.3807,-3.3815,-3.3895,-3.3947,-3.4049,-3.4173,-3.4381,-3.4542,-3.4693,0.0,-3.5057,-3.5183,-3.5248,-3.5324,-3.5398,-3.5463,-3.5558,-3.5667,-3.5689,-3.5747,-3.5791,-3.5807,-3.5852,-3.5911,-3.5903,-3.5942,-3.5996,-3.6007,-3.5996,-3.615,-3.6899,-3.7085,-3.7089,-3.709,-3.7694,-3.8492,-3.9232,-3.9493,-3.9845,-4.0721,-4.0891,-4.094,-4.107,-4.1105,-4.1097,-4.1093,-4.1094,-4.1091,-4.1091,-4.1109,-4.1078,-4.1023,-4.0996,-4.098,-4.0917,-4.0908,-4.0907,-4.0907,-4.0858,-4.0828,-4.0839,-4.0936,-4.0956,-4.0828,-4.0818,-4.0419,-3.9533,-3.9451,-3.9005,-3.8207,-3.8197,-3.775,-3.6906,-3.6908,-3.6473,-3.0613,-3.0559,-3.049,-3.0367,-3.0305,-3.0228,-3.0194,-3.0166,0.0,0.0,0.0,0.0,0.0,0.0,-3.1541,-3.2711,0.0,-3.4197,-3.4074,-3.3921,-3.3815,0.0,0.0,0.0,0.0,0.0,0.0,0.0,0.0,0.0,-3.3807,-3.3807,-3.3807,-3.3807,-3.3807,-3.3834,-3.3842,-3.3921,-3.3972,-3.3998,-3.4124,-3.4269,-3.4473,-3.4607,-3.4732,-3.487,0.0,-3.5147,-3.52,-3.528,-3.5339,-3.5412,-3.5515,-3.5612,-3.5698,-3.5747,-3.5773,-3.5799,-3.5795,-3.5833,-3.5891,-3.5899,-3.594,-3.5996,-3.6001,-3.6325,-3.6794,-3.7184,-3.7307,-3.7409,-3.7887,-3.8606,-3.9295,-3.9704,-4.0156,-4.0617,-4.1013,-4.1094,-4.1105,-4.1101,-4.1097,-4.1108,-4.1091,-4.1103,-4.1109,-4.1091,-4.1109,-4.1078,-4.1023,-4.0996,-4.098,-4.0917,-4.0898,-4.0907,-4.0907,-4.0837,-4.0807,-4.0807,-4.0868,-4.0858,-4.0804,-4.0804,-4.0618,-4.0219,-4.0223,-3.9848,-3.9063,-3.9044,-3.8626,-3.78,-3.78,-3.7314,-3.0604,-3.055,-3.0449,-3.0299,0.0,-3.0174,-3.0109,-3.0094,0.0,0.0,0.0,0.0,0.0,-3.0691,0.0,-3.3315,-3.3855,-3.4074,-3.3998,-3.3868,-3.3807,0.0,0.0,0.0,0.0,0.0,0.0,0.0,0.0,0.0,-3.3807,-3.3807,-3.3807,-3.3807,-3.3834,-3.386,-3.3921,-3.4074,-3.4148,-3.4148,-3.4316,-3.4517,-3.4728,-3.4792,-3.4927,-3.5057,-3.5147,-3.52,-3.5198,-3.5277,-3.5354,-3.5435,-3.5546,-3.5657,-3.5718,-3.5773,-3.5799,-3.5799,-3.5823,-3.5859,-3.5897,-3.5919,-3.5968,-3.5996,-3.6001,-3.6618,-3.734,-3.7555,-3.7731,-3.8037,-3.8716,-3.9496,-4.0101,-4.0106,-4.0617,-4.1094,-4.109,-4.1094,-4.1097,-4.1108,-4.1108,-4.1097,-4.1108,-4.109,-4.1104,-4.1106,-4.1084,-4.1059,-4.1023,-4.0988,-4.0971,-4.0907,-4.0888,-4.0886,-4.0876,-4.0834,-4.0804,-4.0804,-4.0796,-4.0804,-4.08,-4.0788,-4.0808,-4.0808,-4.0788,-4.0494,-3.9878,-3.9888,-3.9481,-3.8684,-3.871,-3.8233,-3.0597,-3.05,-3.0375,-3.0241,-3.0202,0.0,-3.0117,-3.0102,0.0,-2.994,0.0,0.0,0.0,-3.1017,-3.2533,-3.4072,-3.4184,-3.4049,-3.3921,0.0,0.0,0.0,0.0,0.0,0.0,0.0,0.0,0.0,0.0,0.0,-3.3807,-3.3807,-3.3807,-3.3807,-3.3842,-3.3921,-3.3998,-3.4197,-3.4293,-3.4293,-3.4539,-3.471,-3.4812,-3.4927,-3.5057,-3.5183,-3.52,-3.5198,-3.5209,-3.527,-3.5374,-3.5496,-3.5574,-3.5689,-3.5791,-3.5791,-3.5799,-3.5799,-3.5864,-3.5898,-3.5914,-3.5962,-3.6005,-3.5996,-3.6003,-3.6618,-3.7477,-3.8277,-3.9039,-3.9641,-3.9696,-4.0359,-4.1007,-4.1013,-4.1042,-4.1108,-4.1093,-4.1101,-4.1108,-4.1108,-4.1108,-4.1097,-4.1108,-4.1092,-4.1091,-4.1111,-4.1045,-4.102,-4.1003,-4.0999,-4.0965,-4.0917,-4.0848,-4.0804,-4.0815,-4.0803,-4.0803,-4.0803,-4.0808,-4.08,-4.08,-4.0796,-4.0803,-4.0803,-4.0808,-4.0781,-4.0703,-4.0779,-4.0364,-3.952,-3.9577,-3.914,-3.055,-3.0428,-3.0316,-3.0174,-3.0138,0.0,0.0,-3.0038,-3.0007,-2.9926,-2.9806,0.0,0.0,0.0,-3.2418,-3.3942,-3.4074,-3.3947,-3.3895,0.0,0.0,0.0,0.0,0.0,0.0,0.0,0.0,0.0,0.0,0.0,-3.3842,-3.3895,-3.3947,-3.3998,-3.4049,-3.4148,-3.4245,-3.445,-3.4583,-3.4609,-3.4711,-3.487,-3.5057,-3.5092,-3.5145,-3.5196,-3.5196,-3.5229,-3.5277,-3.5335,-3.5416,-3.5514,-3.5678,-3.5756,-3.5799,-3.5799,-3.5799,-3.5799,-3.5884,-3.5892,-3.5903,-3.5978,-3.6003,-3.5994,-3.5993,-3.6606,-3.7477,-3.8355,-3.9175,-3.9914,-4.0465,-4.0855,-4.109,-4.11,-4.1104,-4.1105,-4.1094,-4.1105,-4.1108,-4.1108,-4.1108,-4.1091,-4.1099,-4.1094,-4.1101,-4.11,-4.105,-4.1,-4.1003,-4.0999,-4.0965,-4.0907,-4.0846,-4.08,-4.0803,-4.079,-4.079,-4.079,-4.0803,-4.0796,-4.0796,-4.0803,-4.079,-4.079,-4.0803,-4.0796,-4.08,-4.0843,-4.069,-4.0403,-4.0432,-4.0004,-3.0458,-3.034,-3.0241,-3.0123,0.0,0.0,-2.9991,-2.9959,-2.991,-2.9808,-2.9889,0.0,-3.1595,0.0,0.0,0.0,-3.3972,-3.3895,0.0,0.0,0.0,0.0,0.0,0.0,0.0,0.0,0.0,0.0,0.0,0.0,0.0,-3.4049,-3.4124,-3.4197,-3.4269,-3.434,-3.4473,-3.4647,-3.4771,-3.487,-3.4908,-3.502,-3.52,-3.5198,-3.5196,-3.5209,-3.5226,-3.5277,-3.5308,-3.5412,-3.5483,-3.5585,-3.5737,-3.5801,-3.5799,-3.5799,-3.5799,-3.5799,-3.5857,-3.5878,-3.5905,-3.5958,-3.5971,-3.6009,-3.5995,-3.6619,-3.7426,-3.8024,-3.898,-3.9933,-4.0555,-4.0918,-4.1094,-4.1097,-4.1094,-4.1107,-4.1094,-4.1105,-4.1108,-4.1108,-4.1108,-4.1108,-4.1108,-4.1091,-4.1108,-4.1094,-4.1037,-4.0993,-4.0976,-4.0963,-4.0937,-4.0886,-4.0831,-4.0796,-4.0803,-4.079,-4.079,-4.079,-4.079,-4.079,-4.079,-4.079,-4.079,-4.079,-4.079,-4.0803,-4.0808,-4.0788,-4.0823,-4.0876,-4.0868,-4.0587,-3.0316,-3.0254,-3.0188,0.0,0.0,0.0,-2.9929,-2.9842,-2.9755,-2.9626,-3.0085,-3.0735,-3.1543,0.0,0.0,-3.3869,-3.3947,0.0,0.0,0.0,0.0,0.0,0.0,0.0,0.0,0.0,0.0,0.0,0.0,0.0,0.0,-3.4269,-3.434,-3.4386,-3.4473,-3.4539,-3.4583,-3.4732,-3.487,-3.5001,-3.5147,-3.52,-3.52,-3.5212,-3.5209,-3.5209,-3.5277,-3.5289,-3.5296,-3.5443,-3.5581,-3.5708,-3.5782,-3.5799,-3.5799,-3.5799,-3.5799,-3.5799,-3.5795,-3.5845,-3.5905,-3.5892,-3.5948,-3.5991,-3.5991,-3.6598,-3.7281,-3.7307,-3.8492,-3.978,-3.9878,-4.0496,-4.1097,-4.1094,-4.1103,-4.1091,-4.109,-4.1099,-4.1108,-4.1108,-4.1108,-4.1108,-4.1108,-4.1108,-4.1092,-4.1094,-4.1033,-4.0974,-4.0913,-4.0898,-4.0856,-4.08,-4.0796,-4.079,-4.079,-4.079,-4.079,-4.079,-4.079,-4.079,-4.079,-4.079,-4.079,-4.079,-4.079,-4.079,-4.079,-4.0808,-4.08,-4.08,-4.0796,-4.0837,-3.0174,-3.0075,0.0,-2.9959,0.0,0.0,0.0,-2.9736,0.0,0.0,-2.9981,-3.075,-3.1543,0.0,0.0,-3.3944,-3.4049,0.0,0.0,0.0,0.0,0.0,0.0,0.0,0.0,0.0,0.0,0.0,0.0,0.0,0.0,-3.4517,-3.4623,-3.4666,-3.4751,-3.4792,-3.487,-3.4964,-3.5038,-3.5147,-3.5179,-3.5212,-3.5212,-3.5193,-3.5226,-3.5277,-3.5289,-3.5345,-3.5457,-3.5593,-3.5679,-3.5775,-3.5782,-3.5799,-3.5799,-3.5799,-3.5799,-3.5799,-3.5795,-3.5811,-3.5845,-3.5872,-3.5917,-3.5943,-3.5985,-3.6183,-3.6503,-3.7127,-3.765,-3.8194,-3.8821,-3.9623,-4.0407,-4.0975,-4.1094,-4.1091,-4.1099,-4.1091,-4.1108,-4.1108,-4.1108,-4.1108,-4.1108,-4.1105,-4.1094,-4.1094,-4.1033,-4.0979,-4.0907,-4.0856,-4.0812,-4.08,-4.0796,-4.079,-4.079,-4.079,-4.079,-4.079,-4.079,-4.079,-4.079,-4.079,-4.079,-4.079,-4.079,-4.079,-4.079,-4.0803,-4.0796,-4.08,-4.0812,-4.0804,-3.003,-2.9905,0.0,-2.9808,-2.9737,-2.9645,-2.9569,0.0,0.0,0.0,0.0,-3.1187,-3.2071,-3.2911,0.0,-3.4147,0.0,0.0,0.0,0.0,0.0,0.0,0.0,0.0,0.0,0.0,0.0,0.0,0.0,0.0,0.0,-3.4751,-3.4849,-3.4907,-3.4964,-3.5001,-3.5038,-3.5111,-3.5147,-3.52,-3.5212,-3.5209,-3.5209,-3.5209,-3.5245,-3.5293,-3.536,-3.5464,-3.5593,-3.5708,-3.5756,-3.5793,-3.581,-3.5799,-3.5799,-3.5799,-3.5799,-3.5799,-3.5807,-3.5795,-3.5815,-3.5845,-3.5885,-3.5911,-3.5953,-3.5991,-3.6108,-3.6639,-3.7031,-3.742,-3.7949,-3.873,-3.9589,-4.039,-4.0855,-4.1099,-4.1091,-4.1108,-4.1108,-4.1108,-4.1108,-4.1108,-4.1108,-4.1103,-4.1093,-4.1105,-4.1033,-4.0976,-4.0868,-4.0823,-4.0788,-4.0796,-4.0803,-4.079,-4.079,-4.079,-4.079,-4.079,-4.079,-4.079,-4.079,-4.079,-4.079,-4.079,-4.079,-4.079,-4.079,-4.079,-4.0803,-4.0796,-4.0796,-4.08,-2.9905,-2.9734,-2.9608,-2.9664,-2.9626,0.0,-2.9332,-2.9323,-2.9576,-3.0253,0.0,-3.1908,-3.2841,-3.3753,-3.4363,-3.4427,0.0,0.0,0.0,0.0,0.0,0.0,0.0,0.0,0.0,0.0,0.0,0.0,0.0,0.0,0.0,-3.4983,-3.5057,-3.5111,-3.511,-3.511,-3.511,-3.5164,-3.52,-3.52,-3.5212,-3.5209,-3.5209,-3.5209,-3.5242,-3.5324,-3.5464,-3.5596,-3.5708,-3.5775,-3.5793,-3.5799,-3.5799,-3.5799,-3.5799,-3.5799,-3.5799,-3.5799,-3.5799,-3.5799,-3.5799,-3.5799,-3.5845,-3.5905,-3.5905,-3.5942,-3.6003,-3.6009,-3.656,-3.7187,-3.7183,-3.7826,-3.8666,-3.9406,-4.0299,-4.0991,-4.1088,-4.1108,-4.1108,-4.1108,-4.1108,-4.1108,-4.1108,-4.1101,-4.1092,-4.1092,-4.1033,-4.0952,-4.0839,-4.0804,-4.082,-4.0803,-4.0803,-4.0803,-4.0803,-4.0803,-4.0803,-4.079,-4.079,-4.079,-4.079,-4.079,-4.079,-4.079,-4.079,-4.079,-4.079,-4.079,-4.079,-4.079,-4.079,-4.0803,-2.977,-2.9608,0.0,0.0,-2.9453,-2.9332,-2.9181,-2.9658,-3.0198,-3.0364,-3.1121,-3.2028,-3.2978,-3.3952,-3.4645,0.0,0.0,0.0,0.0,0.0,0.0,0.0,0.0,0.0,0.0,0.0,0.0,0.0,0.0,0.0,-3.5057,-3.5129,-3.5164,-3.5183,-3.5179,-3.5176,-3.5176,-3.5193,-3.5193,0.0,-3.5209,-3.5226,-3.5277,-3.5277,-3.533,-3.5464,-3.5604,-3.5698,-3.5775,-3.5801,-3.5791,-3.5799,-3.5799,-3.5799,-3.5799,-3.5799,-3.5799,-3.5799,-3.5799,-3.5807,-3.5803,-3.5803,-3.5852,-3.5911,-3.5897,-3.5948,-3.5994,-3.5994,-3.6135,-3.6274,-3.6272,-3.6936,-3.7619,-3.7795,-3.8983,-4.0268,-4.0952,-4.1108,-4.1108,-4.1108,-4.1108,-4.1108,-4.1108,-4.1094,-4.1108,-4.1101,-4.1042,-4.0976,-4.0896,-4.0878,-4.0856,-4.0815,-4.0804,-4.0792,-4.0788,-4.0808,-4.0796,-4.079,-4.079,-4.079,-4.079,-4.079,-4.079,-4.079,-4.079,-4.079,-4.079,-4.079,-4.079,-4.079,-4.079,-4.0803,-2.9755,0.0,0.0,-2.939,0.0,-2.9286,-2.9218,-2.985,-3.058,-3.1032,-3.1846,-3.2776,-3.373,-3.4406,-3.483,0.0,0.0,0.0,0.0,0.0,0.0,0.0,0.0,0.0,0.0,0.0,0.0,0.0,0.0,-3.5162,-3.5162,-3.5179,-3.5196,-3.5196,-3.5193,-3.5209,-3.5209,-3.5209,-3.5209,-3.5209,-3.5226,-3.5289,-3.5412,-3.5412,-3.5457,-3.5543,-3.5658,-3.5737,-3.5801,-3.5791,-3.5799,-3.5799,-3.5799,-3.5799,-3.5799,-3.5799,-3.5799,-3.5799,-3.5799,-3.5807,-3.5803,-3.5803,-3.5852,-3.5911,-3.5903,-3.5943,-3.6005,-3.6001,-3.601,-3.5991,-3.5991,-3.6345,-3.6774,-3.7204,-3.859,-3.9917,-4.0385,-4.0815,-4.1108,-4.1108,-4.1108,-4.1108,-4.1108,-4.1097,-4.111,-4.111,-4.1078,-4.1031,-4.096,-4.0941,-4.0926,-4.0849,-4.0849,-4.0849,-4.0846,-4.0854,-4.0823,-4.08,-4.08,-4.08,-4.08,-4.08,-4.0808,-4.079,-4.079,-4.079,-4.079,-4.079,-4.079,-4.079,-4.0803,-4.0796,-2.9756,0.0,-2.9332,-2.9326,-2.9326,0.0,-2.9326,-3.0071,-3.0968,-3.1766,-3.2633,-3.354,-3.4536,-3.4849,0.0,0.0,0.0,0.0,0.0,0.0,0.0,0.0,0.0,0.0,0.0,0.0,0.0,0.0,0.0,-3.5209,-3.5209,-3.5209,-3.5209,-3.5209,-3.5209,-3.5209,-3.5209,-3.5209,-3.5209,-3.5226,-3.5308,-3.5393,-3.5528,-3.5521,-3.555,-3.5629,-3.5689,-3.5756,-3.5799,-3.5799,-3.5799,-3.5799,-3.5799,-3.5807,-3.5826,-3.5826,-3.5807,-3.5799,-3.5807,-3.5815,-3.5811,-3.5818,-3.5846,-3.5897,-3.5908,-3.5948,-3.6009,-3.5997,-3.6004,-3.5991,-3.5991,-3.5991,-3.6189,-3.6891,-3.8258,-3.9449,-3.9741,-4.0366,-4.0912,-4.1069,-4.1108,-4.1108,-4.1108,-4.1101,-4.109,-4.1094,-4.1108,-4.1085,-4.1017,-4.1013,-4.0986,-4.0929,-4.0921,-4.0924,-4.0917,-4.0917,-4.0878,-4.0819,-4.0819,-4.0819,-4.0809,-4.0809,-4.0826,-4.0815,-4.0815,-4.0803,-4.0803,-4.0803,-4.0796,-4.0796,-4.08,-4.0812,-2.9754,0.0,-2.9531,0.0,-2.9471,-2.9549,0.0,0.0,-3.1853,0.0,-3.276,-3.3667,-3.4617,-3.4946,0.0,0.0,0.0,0.0,0.0,0.0,0.0,0.0,0.0,0.0,0.0,0.0,0.0,0.0,-3.5209,-3.5209,-3.5209,-3.5209,-3.5209,-3.5209,-3.5209,-3.5209,-3.5209,-3.5209,-3.5226,-3.5277,-3.5407,-3.5496,-3.5589,-3.5648,-3.5689,-3.5699,-3.5766,-3.5793,-3.5799,-3.5799,-3.5807,-3.5803,-3.5803,-3.5838,-3.5891,-3.5891,-3.5838,-3.5803,-3.5864,-3.5898,-3.5898,-3.5892,-3.5883,-3.5904,-3.5904,-3.5942,-3.5997,-3.6001,-3.6004,-3.5991,-3.5991,-3.5991,-3.603,-3.615,-3.6911,-3.8024,-3.9488,-3.9897,-4.019,-4.0952,-4.1108,-4.1108,-4.1108,-4.1091,-4.1101,-4.1094,-4.1094,-4.109,-4.1088,-4.1081,-4.1056,-4.0987,-4.0981,-4.1,-4.0993,-4.0979,-4.0964,-4.0882,-4.0902,-4.0894,-4.0896,-4.0896,-4.0888,-4.0886,-4.0826,-4.0804,-4.0788,-4.0804,-4.0796,-4.0796,-4.0796,-4.0837,-2.9682,-2.9626,-2.9588,0.0,-2.9569,-2.9776,-3.0246,0.0,-3.2315,-3.2883,-3.3696,-3.4415,-3.4793,-3.502,0.0,0.0,0.0,0.0,0.0,0.0,0.0,0.0,0.0,0.0,0.0,0.0,0.0,0.0,-3.5209,-3.5209,-3.5209,-3.5209,-3.5209,-3.5209,-3.5245,-3.5261,-3.5261,-3.5258,-3.53,-3.5407,-3.5515,-3.5581,-3.5658,-3.5728,-3.5766,-3.5766,-3.5793,-3.5791,-3.5795,-3.5795,-3.5823,-3.5864,-3.5864,-3.5872,-3.5905,-3.5905,-3.5878,-3.5864,-3.5898,-3.5905,-3.5898,-3.5897,-3.5894,-3.5909,-3.5942,-3.5974,-3.6001,-3.6004,-3.601,-3.5991,-3.5991,-3.5991,-3.5991,-3.5991,-3.6286,-3.6911,-3.8121,-3.9136,-4.0054,-4.0932,-4.1108,-4.1091,-4.1099,-4.1094,-4.1119,-4.1152,-4.1113,-4.1093,-4.111,-4.1099,-4.1088,-4.1062,-4.1058,-4.107,-4.1061,-4.105,-4.1039,-4.0948,-4.0967,-4.0967,-4.096,-4.096,-4.0964,-4.0968,-4.0888,-4.0858,-4.0865,-4.0859,-4.0849,-4.0859,-4.0878,-4.0935,0.0,0.0,-2.9626,-2.9664,-2.9851,-3.0226,0.0,0.0,-3.2882,0.0,-3.4432,-3.5039,-3.4983,-3.5092,0.0,0.0,0.0,0.0,0.0,0.0,0.0,0.0,0.0,0.0,0.0,0.0,0.0,0.0,-3.5242,-3.5242,-3.5242,-3.5242,-3.5242,-3.5242,-3.5293,-3.5343,-3.5343,-3.5345,-3.5411,-3.5565,-3.5623,-3.5688,-3.5736,-3.5801,-3.5829,-3.581,-3.5818,-3.5795,-3.5803,-3.5811,-3.5852,-3.5905,-3.5905,-3.5892,-3.5892,-3.5892,-3.5892,-3.5911,-3.5892,-3.5905,-3.5897,-3.5889,-3.5904,-3.5923,-3.5974,-3.6001,-3.6004,-3.5991,-3.5991,-3.5991,-3.5991,-3.5991,-3.5991,-3.5991,-3.5991,-3.6247,-3.7106,-3.8629,-3.9995,-4.0678,-4.0952,-4.1094,-4.1103,-4.1101,-4.1144,-4.1191,-4.1152,-4.1133,-4.1133,-4.1132,-4.1129,-4.1129,-4.111,-4.1105,-4.1101,-4.1094,-4.1085,-4.1028,-4.1028,-4.1028,-4.1028,-4.1028,-4.1042,-4.1025,-4.0972,-4.0935,-4.0927,-4.0943,-4.0932,-4.0924,-4.0984,-4.1018,0.0,-2.9664,0.0,-2.9771,-3.0409,0.0,0.0,0.0,0.0,-3.3786,-3.4541,-3.52,-3.5183,-3.52,0.0,0.0,0.0,0.0,0.0,0.0,0.0,0.0,0.0,0.0,0.0,0.0,0.0,0.0,-3.5281,-3.5281,-3.5281,-3.5281,-3.5281,-3.5281,-3.5364,-3.5398,-3.5398,-3.5451,-3.555,-3.5678,-3.5747,-3.5782,-3.5791,-3.5872,-3.5898,-3.5898,-3.5838,-3.5803,-3.5811,-3.5872,-3.5892,-3.5905,-3.5905,-3.5897,-3.5908,-3.5908,-3.5897,-3.5905,-3.5903,-3.5908,-3.5889,-3.5904,-3.5942,-3.5997,-3.6001,-3.6004,-3.5991,-3.5991,-3.5991,-3.5991,-3.5991,-3.5991,-3.5991,-3.5991,-3.5991,-3.6247,-3.7106,-3.8629,-3.9839,-3.9937,-4.0581,-4.1108,-4.1091,-4.1147,-4.1191,-4.1191,-4.1191,-4.1191,-4.1191,-4.1191,-4.1191,-4.1191,-4.1133,-4.1094,-4.1094,-4.109,-4.1105,-4.1105,-4.1086,-4.1086,-4.1086,-4.1086,-4.1094,-4.1091,-4.1091,-4.1058,-4.0991,-4.0984,-4.0986,-4.0987,-4.0991,-4.1038,0.0,0.0,0.0,-2.9736,-3.041,-3.1236,-3.1838,-3.2931,-3.3971,-3.4577,-3.4971,-3.5196,-3.5196,-3.5196,0.0,0.0,0.0,0.0,0.0,0.0,0.0,0.0,0.0,0.0,0.0,0.0,0.0,0.0,0.0,-3.535,-3.535,-3.5397,-3.543,-3.543,-3.5483,-3.5521,-3.5526,-3.5596,-3.5669,-3.5757,-3.5782,-3.5823,-3.5852,-3.5898,-3.5905,-3.5905,-3.5866,-3.5866,-3.5866,-3.5885,-3.5903,-3.5894,-3.5943,-3.5943,-3.5904,-3.5904,-3.5899,-3.5894,-3.5899,-3.5929,-3.5953,-3.5966,-3.5974,-3.6001,-3.6007,-3.601,-3.5991,-3.6004,-3.6004,-3.6004,-3.5997,-3.5997,-3.5997,-3.6004,-3.6007,-3.6088,-3.6404,-3.7379,-3.8531,-3.9683,-4.0132,-4.0483,-4.101,-4.1167,-4.1191,-4.1191,-4.1191,-4.1191,-4.1191,-4.1191,-4.1191,-4.1191,-4.1172,-4.1152,-4.1152,-4.1152,-4.1151,-4.1151,-4.1151,-4.1151,-4.1151,-4.1112,-4.1103,-4.1096,-4.1104,-4.109,-4.1064,-4.1061,-4.1061,-4.1066,-4.1055,-4.1074,-2.955,0.0,0.0,0.0,0.0,-3.1654,-3.2255,0.0,-3.439,-3.5032,-3.5179,-3.5212,-3.5209,-3.5209,0.0,0.0,0.0,0.0,0.0,0.0,0.0,0.0,0.0,0.0,0.0,0.0,0.0,0.0,0.0,0.0,-3.547,-3.5502,-3.5546,-3.5577,-3.5612,-3.5637,-3.5659,-3.5718,-3.5773,-3.5826,-3.5826,-3.5866,-3.5898,-3.5905,-3.5905,-3.5898,-3.5897,-3.5897,-3.5897,-3.5889,-3.5904,-3.5934,-3.5981,-3.5962,-3.5934,-3.5934,-3.5934,-3.5934,-3.5934,-3.5962,-3.599,-3.5997,-3.6001,-3.6004,-3.5991,-3.5991,-3.5991,-3.6001,-3.6001,-3.5997,-3.6005,-3.6005,-3.5994,-3.5997,-3.6007,-3.5991,-3.5991,-3.6677,-3.7633,-3.8804,-3.9507,-4.0076,-4.0613,-4.0974,-4.1191,-4.1191,-4.1191,-4.1191,-4.1191,-4.1191,-4.1191,-4.1191,-4.1191,-4.1191,-4.1191,-4.1191,-4.1191,-4.1191,-4.1191,-4.1191,-4.1191,-4.1152,-4.113,-4.1127,-4.1121,-4.1133,-4.112,-4.1117,-4.1114,-4.1123,-4.1128,-4.1128,0.0,0.0,0.0,0.0,0.0,0.0,-3.2389,0.0,-3.502,-3.5075,-3.5147,-3.5198,-3.5193,-3.5209,0.0,0.0,0.0,0.0,0.0,0.0,0.0,0.0,0.0,0.0,0.0,0.0,0.0,0.0,-3.5588,-3.5588,-3.5588,-3.5588,-3.5648,-3.5688,-3.5688,-3.5747,-3.5799,-3.5799,-3.583,-3.5905,-3.5903,-3.5889,-3.5889,-3.5904,-3.5904,-3.5894,-3.5904,-3.5904,-3.5894,-3.5904,-3.5938,-3.6005,-3.6005,-3.6005,-3.6005,-3.6005,-3.6005,-3.6005,-3.6005,-3.5994,-3.6001,-3.6001,-3.6004,-3.5991,-3.5991,-3.5991,-3.601,-3.6001,-3.5997,-3.5997,-3.6005,-3.599,-3.5997,-3.5997,-3.6004,-3.5991,-3.5991,-3.6657,-3.7262,-3.7301,-3.8687,-3.9869,-3.9902,-4.0625,-4.1191,-4.1191,-4.1191,-4.1191,-4.1191,-4.1191,-4.1191,-4.1191,-4.1191,-4.1191,-4.1191,-4.1191,-4.1191,-4.1191,-4.1191,-4.1191,-4.1191,-4.1191,-4.1191,-4.1191,-4.1208,-4.1201,-4.1208,-4.113,-4.1142,-4.1191,-4.1191,-4.1191,-2.9491,0.0,0.0,0.0,0.0,0.0,0.0,0.0,0.0,-3.502,-3.5129,-3.52,-3.5198,-3.5212,-3.5209,0.0,0.0,0.0,0.0,0.0,0.0,0.0,0.0,0.0,0.0,0.0,0.0,0.0,-3.5669,-3.5669,-3.5669,-3.5718,-3.5756,-3.5771,-3.5771,-3.5807,-3.5864,-3.5878,-3.5879,-3.5903,-3.5899,-3.5929,-3.5977,-3.5977,-3.5977,-3.5977,-3.5977,-3.5962,-3.597,-3.597,-3.5974,-3.5997,-3.6004,-3.6001,-3.5997,-3.5997,-3.5997,-3.5997,-3.5997,-3.6001,-3.6007,-3.6007,-3.5991,-3.5991,-3.6004,-3.6004,-3.5997,-3.5934,-3.5924,-3.5924,-3.5928,-3.5933,-3.5948,-3.5986,-3.5997,-3.6004,-3.5991,-3.6196,-3.6552,-3.7187,-3.8194,-3.9159,-3.9785,-4.0625,-4.1191,-4.1191,-4.1191,-4.1191,-4.1191,-4.1191,-4.1191,-4.1191,-4.1191,-4.1191,-4.1191,-4.1191,-4.1191,-4.1191,-4.1191,-4.1191,-4.1191,-4.1191,-4.1191,-4.1191,-4.1191,-4.119,-4.1209,-4.119,-4.1171,-4.1191,-4.1191,-4.1191,0.0,0.0,0.0,0.0,0.0,0.0,-3.2479,-3.3823,-3.5037,0.0,-3.5164,-3.5215,-3.5231,-3.5226,-3.5239,0.0,0.0,0.0,0.0,0.0,0.0,0.0,0.0,0.0,0.0,-3.5747,-3.5736,-3.5736,-3.5736,-3.5736,-3.5736,-3.5784,-3.5791,-3.5803,-3.5803,-3.5826,-3.5892,-3.5911,-3.5903,-3.5899,-3.5934,-3.5962,-3.6005,-3.6009,-3.6009,-3.6005,-3.6009,-3.5994,-3.6001,-3.6004,-3.6004,-3.6004,-3.5991,-3.601,-3.6004,-3.6004,-3.6004,-3.6004,-3.6004,-3.6007,-3.6007,-3.6007,-3.6004,-3.5981,-3.597,-3.5966,-3.5942,-3.5883,-3.5859,-3.5866,-3.5866,-3.5885,-3.5908,-3.5953,-3.597,-3.6001,-3.5991,-3.6003,-3.6145,-3.6653,-3.7459,-3.832,-3.9219,-4.0078,-4.0781,-4.1152,-4.1191,-4.1191,-4.1191,-4.1191,-4.1191,-4.1191,-4.1191,-4.1191,-4.1191,-4.1191,-4.1191,-4.1191,-4.1191,-4.1191,-4.1191,-4.1191,-4.1191,-4.1191,-4.1191,-4.1191,-4.1191,-4.1191,-4.1191,-4.1191,-4.1191,-4.1191,0.0,0.0,0.0,0.0,0.0,0.0,-3.2749,-3.3982,-3.5124,0.0,0.0,-3.5226,-3.5293,-3.532,-3.5296,0.0,0.0,0.0,0.0,0.0,0.0,0.0,0.0,0.0,-3.5791,-3.5799,-3.5799,-3.5799,-3.5799,-3.5799,-3.5799,-3.5799,-3.5815,-3.5811,-3.5811,-3.5833,-3.5891,-3.5903,-3.5899,-3.5914,-3.597,-3.5997,-3.6009,-3.5997,-3.5997,-3.6009,-3.5997,-3.6001,-3.6001,-3.601,-3.5991,-3.5991,-3.5991,-3.5991,-3.5991,-3.5991,-3.5991,-3.5991,-3.5991,-3.6007,-3.6001,-3.5997,-3.599,-3.5977,-3.5909,-3.588,-3.5869,-3.5801,-3.5776,-3.5791,-3.5795,-3.5833,-3.5885,-3.5899,-3.5942,-3.6001,-3.601,-3.6001,-3.6009,-3.5995,-3.6699,-3.7578,-3.8457,-3.9316,-4.0195,-4.1074,-4.1191,-4.1191,-4.1191,-4.1191,-4.1191,-4.1191,-4.1191,-4.1191,-4.1191,-4.1191,-4.1191,-4.1191,-4.1191,-4.1191,-4.1191,-4.1191,-4.1191,-4.1191,-4.1191,-4.1191,-4.1191,-4.1191,-4.1191,-4.1191,-4.1191,-4.1191,0.0,0.0,0.0,0.0,0.0,0.0,-3.3707,-3.4486,-3.5174,0.0,-3.5239,-3.5285,-3.53,-3.534,-3.5383,-3.5379,0.0,0.0,0.0,0.0,0.0,0.0,0.0,0.0,-3.5791,-3.5799,-3.5799,-3.5799,-3.5788,-3.5803,-3.5803,-3.5857,-3.5878,-3.5872,-3.5879,-3.5891,-3.5899,-3.5904,-3.5938,-3.5974,-3.5997,-3.6001,-3.6007,-3.6007,-3.6007,-3.6007,-3.6007,-3.601,-3.601,-3.5991,-3.5991,-3.5991,-3.5991,-3.5991,-3.5991,-3.5991,-3.5991,-3.5991,-3.5991,-3.6007,-3.5997,-3.5931,-3.5914,-3.5914,-3.5846,-3.5813,-3.5815,-3.5747,-3.5689,-3.5649,-3.5718,-3.5773,-3.5826,-3.5879,-3.5919,-3.5923,-3.5988,-3.6001,-3.6005,-3.6001,-3.6696,-3.7578,-3.8457,-3.9316,-4.0195,-4.1074,-4.1191,-4.1191,-4.1191,-4.1191,-4.1191,-4.1191,-4.1191,-4.1191,-4.1191,-4.1191,-4.1191,-4.1191,-4.1191,-4.1191,-4.1191,-4.1191,-4.1191,-4.1191,-4.1191,-4.117,-4.1116,-4.1116,-4.1116,-4.1116,-4.1116,-4.1116,0.0,0.0,0.0,-3.187,0.0,0.0,0.0,-3.4721,-3.5345,-3.5296,-3.5355,-3.5411,-3.5411,-3.5445,-3.5495,-3.5509,-3.5509,-3.5509,0.0,0.0,0.0,0.0,0.0,0.0,-3.5791,-3.5799,-3.5799,-3.5799,-3.5795,-3.5803,-3.5803,-3.5872,-3.5911,-3.5905,-3.5897,-3.5908,-3.5909,-3.5919,-3.597,-3.6001,-3.6004,-3.6007,-3.5991,-3.5991,-3.5991,-3.5991,-3.5991,-3.5991,-3.5991,-3.5991,-3.5991,-3.5991,-3.5991,-3.5991,-3.5991,-3.5991,-3.601,-3.6007,-3.6007,-3.5974,-3.5934,-3.5904,-3.5872,-3.5833,-3.5776,-3.5736,-3.5698,-3.5657,-3.5623,-3.5612,-3.5639,-3.5708,-3.5763,-3.582,-3.5889,-3.5966,-3.5988,-3.5996,-3.5999,-3.5994,-3.6358,-3.7069,-3.8379,-3.8965,-3.9707,-4.0996,-4.1191,-4.1191,-4.1191,-4.1191,-4.1191,-4.1191,-4.1191,-4.1191,-4.1191,-4.1191,-4.1191,-4.1191,-4.1191,-4.1191,-4.1191,-4.1191,-4.1171,-4.1146,-4.1155,-4.1127,-4.1108,-4.1109,-4.1096,-4.1096,-4.1096,-4.1091,0.0,0.0,0.0,0.0,0.0,-3.4347,0.0,0.0,0.0,0.0,0.0,0.0,0.0,0.0,0.0,0.0,0.0,0.0,0.0,-3.5626,0.0,0.0,0.0,0.0,-3.5815,-3.5815,-3.5826,-3.5826,-3.583,-3.5818,-3.5818,-3.5859,-3.5898,-3.5891,-3.5908,-3.5919,-3.5914,-3.597,-3.6001,-3.6001,-3.6007,-3.5991,-3.5991,-3.5991,-3.5991,-3.5991,-3.5991,-3.5991,-3.5991,-3.5991,-3.5991,-3.5991,-3.5991,-3.5991,-3.5991,-3.5991,-3.6007,-3.6001,-3.6001,-3.5962,-3.5908,-3.5891,-3.5838,-3.5736,-3.5689,-3.5626,-3.5589,-3.5577,-3.5572,-3.5572,-3.5593,-3.5649,-3.5726,-3.5779,-3.5883,-3.5986,-3.6004,-3.601,-3.5991,-3.5991,-3.6001,-3.6558,-3.8301,-3.8594,-3.9199,-4.0937,-4.1191,-4.1191,-4.1191,-4.1191,-4.1191,-4.1191,-4.1191,-4.1191,-4.1191,-4.1191,-4.1191,-4.1191,-4.1191,-4.1191,-4.119,-4.1189,-4.1164,-4.1111,-4.11,-4.1095,-4.1097,-4.1089,-4.1078,-4.111,-4.1085,-4.1045,0.0,0.0,0.0,0.0,-3.4508,0.0,0.0,0.0,-3.5591,-3.5591,0.0,0.0,0.0,0.0,0.0,0.0,0.0,0.0,-3.5688,-3.5737,-3.5785,-3.5782,0.0,0.0,0.0,-3.5885,-3.5891,-3.5891,-3.5892,-3.5879,-3.5879,-3.5897,-3.5903,-3.5908,-3.5899,-3.5934,-3.5981,-3.5994,-3.6004,-3.5991,-3.5991,-3.5991,-3.5991,-3.5991,-3.5991,-3.5991,-3.5991,-3.5991,-3.5991,-3.5991,-3.5991,-3.5991,-3.5991,-3.5991,-3.5991,-3.5991,-3.6007,-3.6001,-3.6001,-3.5962,-3.5883,-3.5833,-3.5724,-3.5607,-3.5546,-3.5528,-3.5515,-3.5515,-3.552,-3.5534,-3.5591,-3.5654,-3.5718,-3.5791,-3.5859,-3.5934,-3.5986,-3.6001,-3.5991,-3.5991,-3.5994,-3.655,-3.83,-3.8594,-3.9199,-4.0937,-4.1191,-4.1191,-4.1191,-4.1191,-4.1191,-4.1191,-4.1191,-4.1191,-4.1191,-4.1191,-4.1191,-4.1191,-4.1191,-4.1209,-4.1194,-4.1139,-4.1111,-4.1108,-4.11,-4.1091,-4.1103,-4.103,-4.105,-4.111,-4.1038,-4.1015,0.0,0.0,0.0,0.0,0.0,0.0,-3.5528,0.0,-3.5651,0.0,0.0,0.0,0.0,0.0,0.0,0.0,-3.5818,0.0,0.0,0.0,-3.5852,0.0,0.0,0.0,0.0,0.0,0.0,0.0,-3.5905,-3.5905,-3.5892,-3.5911,-3.5897,-3.5897,-3.5899,-3.5909,-3.5938,-3.5974,-3.6001,-3.6004,-3.601,-3.5991,-3.5991,-3.5991,-3.5991,-3.5991,-3.5991,-3.5991,-3.5991,-3.5991,-3.5991,-3.5991,-3.5991,-3.5991,-3.5991,-3.5991,-3.6004,-3.599,-3.599,-3.5919,-3.582,-3.5726,-3.5618,-3.5534,-3.5509,-3.5515,-3.5501,-3.5507,-3.5501,-3.5522,-3.5584,-3.5637,-3.5727,-3.5779,-3.5885,-3.5981,-3.5986,-3.6001,-3.5994,-3.6003,-3.5999,-3.6548,-3.83,-3.8594,-3.9199,-4.0937,-4.1191,-4.1191,-4.1191,-4.1191,-4.1191,-4.1191,-4.1191,-4.1191,-4.1191,-4.1191,-4.1191,-4.1191,-4.1168,-4.1133,-4.113,-4.1103,-4.1103,-4.1111,-4.1064,-4.1042,-4.1039,-4.096,-4.0991,-4.1042,-4.0971,-4.0945,-3.4945,0.0,0.0,0.0,0.0,0.0,0.0,0.0,0.0,0.0,0.0,0.0,0.0,0.0,0.0,0.0,0.0,-3.5905,0.0,-3.591,0.0,0.0,0.0,0.0,0.0,0.0,0.0,-3.5903,-3.5897,-3.5905,-3.5911,-3.5898,-3.5905,-3.5905,-3.5894,-3.5904,-3.5909,-3.597,-3.6001,-3.6001,-3.6007,-3.5991,-3.5991,-3.5991,-3.5991,-3.5991,-3.5991,-3.5991,-3.5991,-3.5991,-3.5991,-3.5991,-3.5991,-3.5991,-3.5991,-3.5991,-3.6001,-3.6005,-3.6005,-3.5897,-3.576,-3.5637,-3.5546,-3.5502,-3.5501,-3.5493,-3.5493,-3.5493,-3.5495,-3.5528,-3.5589,-3.5649,-3.5715,-3.5776,-3.5897,-3.6005,-3.6001,-3.6001,-3.5996,-3.6005,-3.5999,-3.6548,-3.83,-3.8594,-3.9199,-4.0937,-4.1191,-4.1191,-4.1191,-4.1191,-4.1191,-4.1191,-4.1191,-4.1191,-4.1191,-4.119,-4.1188,-4.1164,-4.113,-4.1105,-4.1091,-4.1071,-4.1064,-4.1065,-4.101,-4.0974,-4.0991,-4.0926,-4.0927,-4.0965,-4.0898,-4.0878,0.0,0.0,0.0,-3.5251,0.0,0.0,0.0,0.0,-3.5704,0.0,0.0,0.0,0.0,0.0,0.0,0.0,0.0,0.0,0.0,0.0,0.0,0.0,0.0,0.0,0.0,0.0,-3.597,-3.5895,-3.5899,-3.5903,-3.5905,-3.5892,-3.5892,-3.5905,-3.5903,-3.5894,-3.5909,-3.597,-3.6001,-3.6001,-3.6007,-3.5991,-3.5991,-3.5991,-3.5991,-3.5991,-3.5991,-3.5991,-3.5991,-3.5991,-3.5991,-3.5991,-3.5991,-3.5991,-3.5991,-3.5991,-3.6001,-3.6005,-3.6005,-3.5866,-3.5688,-3.5626,-3.5546,-3.5502,-3.5501,-3.5493,-3.5493,-3.5493,-3.5495,-3.5528,-3.5589,-3.5649,-3.5715,-3.5776,-3.5897,-3.6001,-3.5997,-3.5997,-3.5994,-3.5994,-3.5994,-3.6548,-3.83,-3.8594,-3.9199,-4.0937,-4.1191,-4.1191,-4.1191,-4.1191,-4.1191,-4.1191,-4.1191,-4.1191,-4.1191,-4.1203,-4.1172,-4.1117,-4.11,-4.11,-4.1091,-4.1038,-4.1002,-4.1006,-4.0943,-4.0945,-4.101,-4.0937,-4.0907,-4.0907,-4.0818,-4.0787,0.0,0.0,-3.5251,-3.533,0.0,0.0,0.0,0.0,0.0,0.0,0.0,0.0,0.0,0.0,0.0,0.0,0.0,0.0,0.0,0.0,0.0,0.0,0.0,0.0,0.0,0.0,0.0,-3.597,-3.5924,-3.5897,-3.5892,-3.5852,-3.5852,-3.5911,-3.5905,-3.5903,-3.5894,-3.5981,-3.599,-3.599,-3.6004,-3.5991,-3.5991,-3.5991,-3.5991,-3.5991,-3.5991,-3.5991,-3.5991,-3.5991,-3.6007,-3.6004,-3.6004,-3.6001,-3.5997,-3.6007,-3.6001,-3.6001,-3.5891,-3.5791,-3.5688,-3.5626,-3.5546,-3.5502,-3.5501,-3.5493,-3.5507,-3.5495,-3.5528,-3.557,-3.5648,-3.5726,-3.5779,-3.5859,-3.5924,-3.5994,-3.6009,-3.5991,-3.6003,-3.5994,-3.6005,-3.6541,-3.8301,-3.8594,-3.9199,-4.0937,-4.1191,-4.1191,-4.1191,-4.1191,-4.1191,-4.1191,-4.1191,-4.1191,-4.1191,-4.1162,-4.112,-4.1104,-4.111,-4.1078,-4.1038,-4.0963,-4.0935,-4.0924,-4.0869,-4.0878,-4.0926,-4.0868,-4.0867,-4.0897,-4.0834,-4.0792,-3.5383,-3.5369,0.0,-3.5457,-3.5534,0.0,-3.5626,0.0,0.0,0.0,0.0,0.0,0.0,0.0,0.0,0.0,0.0,0.0,0.0,-3.6003,0.0,0.0,0.0,0.0,0.0,0.0,-3.5982,-3.5966,-3.5919,-3.5885,0.0,0.0,-3.583,-3.5898,-3.5892,-3.5891,-3.5894,-3.5977,-3.6005,-3.599,-3.6004,-3.5991,-3.5991,-3.5991,-3.5991,-3.5991,-3.5991,-3.5991,-3.5991,-3.6007,-3.6004,-3.5997,-3.5974,-3.5962,-3.5977,-3.5997,-3.597,-3.5943,-3.5838,-3.5763,-3.5698,-3.5623,-3.5553,-3.5502,-3.5501,-3.5493,-3.5507,-3.5502,-3.5553,-3.5623,-3.5689,-3.5752,-3.5827,-3.5883,-3.5953,-3.5994,-3.5994,-3.5996,-3.5991,-3.6007,-3.5994,-3.6543,-3.8301,-3.8594,-3.9199,-4.0937,-4.1191,-4.1191,-4.1191,-4.1191,-4.1191,-4.1191,-4.1191,-4.1191,-4.1191,-4.1142,-4.11,-4.1104,-4.1084,-4.1025,-4.0975,-4.0898,-4.0869,-4.0888,-4.0828,-4.0839,-4.0907,-4.0839,-4.0818,-4.0867,-4.0812,-4.0808]}]]